<?xml version='1.0' encoding='UTF-8'?><gpx version="1.1" creator="JPX - https://github.com/jenetics/jpx" xmlns="http://www.topografix.com/GPX/1/1"><trk><trkseg><trkpt lat="44.81146748174482" lon="8.425965690889806"><ele>161.0</ele><time>2026-03-28T14:27:10Z</time></trkpt><trkpt lat="44.81152843990064" lon="8.42589513055901"><ele>161.0</ele><time>2026-03-28T14:27:11Z</time></trkpt><trkpt lat="44.81158842986377" lon="8.425822998019287"><ele>161.0</ele><time>2026-03-28T14:27:12Z</time></trkpt><trkpt lat="44.811683874641915" lon="8.42570587453872"><ele>161.0</ele><time>2026-03-28T14:27:14Z</time></trkpt><trkpt lat="44.811727213106074" lon="8.425638128928258"><ele>161.0</ele><time>2026-03-28T14:27:15Z</time></trkpt><trkpt lat="44.81177225220229" lon="8.425572153879873"><ele>161.0</ele><time>2026-03-28T14:27:16Z</time></trkpt><trkpt lat="44.811862860007516" lon="8.42546080770379"><ele>159.20000000000002</ele><time>2026-03-28T14:27:18Z</time></trkpt><trkpt lat="44.811951528550786" lon="8.425368498493288"><ele>157.4</ele><time>2026-03-28T14:27:20Z</time></trkpt><trkpt lat="44.812010369984854" lon="8.42523788441135"><ele>155.6</ele><time>2026-03-28T14:27:22Z</time></trkpt><trkpt lat="44.812062491912435" lon="8.42514026368745"><ele>153.8</ele><time>2026-03-28T14:27:24Z</time></trkpt><trkpt lat="44.8121437127763" lon="8.425074957594854"><ele>152.0</ele><time>2026-03-28T14:27:26Z</time></trkpt><trkpt lat="44.8122191646881" lon="8.425007559826968"><ele>152.0</ele><time>2026-03-28T14:27:28Z</time></trkpt><trkpt lat="44.81227567847064" lon="8.424967480358449"><ele>152.0</ele><time>2026-03-28T14:27:35Z</time></trkpt><trkpt lat="44.81228284730724" lon="8.424870640514897"><ele>152.0</ele><time>2026-03-28T14:27:40Z</time></trkpt><trkpt lat="44.81225142789151" lon="8.424770803532864"><ele>152.0</ele><time>2026-03-28T14:27:42Z</time></trkpt><trkpt lat="44.812174538062756" lon="8.424652028312975"><ele>152.0</ele><time>2026-03-28T14:27:44Z</time></trkpt><trkpt lat="44.812086690682975" lon="8.424555491485672"><ele>152.0</ele><time>2026-03-28T14:27:46Z</time></trkpt><trkpt lat="44.81201840141788" lon="8.42450034008236"><ele>152.5</ele><time>2026-03-28T14:27:48Z</time></trkpt><trkpt lat="44.81205476601303" lon="8.42441670228179"><ele>153.0</ele><time>2026-03-28T14:27:49Z</time></trkpt><trkpt lat="44.812050042115615" lon="8.424316486479363"><ele>153.5</ele><time>2026-03-28T14:27:50Z</time></trkpt><trkpt lat="44.81206776529441" lon="8.424189616432773"><ele>154.0</ele><time>2026-03-28T14:27:51Z</time></trkpt><trkpt lat="44.81205679418496" lon="8.424074936417771"><ele>154.5</ele><time>2026-03-28T14:27:52Z</time></trkpt><trkpt lat="44.81205141447526" lon="8.423956382447862"><ele>155.0</ele><time>2026-03-28T14:27:53Z</time></trkpt><trkpt lat="44.8120715185365" lon="8.423855263131184"><ele>156.28571428571428</ele><time>2026-03-28T14:27:54Z</time></trkpt><trkpt lat="44.81208244087119" lon="8.423758235687286"><ele>157.57142857142856</ele><time>2026-03-28T14:27:55Z</time></trkpt><trkpt lat="44.81210052207577" lon="8.423671824799731"><ele>158.85714285714283</ele><time>2026-03-28T14:27:56Z</time></trkpt><trkpt lat="44.81212666440312" lon="8.423585276416667"><ele>160.14285714285714</ele><time>2026-03-28T14:27:57Z</time></trkpt><trkpt lat="44.812133002183856" lon="8.423476247500686"><ele>161.42857142857142</ele><time>2026-03-28T14:27:59Z</time></trkpt><trkpt lat="44.81220227940503" lon="8.42349121064482"><ele>162.7142857142857</ele><time>2026-03-28T14:28:01Z</time></trkpt><trkpt lat="44.81228356547074" lon="8.42345419934809"><ele>164.0</ele><time>2026-03-28T14:28:08Z</time></trkpt><trkpt lat="44.81233764154815" lon="8.423381269097716"><ele>163.99999999999997</ele><time>2026-03-28T14:28:10Z</time></trkpt><trkpt lat="44.81238692696931" lon="8.423301131560796"><ele>164.0</ele><time>2026-03-28T14:28:13Z</time></trkpt><trkpt lat="44.81232049726444" lon="8.42328693907235"><ele>164.0</ele><time>2026-03-28T14:28:19Z</time></trkpt><trkpt lat="44.812309352788574" lon="8.423375229667517"><ele>164.0</ele><time>2026-03-28T14:28:21Z</time></trkpt><trkpt lat="44.81225245648141" lon="8.423425190192813"><ele>164.0</ele><time>2026-03-28T14:28:23Z</time></trkpt><trkpt lat="44.812229394005364" lon="8.42353564078598"><ele>163.99999999999997</ele><time>2026-03-28T14:28:26Z</time></trkpt><trkpt lat="44.81222586958846" lon="8.423627273740097"><ele>164.0</ele><time>2026-03-28T14:28:29Z</time></trkpt><trkpt lat="44.812290389723685" lon="8.423704640304265"><ele>164.0</ele><time>2026-03-28T14:28:32Z</time></trkpt><trkpt lat="44.81236369055621" lon="8.423667686748177"><ele>164.0</ele><time>2026-03-28T14:28:35Z</time></trkpt><trkpt lat="44.8124451083367" lon="8.42368457119188"><ele>164.0</ele><time>2026-03-28T14:28:38Z</time></trkpt><trkpt lat="44.81248293271583" lon="8.423762328502479"><ele>164.0</ele><time>2026-03-28T14:28:41Z</time></trkpt><trkpt lat="44.81243288926224" lon="8.423837533829241"><ele>164.0</ele><time>2026-03-28T14:28:45Z</time></trkpt><trkpt lat="44.812339356464214" lon="8.42381392590327"><ele>164.0</ele><time>2026-03-28T14:28:47Z</time></trkpt><trkpt lat="44.81225528448832" lon="8.423787492560304"><ele>164.0</ele><time>2026-03-28T14:28:49Z</time></trkpt><trkpt lat="44.812213211592564" lon="8.42371242254846"><ele>164.0</ele><time>2026-03-28T14:28:51Z</time></trkpt><trkpt lat="44.81223486451224" lon="8.423562570849214"><ele>164.0</ele><time>2026-03-28T14:28:53Z</time></trkpt><trkpt lat="44.812197506894556" lon="8.423478116432744"><ele>164.0</ele><time>2026-03-28T14:28:55Z</time></trkpt><trkpt lat="44.81212362534662" lon="8.423500512602638"><ele>164.0</ele><time>2026-03-28T14:28:57Z</time></trkpt><trkpt lat="44.81211861720876" lon="8.423615579506947"><ele>164.0</ele><time>2026-03-28T14:28:59Z</time></trkpt><trkpt lat="44.812107599758214" lon="8.423793832656958"><ele>162.2</ele><time>2026-03-28T14:29:01Z</time></trkpt><trkpt lat="44.81209380437134" lon="8.423886581557113"><ele>160.39999999999998</ele><time>2026-03-28T14:29:02Z</time></trkpt><trkpt lat="44.81206822048544" lon="8.424052089030845"><ele>158.6</ele><time>2026-03-28T14:29:04Z</time></trkpt><trkpt lat="44.81206701198286" lon="8.424147249700106"><ele>156.8</ele><time>2026-03-28T14:29:05Z</time></trkpt><trkpt lat="44.81202897861224" lon="8.4243307460675"><ele>155.0</ele><time>2026-03-28T14:29:07Z</time></trkpt><trkpt lat="44.811995968422615" lon="8.424418888556183"><ele>155.0</ele><time>2026-03-28T14:29:08Z</time></trkpt><trkpt lat="44.81199990925886" lon="8.424549251074772"><ele>155.0</ele><time>2026-03-28T14:29:10Z</time></trkpt><trkpt lat="44.81206255174851" lon="8.424577861387068"><ele>155.0</ele><time>2026-03-28T14:29:12Z</time></trkpt><trkpt lat="44.8121362749843" lon="8.42462152977327"><ele>155.0</ele><time>2026-03-28T14:29:14Z</time></trkpt><trkpt lat="44.81220238715288" lon="8.42468738176829"><ele>155.0</ele><time>2026-03-28T14:29:15Z</time></trkpt><trkpt lat="44.81224101974163" lon="8.424858815177652"><ele>155.0</ele><time>2026-03-28T14:29:17Z</time></trkpt><trkpt lat="44.81227321365717" lon="8.42494050536152"><ele>154.5</ele><time>2026-03-28T14:29:18Z</time></trkpt><trkpt lat="44.81233310182778" lon="8.424999949843711"><ele>154.0</ele><time>2026-03-28T14:29:19Z</time></trkpt><trkpt lat="44.812414384326814" lon="8.425077375645513"><ele>153.5</ele><time>2026-03-28T14:29:21Z</time></trkpt><trkpt lat="44.81248103037679" lon="8.42506387978408"><ele>153.0</ele><time>2026-03-28T14:29:25Z</time></trkpt><trkpt lat="44.81252650263338" lon="8.424991717562673"><ele>152.5</ele><time>2026-03-28T14:29:27Z</time></trkpt><trkpt lat="44.812538269215" lon="8.424878134769601"><ele>152.0</ele><time>2026-03-28T14:29:30Z</time></trkpt><trkpt lat="44.81252563247117" lon="8.424755295775205"><ele>152.0</ele><time>2026-03-28T14:29:34Z</time></trkpt><trkpt lat="44.81255392921967" lon="8.424670580930421"><ele>152.0</ele><time>2026-03-28T14:29:37Z</time></trkpt><trkpt lat="44.81261067452494" lon="8.424602966538815"><ele>152.0</ele><time>2026-03-28T14:29:40Z</time></trkpt><trkpt lat="44.81266632193589" lon="8.424543549532977"><ele>152.0</ele><time>2026-03-28T14:29:42Z</time></trkpt><trkpt lat="44.81271043681617" lon="8.424474509621765"><ele>152.0</ele><time>2026-03-28T14:29:45Z</time></trkpt><trkpt lat="44.81263492835763" lon="8.424507361973584"><ele>152.0</ele><time>2026-03-28T14:30:00Z</time></trkpt><trkpt lat="44.8125858840293" lon="8.424625116903758"><ele>152.0</ele><time>2026-03-28T14:30:02Z</time></trkpt><trkpt lat="44.812510219102776" lon="8.424704329318672"><ele>152.0</ele><time>2026-03-28T14:30:04Z</time></trkpt><trkpt lat="44.812522301355884" lon="8.424861444341204"><ele>152.0</ele><time>2026-03-28T14:30:07Z</time></trkpt><trkpt lat="44.81248843021234" lon="8.424973605916685"><ele>152.0</ele><time>2026-03-28T14:30:09Z</time></trkpt><trkpt lat="44.81248513603157" lon="8.425064017938713"><ele>152.0</ele><time>2026-03-28T14:30:11Z</time></trkpt><trkpt lat="44.812471411054155" lon="8.425183196039702"><ele>152.0</ele><time>2026-03-28T14:30:15Z</time></trkpt><trkpt lat="44.812558739152145" lon="8.425312132440087"><ele>152.0</ele><time>2026-03-28T14:30:17Z</time></trkpt><trkpt lat="44.812625582365285" lon="8.425413625719107"><ele>152.0</ele><time>2026-03-28T14:30:19Z</time></trkpt><trkpt lat="44.812685407357186" lon="8.425516214025798"><ele>152.0</ele><time>2026-03-28T14:30:21Z</time></trkpt><trkpt lat="44.812722264438335" lon="8.42559615300414"><ele>152.0</ele><time>2026-03-28T14:30:22Z</time></trkpt><trkpt lat="44.812799296237785" lon="8.425769586895298"><ele>152.0</ele><time>2026-03-28T14:30:24Z</time></trkpt><trkpt lat="44.81288026686408" lon="8.425933607352963"><ele>152.66666666666666</ele><time>2026-03-28T14:30:26Z</time></trkpt><trkpt lat="44.812930234812384" lon="8.426023984372256"><ele>153.33333333333331</ele><time>2026-03-28T14:30:27Z</time></trkpt><trkpt lat="44.81295271314964" lon="8.426120381316222"><ele>154.0</ele><time>2026-03-28T14:30:28Z</time></trkpt><trkpt lat="44.81305587890671" lon="8.426162101224978"><ele>154.66666666666666</ele><time>2026-03-28T14:30:30Z</time></trkpt><trkpt lat="44.813120542444665" lon="8.426122640054547"><ele>155.33333333333334</ele><time>2026-03-28T14:30:33Z</time></trkpt><trkpt lat="44.813187090474436" lon="8.426119977089352"><ele>156.0</ele><time>2026-03-28T14:30:39Z</time></trkpt><trkpt lat="44.81322540210754" lon="8.425967886432655"><ele>156.0</ele><time>2026-03-28T14:30:43Z</time></trkpt><trkpt lat="44.81325555506428" lon="8.425848650875027"><ele>156.0</ele><time>2026-03-28T14:30:45Z</time></trkpt><trkpt lat="44.813282344125966" lon="8.425752698361327"><ele>156.0</ele><time>2026-03-28T14:30:47Z</time></trkpt><trkpt lat="44.81333866664741" lon="8.425639561792282"><ele>156.0</ele><time>2026-03-28T14:30:50Z</time></trkpt><trkpt lat="44.81337746036249" lon="8.425542974765143"><ele>156.0</ele><time>2026-03-28T14:30:52Z</time></trkpt><trkpt lat="44.813407404077644" lon="8.425432459861655"><ele>156.0</ele><time>2026-03-28T14:30:54Z</time></trkpt><trkpt lat="44.814139423625655" lon="8.424214725902301"><ele>159.4</ele><time>2026-03-28T14:31:16Z</time></trkpt><trkpt lat="44.81423133145632" lon="8.424180947310276"><ele>162.8</ele><time>2026-03-28T14:31:18Z</time></trkpt><trkpt lat="44.814246272424604" lon="8.424009042610907"><ele>166.20000000000002</ele><time>2026-03-28T14:31:24Z</time></trkpt><trkpt lat="44.814207103013885" lon="8.423900983784563"><ele>169.6</ele><time>2026-03-28T14:31:25Z</time></trkpt><trkpt lat="44.81418679850134" lon="8.42378359093012"><ele>173.0</ele><time>2026-03-28T14:31:26Z</time></trkpt><trkpt lat="44.81423574494885" lon="8.423529171413607"><ele>173.0</ele><time>2026-03-28T14:31:28Z</time></trkpt><trkpt lat="44.814244128292316" lon="8.423382242306845"><ele>173.0</ele><time>2026-03-28T14:31:29Z</time></trkpt><trkpt lat="44.81424714697895" lon="8.423221955407023"><ele>173.0</ele><time>2026-03-28T14:31:30Z</time></trkpt><trkpt lat="44.81424137650608" lon="8.423060448478934"><ele>173.0</ele><time>2026-03-28T14:31:31Z</time></trkpt><trkpt lat="44.81422620377643" lon="8.422917434077227"><ele>173.0</ele><time>2026-03-28T14:31:32Z</time></trkpt><trkpt lat="44.81420238608167" lon="8.422771596727598"><ele>173.0</ele><time>2026-03-28T14:31:33Z</time></trkpt><trkpt lat="44.81417660962632" lon="8.422620006615258"><ele>173.0</ele><time>2026-03-28T14:31:34Z</time></trkpt><trkpt lat="44.81415671336685" lon="8.422490573021705"><ele>173.0</ele><time>2026-03-28T14:31:35Z</time></trkpt><trkpt lat="44.81414682523244" lon="8.422382975012868"><ele>173.0</ele><time>2026-03-28T14:31:36Z</time></trkpt><trkpt lat="44.814137929119994" lon="8.422294833126509"><ele>173.0</ele><time>2026-03-28T14:31:37Z</time></trkpt><trkpt lat="44.81420789331349" lon="8.422250898938586"><ele>173.0</ele><time>2026-03-28T14:31:38Z</time></trkpt><trkpt lat="44.81427800237787" lon="8.422241742977267"><ele>173.0</ele><time>2026-03-28T14:31:39Z</time></trkpt><trkpt lat="44.814354064321805" lon="8.42224882992275"><ele>173.0</ele><time>2026-03-28T14:31:40Z</time></trkpt><trkpt lat="44.81442702483639" lon="8.422221777538795"><ele>173.0</ele><time>2026-03-28T14:31:41Z</time></trkpt><trkpt lat="44.81450498376387" lon="8.422137833742852"><ele>173.0</ele><time>2026-03-28T14:31:43Z</time></trkpt><trkpt lat="44.81451585930494" lon="8.421946469243732"><ele>173.0</ele><time>2026-03-28T14:31:45Z</time></trkpt><trkpt lat="44.81450006985478" lon="8.421831452762865"><ele>173.5</ele><time>2026-03-28T14:31:46Z</time></trkpt><trkpt lat="44.81448795093815" lon="8.421696816428337"><ele>174.0</ele><time>2026-03-28T14:31:47Z</time></trkpt><trkpt lat="44.814462764835476" lon="8.421409175661514"><ele>174.5</ele><time>2026-03-28T14:31:49Z</time></trkpt><trkpt lat="44.8144495349883" lon="8.421255038743958"><ele>175.0</ele><time>2026-03-28T14:31:50Z</time></trkpt><trkpt lat="44.8144354378656" lon="8.421090797463854"><ele>175.2</ele><time>2026-03-28T14:31:51Z</time></trkpt><trkpt lat="44.81442099311559" lon="8.420922506106821"><ele>175.4</ele><time>2026-03-28T14:31:52Z</time></trkpt><trkpt lat="44.81440816235273" lon="8.420773218987414"><ele>175.60000000000002</ele><time>2026-03-28T14:31:53Z</time></trkpt><trkpt lat="44.81439722219599" lon="8.420649662448987"><ele>175.8</ele><time>2026-03-28T14:31:54Z</time></trkpt><trkpt lat="44.81438787042855" lon="8.420544044888903"><ele>176.0</ele><time>2026-03-28T14:31:55Z</time></trkpt><trkpt lat="44.81437594904646" lon="8.420418261786944"><ele>176.4</ele><time>2026-03-28T14:31:56Z</time></trkpt><trkpt lat="44.81436453644416" lon="8.42029951638075"><ele>176.8</ele><time>2026-03-28T14:31:57Z</time></trkpt><trkpt lat="44.81435555669604" lon="8.42020608422785"><ele>177.20000000000002</ele><time>2026-03-28T14:31:58Z</time></trkpt><trkpt lat="44.81434250270317" lon="8.420115375528194"><ele>177.60000000000002</ele><time>2026-03-28T14:32:00Z</time></trkpt><trkpt lat="44.814540856499455" lon="8.420147727020279"><ele>178.0</ele><time>2026-03-28T14:32:03Z</time></trkpt><trkpt lat="44.81465567795313" lon="8.420133313209442"><ele>178.0</ele><time>2026-03-28T14:32:05Z</time></trkpt><trkpt lat="44.81477260270537" lon="8.420131511911652"><ele>178.0</ele><time>2026-03-28T14:32:07Z</time></trkpt><trkpt lat="44.81487192106878" lon="8.42014249878276"><ele>178.0</ele><time>2026-03-28T14:32:09Z</time></trkpt><trkpt lat="44.81507982058424" lon="8.420172411127538"><ele>178.0</ele><time>2026-03-28T14:32:13Z</time></trkpt><trkpt lat="44.815190488254196" lon="8.420124804041409"><ele>175.75</ele><time>2026-03-28T14:32:15Z</time></trkpt><trkpt lat="44.81530387198072" lon="8.420071636661916"><ele>173.5</ele><time>2026-03-28T14:32:17Z</time></trkpt><trkpt lat="44.81540720635302" lon="8.420034251566042"><ele>171.25</ele><time>2026-03-28T14:32:19Z</time></trkpt><trkpt lat="44.815501664004906" lon="8.420076223222276"><ele>169.0</ele><time>2026-03-28T14:32:21Z</time></trkpt><trkpt lat="44.81556792640331" lon="8.42023442278351"><ele>169.0</ele><time>2026-03-28T14:32:23Z</time></trkpt><trkpt lat="44.81559588679414" lon="8.420331684578832"><ele>169.0</ele><time>2026-03-28T14:32:24Z</time></trkpt><trkpt lat="44.81561609634559" lon="8.42041714297708"><ele>169.0</ele><time>2026-03-28T14:32:25Z</time></trkpt><trkpt lat="44.815618918437615" lon="8.420530837924472"><ele>169.0</ele><time>2026-03-28T14:32:26Z</time></trkpt><trkpt lat="44.81562171770475" lon="8.420684468430618"><ele>169.0</ele><time>2026-03-28T14:32:27Z</time></trkpt><trkpt lat="44.81563874403463" lon="8.42080556584295"><ele>169.0</ele><time>2026-03-28T14:32:28Z</time></trkpt><trkpt lat="44.81564540141413" lon="8.420921629000713"><ele>168.6</ele><time>2026-03-28T14:32:29Z</time></trkpt><trkpt lat="44.81565082576117" lon="8.42102965527197"><ele>168.2</ele><time>2026-03-28T14:32:30Z</time></trkpt><trkpt lat="44.815743652935744" lon="8.421187166841227"><ele>167.79999999999998</ele><time>2026-03-28T14:32:38Z</time></trkpt><trkpt lat="44.81579582363977" lon="8.421135132806993"><ele>167.39999999999998</ele><time>2026-03-28T14:32:40Z</time></trkpt><trkpt lat="44.81583542472925" lon="8.421026963387364"><ele>167.0</ele><time>2026-03-28T14:32:42Z</time></trkpt><trkpt lat="44.815900131274695" lon="8.42092664438283"><ele>167.0</ele><time>2026-03-28T14:32:44Z</time></trkpt><trkpt lat="44.815952582659115" lon="8.42087539761619"><ele>167.0</ele><time>2026-03-28T14:32:48Z</time></trkpt><trkpt lat="44.81597779650937" lon="8.420738731110164"><ele>167.0</ele><time>2026-03-28T14:32:51Z</time></trkpt><trkpt lat="44.81589828695724" lon="8.420559798502447"><ele>167.0</ele><time>2026-03-28T14:32:56Z</time></trkpt><trkpt lat="44.815915507848636" lon="8.420448723718435"><ele>167.0</ele><time>2026-03-28T14:33:00Z</time></trkpt><trkpt lat="44.81594971539131" lon="8.420371184203637"><ele>167.33333333333331</ele><time>2026-03-28T14:33:01Z</time></trkpt><trkpt lat="44.81597150639143" lon="8.420285891403784"><ele>167.66666666666666</ele><time>2026-03-28T14:33:02Z</time></trkpt><trkpt lat="44.81601206173891" lon="8.420174316702862"><ele>168.0</ele><time>2026-03-28T14:33:04Z</time></trkpt><trkpt lat="44.81600933750834" lon="8.420063079352792"><ele>168.33333333333334</ele><time>2026-03-28T14:33:06Z</time></trkpt><trkpt lat="44.815998506152496" lon="8.419957496165871"><ele>168.66666666666669</ele><time>2026-03-28T14:33:08Z</time></trkpt><trkpt lat="44.8159814079215" lon="8.419870541013042"><ele>169.0</ele><time>2026-03-28T14:33:10Z</time></trkpt><trkpt lat="44.815977794375435" lon="8.41975299094669"><ele>168.66666666666669</ele><time>2026-03-28T14:33:13Z</time></trkpt><trkpt lat="44.81595863792553" lon="8.419529059825445"><ele>168.33333333333334</ele><time>2026-03-28T14:33:17Z</time></trkpt><trkpt lat="44.81593669856662" lon="8.419430784104746"><ele>168.0</ele><time>2026-03-28T14:33:20Z</time></trkpt><trkpt lat="44.81593494674964" lon="8.419339211973929"><ele>167.66666666666666</ele><time>2026-03-28T14:33:24Z</time></trkpt><trkpt lat="44.815990562410036" lon="8.419294786209056"><ele>167.33333333333331</ele><time>2026-03-28T14:33:30Z</time></trkpt><trkpt lat="44.81604415251653" lon="8.419203560060708"><ele>167.0</ele><time>2026-03-28T14:33:33Z</time></trkpt><trkpt lat="44.816075333624795" lon="8.41908230500838"><ele>168.6</ele><time>2026-03-28T14:33:36Z</time></trkpt><trkpt lat="44.81601957680233" lon="8.418856122979737"><ele>170.2</ele><time>2026-03-28T14:33:43Z</time></trkpt><trkpt lat="44.81606124717399" lon="8.418739623108058"><ele>171.8</ele><time>2026-03-28T14:33:45Z</time></trkpt><trkpt lat="44.81607714522299" lon="8.41864799663114"><ele>173.4</ele><time>2026-03-28T14:33:46Z</time></trkpt><trkpt lat="44.81608136701513" lon="8.418520197754832"><ele>175.0</ele><time>2026-03-28T14:33:47Z</time></trkpt><trkpt lat="44.81608888101419" lon="8.418373147228124"><ele>176.0</ele><time>2026-03-28T14:33:49Z</time></trkpt><trkpt lat="44.816116803861284" lon="8.418240824494614"><ele>176.0</ele><time>2026-03-28T14:33:51Z</time></trkpt><trkpt lat="44.81611358857951" lon="8.418123819521037"><ele>176.0</ele><time>2026-03-28T14:33:54Z</time></trkpt><trkpt lat="44.81604342520216" lon="8.417999781922578"><ele>176.0</ele><time>2026-03-28T14:33:56Z</time></trkpt><trkpt lat="44.81602335064965" lon="8.417906031162097"><ele>177.0</ele><time>2026-03-28T14:33:57Z</time></trkpt></trkseg><trkseg><trkpt lat="44.82004091732515" lon="8.419289863382298"><ele>175.0</ele><time>2026-03-28T14:51:16Z</time></trkpt><trkpt lat="44.81997403111696" lon="8.419380257801674"><ele>175.0</ele><time>2026-03-28T14:51:20Z</time></trkpt><trkpt lat="44.819904591946894" lon="8.419404533693264"><ele>175.0</ele><time>2026-03-28T14:51:22Z</time></trkpt><trkpt lat="44.81984142267817" lon="8.419461193872037"><ele>175.0</ele><time>2026-03-28T14:51:25Z</time></trkpt><trkpt lat="44.81978415480175" lon="8.419507591681365"><ele>175.0</ele><time>2026-03-28T14:51:33Z</time></trkpt><trkpt lat="44.819850864028936" lon="8.419544360295012"><ele>175.0</ele><time>2026-03-28T14:51:56Z</time></trkpt><trkpt lat="44.81989808879227" lon="8.419481345728958"><ele>175.0</ele><time>2026-03-28T14:51:58Z</time></trkpt><trkpt lat="44.81997684667307" lon="8.419441478439577"><ele>175.0</ele><time>2026-03-28T14:52:01Z</time></trkpt><trkpt lat="44.82004950759848" lon="8.419364587541414"><ele>175.0</ele><time>2026-03-28T14:52:04Z</time></trkpt><trkpt lat="44.82012912283888" lon="8.419369929967687"><ele>175.0</ele><time>2026-03-28T14:52:08Z</time></trkpt><trkpt lat="44.82018065507968" lon="8.419443407048139"><ele>175.0</ele><time>2026-03-28T14:52:10Z</time></trkpt><trkpt lat="44.82025578645969" lon="8.419530102295482"><ele>175.0</ele><time>2026-03-28T14:52:12Z</time></trkpt><trkpt lat="44.82034096482317" lon="8.419612100377549"><ele>175.0</ele><time>2026-03-28T14:52:14Z</time></trkpt><trkpt lat="44.8204006610044" lon="8.41969531556085"><ele>178.66666666666669</ele><time>2026-03-28T14:52:16Z</time></trkpt><trkpt lat="44.82043423301535" lon="8.419800174623084"><ele>182.33333333333334</ele><time>2026-03-28T14:52:19Z</time></trkpt><trkpt lat="44.820476117584846" lon="8.419901655074524"><ele>186.0</ele><time>2026-03-28T14:52:20Z</time></trkpt><trkpt lat="44.820792561651686" lon="8.42025066770037"><ele>186.0</ele><time>2026-03-28T14:52:23Z</time></trkpt><trkpt lat="44.82086993327849" lon="8.42032942077368"><ele>186.0</ele><time>2026-03-28T14:52:25Z</time></trkpt><trkpt lat="44.820922743405745" lon="8.420378370111653"><ele>186.0</ele><time>2026-03-28T14:52:27Z</time></trkpt><trkpt lat="44.82106187090201" lon="8.42045513493716"><ele>186.0</ele><time>2026-03-28T14:52:29Z</time></trkpt><trkpt lat="44.821128581668496" lon="8.420499065596843"><ele>186.0</ele><time>2026-03-28T14:52:30Z</time></trkpt><trkpt lat="44.821207751566156" lon="8.420559375595971"><ele>186.66666666666666</ele><time>2026-03-28T14:52:31Z</time></trkpt><trkpt lat="44.821301804451004" lon="8.420602053355465"><ele>187.33333333333334</ele><time>2026-03-28T14:52:32Z</time></trkpt><trkpt lat="44.82138468544558" lon="8.420649270768315"><ele>188.0</ele><time>2026-03-28T14:52:33Z</time></trkpt><trkpt lat="44.82144200384125" lon="8.4207483467175"><ele>188.66666666666669</ele><time>2026-03-28T14:52:34Z</time></trkpt><trkpt lat="44.82149470089582" lon="8.420805169035846"><ele>189.33333333333334</ele><time>2026-03-28T14:52:35Z</time></trkpt><trkpt lat="44.82154884269627" lon="8.420889809396906"><ele>190.0</ele><time>2026-03-28T14:52:37Z</time></trkpt><trkpt lat="44.82164781571845" lon="8.420862342134228"><ele>190.0</ele><time>2026-03-28T14:52:39Z</time></trkpt><trkpt lat="44.821761765924684" lon="8.420737812571339"><ele>190.0</ele><time>2026-03-28T14:52:40Z</time></trkpt><trkpt lat="44.82185240417795" lon="8.420675020298678"><ele>190.0</ele><time>2026-03-28T14:52:41Z</time></trkpt><trkpt lat="44.822018170189956" lon="8.4205732540158"><ele>190.0</ele><time>2026-03-28T14:52:42Z</time></trkpt><trkpt lat="44.82215546284534" lon="8.420460321832632"><ele>191.25</ele><time>2026-03-28T14:52:43Z</time></trkpt><trkpt lat="44.822299919247286" lon="8.420370813051731"><ele>192.5</ele><time>2026-03-28T14:52:44Z</time></trkpt><trkpt lat="44.82241183132411" lon="8.420274253759699"><ele>193.75</ele><time>2026-03-28T14:52:45Z</time></trkpt><trkpt lat="44.822527100078695" lon="8.420189690890583"><ele>195.0</ele><time>2026-03-28T14:52:46Z</time></trkpt><trkpt lat="44.82263387009337" lon="8.420097377896534"><ele>196.0</ele><time>2026-03-28T14:52:47Z</time></trkpt><trkpt lat="44.822748800777575" lon="8.4200454242088"><ele>197.0</ele><time>2026-03-28T14:52:48Z</time></trkpt><trkpt lat="44.82286099244167" lon="8.419965914538569"><ele>198.0</ele><time>2026-03-28T14:52:49Z</time></trkpt><trkpt lat="44.822979761079026" lon="8.41991466884488"><ele>199.0</ele><time>2026-03-28T14:52:49.999Z</time></trkpt><trkpt lat="44.82309768427609" lon="8.419859835716425"><ele>199.0</ele><time>2026-03-28T14:52:50.999Z</time></trkpt><trkpt lat="44.82322725487037" lon="8.419808189516795"><ele>199.0</ele><time>2026-03-28T14:52:51.999Z</time></trkpt><trkpt lat="44.823342645188035" lon="8.419760122489969"><ele>199.0</ele><time>2026-03-28T14:52:52.999Z</time></trkpt><trkpt lat="44.82345244441075" lon="8.419721712739257"><ele>199.0</ele><time>2026-03-28T14:52:53.999Z</time></trkpt><trkpt lat="44.823557291830426" lon="8.419682740887682"><ele>198.79999999999998</ele><time>2026-03-28T14:52:54.999Z</time></trkpt><trkpt lat="44.82365077811652" lon="8.419639829247952"><ele>198.6</ele><time>2026-03-28T14:52:55.999Z</time></trkpt><trkpt lat="44.823759824520856" lon="8.41959550965353"><ele>198.4</ele><time>2026-03-28T14:52:56.999Z</time></trkpt><trkpt lat="44.823866461740344" lon="8.41956347221859"><ele>198.2</ele><time>2026-03-28T14:52:58Z</time></trkpt><trkpt lat="44.82397483013454" lon="8.41949355928839"><ele>198.0</ele><time>2026-03-28T14:52:59Z</time></trkpt><trkpt lat="44.824082430541004" lon="8.4194477629029"><ele>198.0</ele><time>2026-03-28T14:53:00Z</time></trkpt><trkpt lat="44.82416365945568" lon="8.419453606989181"><ele>198.0</ele><time>2026-03-28T14:53:01Z</time></trkpt><trkpt lat="44.82424387764836" lon="8.41945378961999"><ele>198.0</ele><time>2026-03-28T14:53:02Z</time></trkpt><trkpt lat="44.82434343409011" lon="8.419431022155239"><ele>198.0</ele><time>2026-03-28T14:53:03Z</time></trkpt><trkpt lat="44.824450942334785" lon="8.41943504924606"><ele>198.0</ele><time>2026-03-28T14:53:04Z</time></trkpt><trkpt lat="44.824567611381354" lon="8.419408478202264"><ele>198.2</ele><time>2026-03-28T14:53:05Z</time></trkpt><trkpt lat="44.82469498048112" lon="8.41936739875018"><ele>198.4</ele><time>2026-03-28T14:53:06Z</time></trkpt><trkpt lat="44.8247885172506" lon="8.419307724756749"><ele>198.6</ele><time>2026-03-28T14:53:07Z</time></trkpt><trkpt lat="44.82486847833611" lon="8.41925165771729"><ele>198.79999999999998</ele><time>2026-03-28T14:53:08Z</time></trkpt><trkpt lat="44.824928298498236" lon="8.419187125969545"><ele>199.0</ele><time>2026-03-28T14:53:09Z</time></trkpt><trkpt lat="44.82501119095529" lon="8.419131250559051"><ele>199.0</ele><time>2026-03-28T14:53:11Z</time></trkpt><trkpt lat="44.82507856516196" lon="8.419039305905002"><ele>199.0</ele><time>2026-03-28T14:53:17Z</time></trkpt><trkpt lat="44.8250128530172" lon="8.41890403322145"><ele>199.0</ele><time>2026-03-28T14:53:18Z</time></trkpt><trkpt lat="44.824947998286376" lon="8.418807880339847"><ele>199.0</ele><time>2026-03-28T14:53:19Z</time></trkpt><trkpt lat="44.82487252427258" lon="8.418702554067918"><ele>199.0</ele><time>2026-03-28T14:53:20Z</time></trkpt><trkpt lat="44.82479218885253" lon="8.41857709954659"><ele>199.0</ele><time>2026-03-28T14:53:21Z</time></trkpt><trkpt lat="44.82471173418388" lon="8.418444395272358"><ele>199.0</ele><time>2026-03-28T14:53:22Z</time></trkpt><trkpt lat="44.824631477532286" lon="8.4183005018311"><ele>199.0</ele><time>2026-03-28T14:53:23Z</time></trkpt><trkpt lat="44.824539211654375" lon="8.418152508776824"><ele>199.0</ele><time>2026-03-28T14:53:24Z</time></trkpt><trkpt lat="44.824456584165254" lon="8.418011821474192"><ele>198.79999999999998</ele><time>2026-03-28T14:53:25Z</time></trkpt><trkpt lat="44.824388828532555" lon="8.417910284726519"><ele>198.6</ele><time>2026-03-28T14:53:26Z</time></trkpt><trkpt lat="44.824333516241744" lon="8.417817604086867"><ele>198.4</ele><time>2026-03-28T14:53:27Z</time></trkpt><trkpt lat="44.82427758763458" lon="8.417718199792018"><ele>198.2</ele><time>2026-03-28T14:53:28Z</time></trkpt><trkpt lat="44.82421255985667" lon="8.41759755711129"><ele>198.0</ele><time>2026-03-28T14:53:29Z</time></trkpt><trkpt lat="44.82414260038675" lon="8.417467652722625"><ele>198.25</ele><time>2026-03-28T14:53:30Z</time></trkpt><trkpt lat="44.82408624572612" lon="8.417323400120702"><ele>198.5</ele><time>2026-03-28T14:53:31Z</time></trkpt><trkpt lat="44.82400633400519" lon="8.417190288645163"><ele>198.75</ele><time>2026-03-28T14:53:32Z</time></trkpt><trkpt lat="44.82394395972838" lon="8.417032887732065"><ele>199.0</ele><time>2026-03-28T14:53:33Z</time></trkpt><trkpt lat="44.8238809059457" lon="8.416870089909873"><ele>199.0</ele><time>2026-03-28T14:53:34Z</time></trkpt><trkpt lat="44.82381542231152" lon="8.416704329565333"><ele>199.0</ele><time>2026-03-28T14:53:35Z</time></trkpt><trkpt lat="44.82377554213547" lon="8.416520494878085"><ele>199.0</ele><time>2026-03-28T14:53:36Z</time></trkpt><trkpt lat="44.823730528150506" lon="8.416338347375298"><ele>199.0</ele><time>2026-03-28T14:53:37Z</time></trkpt><trkpt lat="44.82367414106791" lon="8.416156346306968"><ele>198.75</ele><time>2026-03-28T14:53:38Z</time></trkpt><trkpt lat="44.82365191479461" lon="8.415963408123154"><ele>198.5</ele><time>2026-03-28T14:53:39Z</time></trkpt><trkpt lat="44.82360253895033" lon="8.415779817522886"><ele>198.25</ele><time>2026-03-28T14:53:40Z</time></trkpt><trkpt lat="44.82357101234771" lon="8.415595209997056"><ele>198.0</ele><time>2026-03-28T14:53:41Z</time></trkpt><trkpt lat="44.823544539251984" lon="8.41539582281706"><ele>198.5</ele><time>2026-03-28T14:53:42Z</time></trkpt><trkpt lat="44.82350441660835" lon="8.415206363361822"><ele>199.0</ele><time>2026-03-28T14:53:43Z</time></trkpt><trkpt lat="44.82348569917886" lon="8.415018970617922"><ele>199.5</ele><time>2026-03-28T14:53:44Z</time></trkpt><trkpt lat="44.82345490633616" lon="8.414841005693747"><ele>200.0</ele><time>2026-03-28T14:53:45Z</time></trkpt><trkpt lat="44.82341805542768" lon="8.414657459857809"><ele>201.25</ele><time>2026-03-28T14:53:46Z</time></trkpt><trkpt lat="44.823377027991576" lon="8.414474757397226"><ele>202.5</ele><time>2026-03-28T14:53:47Z</time></trkpt><trkpt lat="44.82333280803072" lon="8.41428381834719"><ele>203.75</ele><time>2026-03-28T14:53:48Z</time></trkpt><trkpt lat="44.82328293275647" lon="8.414098156114004"><ele>205.0</ele><time>2026-03-28T14:53:49Z</time></trkpt><trkpt lat="44.823237150882285" lon="8.413909803658646"><ele>205.0</ele><time>2026-03-28T14:53:50Z</time></trkpt><trkpt lat="44.82322327543112" lon="8.41371402197018"><ele>205.0</ele><time>2026-03-28T14:53:51Z</time></trkpt><trkpt lat="44.82320643500047" lon="8.413525369797988"><ele>205.0</ele><time>2026-03-28T14:53:52Z</time></trkpt><trkpt lat="44.82319735602168" lon="8.413336481148628"><ele>205.0</ele><time>2026-03-28T14:53:53Z</time></trkpt><trkpt lat="44.82317503413229" lon="8.413130935263894"><ele>204.75</ele><time>2026-03-28T14:53:54Z</time></trkpt><trkpt lat="44.82317275740636" lon="8.412932176676392"><ele>204.5</ele><time>2026-03-28T14:53:55Z</time></trkpt><trkpt lat="44.82316381654476" lon="8.412741065846875"><ele>204.25</ele><time>2026-03-28T14:53:56Z</time></trkpt><trkpt lat="44.823157277564846" lon="8.412543702172432"><ele>204.0</ele><time>2026-03-28T14:53:57Z</time></trkpt><trkpt lat="44.823150324647465" lon="8.412350164793244"><ele>204.75</ele><time>2026-03-28T14:53:58Z</time></trkpt><trkpt lat="44.823134848910286" lon="8.412153006665228"><ele>205.5</ele><time>2026-03-28T14:53:59Z</time></trkpt><trkpt lat="44.82311186609004" lon="8.411958772487932"><ele>206.25</ele><time>2026-03-28T14:54:00Z</time></trkpt><trkpt lat="44.82308276079109" lon="8.411761154577647"><ele>207.0</ele><time>2026-03-28T14:54:01Z</time></trkpt><trkpt lat="44.823053981292134" lon="8.411563807288577"><ele>207.0</ele><time>2026-03-28T14:54:02Z</time></trkpt><trkpt lat="44.82303082184268" lon="8.411371229281741"><ele>207.0</ele><time>2026-03-28T14:54:03Z</time></trkpt><trkpt lat="44.82300457627954" lon="8.411174368112762"><ele>207.0</ele><time>2026-03-28T14:54:04Z</time></trkpt><trkpt lat="44.822992479622684" lon="8.410976441273872"><ele>207.0</ele><time>2026-03-28T14:54:05Z</time></trkpt><trkpt lat="44.82296709013702" lon="8.410778059905551"><ele>206.75</ele><time>2026-03-28T14:54:06Z</time></trkpt><trkpt lat="44.82294377821571" lon="8.410586774976197"><ele>206.5</ele><time>2026-03-28T14:54:07Z</time></trkpt><trkpt lat="44.8229175775817" lon="8.410393606154564"><ele>206.25</ele><time>2026-03-28T14:54:08Z</time></trkpt><trkpt lat="44.82288722622" lon="8.410195927234161"><ele>206.0</ele><time>2026-03-28T14:54:09Z</time></trkpt><trkpt lat="44.82285278930521" lon="8.409998724196893"><ele>206.0</ele><time>2026-03-28T14:54:10Z</time></trkpt><trkpt lat="44.822801396228776" lon="8.40980519622738"><ele>206.0</ele><time>2026-03-28T14:54:11Z</time></trkpt><trkpt lat="44.822759005993376" lon="8.409608193489946"><ele>206.0</ele><time>2026-03-28T14:54:12Z</time></trkpt><trkpt lat="44.82271199842495" lon="8.409419162167678"><ele>206.0</ele><time>2026-03-28T14:54:13Z</time></trkpt><trkpt lat="44.82266582811132" lon="8.409223388196663"><ele>206.75</ele><time>2026-03-28T14:54:14Z</time></trkpt><trkpt lat="44.82261620042619" lon="8.409040730896331"><ele>207.5</ele><time>2026-03-28T14:54:15Z</time></trkpt><trkpt lat="44.822577027361326" lon="8.408849275151876"><ele>208.25</ele><time>2026-03-28T14:54:16Z</time></trkpt><trkpt lat="44.82252822888856" lon="8.408665757307082"><ele>209.0</ele><time>2026-03-28T14:54:17Z</time></trkpt><trkpt lat="44.82247970334348" lon="8.40848326608094"><ele>209.5</ele><time>2026-03-28T14:54:18Z</time></trkpt><trkpt lat="44.82241816341547" lon="8.408314133598704"><ele>210.0</ele><time>2026-03-28T14:54:19Z</time></trkpt><trkpt lat="44.82237016946502" lon="8.408143748205617"><ele>210.5</ele><time>2026-03-28T14:54:20Z</time></trkpt><trkpt lat="44.822330907591294" lon="8.407940851145401"><ele>211.0</ele><time>2026-03-28T14:54:21Z</time></trkpt><trkpt lat="44.82224525031523" lon="8.407604969951688"><ele>211.0</ele><time>2026-03-28T14:54:23Z</time></trkpt><trkpt lat="44.82220219284472" lon="8.407444837823364"><ele>211.0</ele><time>2026-03-28T14:54:24Z</time></trkpt><trkpt lat="44.822168533387874" lon="8.40728665551915"><ele>211.0</ele><time>2026-03-28T14:54:25Z</time></trkpt><trkpt lat="44.822103608519996" lon="8.407133528963385"><ele>211.0</ele><time>2026-03-28T14:54:26Z</time></trkpt><trkpt lat="44.82201502667295" lon="8.406990764656822"><ele>210.5</ele><time>2026-03-28T14:54:27Z</time></trkpt><trkpt lat="44.82191842206198" lon="8.406865049213094"><ele>210.0</ele><time>2026-03-28T14:54:28Z</time></trkpt><trkpt lat="44.82182937092464" lon="8.40674218972831"><ele>209.5</ele><time>2026-03-28T14:54:29Z</time></trkpt><trkpt lat="44.82174576217949" lon="8.406605471058802"><ele>209.0</ele><time>2026-03-28T14:54:30Z</time></trkpt><trkpt lat="44.82168713822808" lon="8.406445935617342"><ele>210.75</ele><time>2026-03-28T14:54:31Z</time></trkpt><trkpt lat="44.82163469870111" lon="8.406289613135415"><ele>212.5</ele><time>2026-03-28T14:54:32Z</time></trkpt><trkpt lat="44.82161037300029" lon="8.406128270738366"><ele>214.25</ele><time>2026-03-28T14:54:33Z</time></trkpt><trkpt lat="44.821607346850676" lon="8.40597158878005"><ele>216.0</ele><time>2026-03-28T14:54:34Z</time></trkpt><trkpt lat="44.821618332255646" lon="8.405803528030976"><ele>216.0</ele><time>2026-03-28T14:54:35Z</time></trkpt><trkpt lat="44.82168773621673" lon="8.40565446920386"><ele>216.0</ele><time>2026-03-28T14:54:36Z</time></trkpt><trkpt lat="44.82175311280737" lon="8.40549998251547"><ele>216.0</ele><time>2026-03-28T14:54:37Z</time></trkpt><trkpt lat="44.82182120721346" lon="8.405341112412623"><ele>216.0</ele><time>2026-03-28T14:54:38Z</time></trkpt><trkpt lat="44.8218898463474" lon="8.405133966136567"><ele>215.25</ele><time>2026-03-28T14:54:39Z</time></trkpt><trkpt lat="44.82196448230488" lon="8.404975972189993"><ele>214.5</ele><time>2026-03-28T14:54:40Z</time></trkpt><trkpt lat="44.822025676214125" lon="8.404808762104425"><ele>213.75</ele><time>2026-03-28T14:54:41Z</time></trkpt><trkpt lat="44.82206656236627" lon="8.404651122812199"><ele>213.0</ele><time>2026-03-28T14:54:42Z</time></trkpt><trkpt lat="44.82209567516885" lon="8.404488845393843"><ele>213.0</ele><time>2026-03-28T14:54:43Z</time></trkpt><trkpt lat="44.8220964465524" lon="8.404307903682065"><ele>213.0</ele><time>2026-03-28T14:54:44Z</time></trkpt><trkpt lat="44.822075026053355" lon="8.404133876876815"><ele>213.0</ele><time>2026-03-28T14:54:45Z</time></trkpt><trkpt lat="44.82202511769307" lon="8.403953300954345"><ele>213.0</ele><time>2026-03-28T14:54:46Z</time></trkpt><trkpt lat="44.82197227464391" lon="8.403787414617858"><ele>213.4</ele><time>2026-03-28T14:54:47Z</time></trkpt><trkpt lat="44.8219621994639" lon="8.403615924880564"><ele>213.8</ele><time>2026-03-28T14:54:48Z</time></trkpt><trkpt lat="44.82197914530773" lon="8.40349222470138"><ele>214.2</ele><time>2026-03-28T14:54:49Z</time></trkpt><trkpt lat="44.82204625271386" lon="8.40338197091524"><ele>214.6</ele><time>2026-03-28T14:54:50Z</time></trkpt><trkpt lat="44.82212490244318" lon="8.403261562506097"><ele>215.0</ele><time>2026-03-28T14:54:51Z</time></trkpt><trkpt lat="44.82222103896826" lon="8.403122741559093"><ele>214.75</ele><time>2026-03-28T14:54:52Z</time></trkpt><trkpt lat="44.82231356733984" lon="8.402980118862265"><ele>214.5</ele><time>2026-03-28T14:54:53Z</time></trkpt><trkpt lat="44.822401435672376" lon="8.40284533677029"><ele>214.25</ele><time>2026-03-28T14:54:54Z</time></trkpt><trkpt lat="44.82249253194142" lon="8.402705603341902"><ele>214.0</ele><time>2026-03-28T14:54:55Z</time></trkpt><trkpt lat="44.82257461344156" lon="8.402552779165436"><ele>213.75</ele><time>2026-03-28T14:54:56Z</time></trkpt><trkpt lat="44.822668311104465" lon="8.40241835747289"><ele>213.5</ele><time>2026-03-28T14:54:57Z</time></trkpt><trkpt lat="44.82275999077637" lon="8.402278690753977"><ele>213.25</ele><time>2026-03-28T14:54:58Z</time></trkpt><trkpt lat="44.822841336331464" lon="8.402148778885309"><ele>213.0</ele><time>2026-03-28T14:54:59Z</time></trkpt><trkpt lat="44.822916291641285" lon="8.402031966821882"><ele>213.5</ele><time>2026-03-28T14:55:00Z</time></trkpt><trkpt lat="44.82300396889914" lon="8.401900612463287"><ele>214.0</ele><time>2026-03-28T14:55:01Z</time></trkpt><trkpt lat="44.82307906325189" lon="8.401765976413587"><ele>214.5</ele><time>2026-03-28T14:55:02Z</time></trkpt><trkpt lat="44.82316854231074" lon="8.401657341261702"><ele>215.0</ele><time>2026-03-28T14:55:03Z</time></trkpt><trkpt lat="44.82324252909266" lon="8.401517513313744"><ele>215.0</ele><time>2026-03-28T14:55:04Z</time></trkpt><trkpt lat="44.82331696273081" lon="8.401402233723559"><ele>215.0</ele><time>2026-03-28T14:55:05Z</time></trkpt><trkpt lat="44.82339808420911" lon="8.401280714668161"><ele>215.0</ele><time>2026-03-28T14:55:06Z</time></trkpt><trkpt lat="44.823476516099504" lon="8.401162936674371"><ele>215.0</ele><time>2026-03-28T14:55:07Z</time></trkpt><trkpt lat="44.82355264277827" lon="8.401045958585582"><ele>214.6</ele><time>2026-03-28T14:55:08Z</time></trkpt><trkpt lat="44.82362369512242" lon="8.400928685418606"><ele>214.2</ele><time>2026-03-28T14:55:09Z</time></trkpt><trkpt lat="44.82369359446374" lon="8.40081541638789"><ele>213.8</ele><time>2026-03-28T14:55:10Z</time></trkpt><trkpt lat="44.823763983003374" lon="8.400697189279196"><ele>213.4</ele><time>2026-03-28T14:55:11Z</time></trkpt><trkpt lat="44.82382332375026" lon="8.400564537709803"><ele>213.0</ele><time>2026-03-28T14:55:12Z</time></trkpt><trkpt lat="44.82387426753381" lon="8.40042320254565"><ele>213.0</ele><time>2026-03-28T14:55:13Z</time></trkpt><trkpt lat="44.823912916325476" lon="8.400280052210958"><ele>213.0</ele><time>2026-03-28T14:55:14Z</time></trkpt><trkpt lat="44.823945073191034" lon="8.400123990292789"><ele>213.0</ele><time>2026-03-28T14:55:15Z</time></trkpt><trkpt lat="44.823960040406405" lon="8.399967759182703"><ele>213.0</ele><time>2026-03-28T14:55:16Z</time></trkpt><trkpt lat="44.823973226568356" lon="8.399821256798031"><ele>213.0</ele><time>2026-03-28T14:55:17Z</time></trkpt><trkpt lat="44.823986566632286" lon="8.399680255078284"><ele>212.8</ele><time>2026-03-28T14:55:18Z</time></trkpt><trkpt lat="44.82399836202822" lon="8.399537184366345"><ele>212.60000000000002</ele><time>2026-03-28T14:55:19Z</time></trkpt><trkpt lat="44.82401312868993" lon="8.399387982573943"><ele>212.39999999999998</ele><time>2026-03-28T14:55:20Z</time></trkpt><trkpt lat="44.82402845364574" lon="8.399237903153534"><ele>212.2</ele><time>2026-03-28T14:55:21Z</time></trkpt><trkpt lat="44.824072986590366" lon="8.399090728797878"><ele>212.0</ele><time>2026-03-28T14:55:22Z</time></trkpt><trkpt lat="44.82410963499471" lon="8.398940476540261"><ele>212.5</ele><time>2026-03-28T14:55:23Z</time></trkpt><trkpt lat="44.824153986709895" lon="8.398795943505803"><ele>213.0</ele><time>2026-03-28T14:55:24Z</time></trkpt><trkpt lat="44.82420236210141" lon="8.398652529097218"><ele>213.5</ele><time>2026-03-28T14:55:25Z</time></trkpt><trkpt lat="44.82423575265209" lon="8.398500000136249"><ele>214.0</ele><time>2026-03-28T14:55:26Z</time></trkpt><trkpt lat="44.82428769157606" lon="8.398353228259737"><ele>213.75</ele><time>2026-03-28T14:55:27Z</time></trkpt><trkpt lat="44.82433749048737" lon="8.398206033082472"><ele>213.5</ele><time>2026-03-28T14:55:28Z</time></trkpt><trkpt lat="44.824386497150456" lon="8.39805831733299"><ele>213.25</ele><time>2026-03-28T14:55:29Z</time></trkpt><trkpt lat="44.82443514283152" lon="8.397912379743408"><ele>213.0</ele><time>2026-03-28T14:55:30Z</time></trkpt><trkpt lat="44.824482378335745" lon="8.39776946591983"><ele>213.0</ele><time>2026-03-28T14:55:31Z</time></trkpt><trkpt lat="44.82452456083893" lon="8.39763914619139"><ele>213.0</ele><time>2026-03-28T14:55:32Z</time></trkpt><trkpt lat="44.824560491522206" lon="8.397523900428531"><ele>213.0</ele><time>2026-03-28T14:55:33Z</time></trkpt><trkpt lat="44.82459965758775" lon="8.397423096631647"><ele>213.0</ele><time>2026-03-28T14:55:34Z</time></trkpt><trkpt lat="44.82463894589839" lon="8.397300755120401"><ele>213.0</ele><time>2026-03-28T14:55:36Z</time></trkpt><trkpt lat="44.824560152346166" lon="8.397400262640149"><ele>213.0</ele><time>2026-03-28T14:56:51.001Z</time></trkpt><trkpt lat="44.824527106587475" lon="8.39749804376206"><ele>213.0</ele><time>2026-03-28T14:56:52.001Z</time></trkpt><trkpt lat="44.8245006956297" lon="8.397595352283894"><ele>213.0</ele><time>2026-03-28T14:56:53.001Z</time></trkpt><trkpt lat="44.82443375031973" lon="8.39778582463811"><ele>213.0</ele><time>2026-03-28T14:56:55.001Z</time></trkpt><trkpt lat="44.82440053402026" lon="8.397935860493531"><ele>213.0</ele><time>2026-03-28T14:56:56.001Z</time></trkpt><trkpt lat="44.82435300277847" lon="8.398061887883205"><ele>213.0</ele><time>2026-03-28T14:56:57.001Z</time></trkpt><trkpt lat="44.82431484028718" lon="8.398187931074197"><ele>213.0</ele><time>2026-03-28T14:56:58.001Z</time></trkpt><trkpt lat="44.82427156566223" lon="8.398312349486885"><ele>213.0</ele><time>2026-03-28T14:56:59.001Z</time></trkpt><trkpt lat="44.82423040066775" lon="8.398442512685525"><ele>213.0</ele><time>2026-03-28T14:57:00.001Z</time></trkpt><trkpt lat="44.82418519697546" lon="8.398580092276706"><ele>213.0</ele><time>2026-03-28T14:57:01Z</time></trkpt><trkpt lat="44.82413426047867" lon="8.398714314706837"><ele>212.8</ele><time>2026-03-28T14:57:02Z</time></trkpt><trkpt lat="44.82408938898423" lon="8.398843150098957"><ele>212.60000000000002</ele><time>2026-03-28T14:57:03Z</time></trkpt><trkpt lat="44.824046007292566" lon="8.398978530443939"><ele>212.39999999999998</ele><time>2026-03-28T14:57:04Z</time></trkpt><trkpt lat="44.824016255474355" lon="8.399108062697898"><ele>212.2</ele><time>2026-03-28T14:57:05Z</time></trkpt><trkpt lat="44.823991445870526" lon="8.399255173968767"><ele>212.0</ele><time>2026-03-28T14:57:06Z</time></trkpt><trkpt lat="44.82397771239892" lon="8.399395170180002"><ele>212.0</ele><time>2026-03-28T14:57:07Z</time></trkpt><trkpt lat="44.823961814253174" lon="8.39953095647431"><ele>212.0</ele><time>2026-03-28T14:57:08Z</time></trkpt><trkpt lat="44.82394265506745" lon="8.399661145693223"><ele>212.0</ele><time>2026-03-28T14:57:09Z</time></trkpt><trkpt lat="44.823932884808706" lon="8.399781096727862"><ele>212.0</ele><time>2026-03-28T14:57:10Z</time></trkpt><trkpt lat="44.82392540828578" lon="8.399919455048856"><ele>212.0</ele><time>2026-03-28T14:57:11Z</time></trkpt><trkpt lat="44.82391370132439" lon="8.400038060514387"><ele>212.2</ele><time>2026-03-28T14:57:12Z</time></trkpt><trkpt lat="44.82389498377108" lon="8.400151637047138"><ele>212.39999999999998</ele><time>2026-03-28T14:57:13Z</time></trkpt><trkpt lat="44.82387217300341" lon="8.400253877169936"><ele>212.60000000000002</ele><time>2026-03-28T14:57:14Z</time></trkpt><trkpt lat="44.823847886152116" lon="8.400340461886895"><ele>212.8</ele><time>2026-03-28T14:57:15Z</time></trkpt><trkpt lat="44.82383083438863" lon="8.400453697395362"><ele>213.0</ele><time>2026-03-28T14:57:17Z</time></trkpt><trkpt lat="44.824129949215234" lon="8.400645284081037"><ele>213.0</ele><time>2026-03-28T14:57:22Z</time></trkpt><trkpt lat="44.82420154291975" lon="8.400694374626813"><ele>213.0</ele><time>2026-03-28T14:57:23Z</time></trkpt><trkpt lat="44.82426752836292" lon="8.400729068050161"><ele>213.0</ele><time>2026-03-28T14:57:24Z</time></trkpt><trkpt lat="44.824333205450515" lon="8.400759885876308"><ele>213.0</ele><time>2026-03-28T14:57:25Z</time></trkpt><trkpt lat="44.8244087529427" lon="8.40079773349961"><ele>213.0</ele><time>2026-03-28T14:57:26Z</time></trkpt><trkpt lat="44.82448020495574" lon="8.400831312071874"><ele>213.0</ele><time>2026-03-28T14:57:27Z</time></trkpt><trkpt lat="44.824551558686814" lon="8.400873316936936"><ele>211.8</ele><time>2026-03-28T14:57:28Z</time></trkpt><trkpt lat="44.824628138815335" lon="8.40093305562759"><ele>210.60000000000002</ele><time>2026-03-28T14:57:29Z</time></trkpt><trkpt lat="44.82470277351337" lon="8.401007372470538"><ele>209.39999999999998</ele><time>2026-03-28T14:57:30Z</time></trkpt><trkpt lat="44.82477913235839" lon="8.401085368161963"><ele>208.2</ele><time>2026-03-28T14:57:31Z</time></trkpt><trkpt lat="44.82486576273903" lon="8.401153542887135"><ele>207.0</ele><time>2026-03-28T14:57:32Z</time></trkpt><trkpt lat="44.824953979266255" lon="8.401231947783144"><ele>207.0</ele><time>2026-03-28T14:57:33Z</time></trkpt><trkpt lat="44.82503780655748" lon="8.401317445234731"><ele>207.0</ele><time>2026-03-28T14:57:34Z</time></trkpt><trkpt lat="44.82512443989502" lon="8.401395658775911"><ele>207.0</ele><time>2026-03-28T14:57:35Z</time></trkpt><trkpt lat="44.82521360803457" lon="8.401478900389334"><ele>207.0</ele><time>2026-03-28T14:57:36Z</time></trkpt><trkpt lat="44.82529561659949" lon="8.401560508766673"><ele>207.0</ele><time>2026-03-28T14:57:37Z</time></trkpt><trkpt lat="44.82537245945096" lon="8.401637941499432"><ele>206.39999999999998</ele><time>2026-03-28T14:57:38Z</time></trkpt><trkpt lat="44.8254504764834" lon="8.401726361923371"><ele>205.79999999999998</ele><time>2026-03-28T14:57:39Z</time></trkpt><trkpt lat="44.82552827529007" lon="8.401803004298733"><ele>205.2</ele><time>2026-03-28T14:57:40Z</time></trkpt><trkpt lat="44.825607545411046" lon="8.401885871698653"><ele>204.6</ele><time>2026-03-28T14:57:41Z</time></trkpt><trkpt lat="44.82568709235857" lon="8.401976948703751"><ele>204.0</ele><time>2026-03-28T14:57:42Z</time></trkpt><trkpt lat="44.825768900564306" lon="8.402073202529174"><ele>203.6</ele><time>2026-03-28T14:57:43Z</time></trkpt><trkpt lat="44.82585006537251" lon="8.402176368098655"><ele>203.2</ele><time>2026-03-28T14:57:44Z</time></trkpt><trkpt lat="44.82592631246079" lon="8.40228286193153"><ele>202.79999999999998</ele><time>2026-03-28T14:57:45Z</time></trkpt><trkpt lat="44.826003004558714" lon="8.402378776779019"><ele>202.39999999999998</ele><time>2026-03-28T14:57:46Z</time></trkpt><trkpt lat="44.82608323023755" lon="8.402467089632824"><ele>202.0</ele><time>2026-03-28T14:57:47Z</time></trkpt><trkpt lat="44.826158680492206" lon="8.402547914567048"><ele>202.0</ele><time>2026-03-28T14:57:48Z</time></trkpt><trkpt lat="44.82623015056431" lon="8.402631825338073"><ele>202.0</ele><time>2026-03-28T14:57:49Z</time></trkpt><trkpt lat="44.826305281590656" lon="8.402723187630517"><ele>202.0</ele><time>2026-03-28T14:57:50Z</time></trkpt><trkpt lat="44.826376614216635" lon="8.40281694406721"><ele>202.0</ele><time>2026-03-28T14:57:51Z</time></trkpt><trkpt lat="44.826442167309686" lon="8.40290442143591"><ele>202.0</ele><time>2026-03-28T14:57:52Z</time></trkpt><trkpt lat="44.82650335487157" lon="8.402993451413751"><ele>202.16666666666666</ele><time>2026-03-28T14:57:53Z</time></trkpt><trkpt lat="44.82656742849438" lon="8.403070471140232"><ele>202.33333333333331</ele><time>2026-03-28T14:57:54Z</time></trkpt><trkpt lat="44.826632728494765" lon="8.403172592194434"><ele>202.5</ele><time>2026-03-28T14:57:55Z</time></trkpt><trkpt lat="44.82668837284974" lon="8.40325518765761"><ele>202.66666666666669</ele><time>2026-03-28T14:57:56Z</time></trkpt><trkpt lat="44.826747675825786" lon="8.40336926490421"><ele>202.83333333333334</ele><time>2026-03-28T14:57:57Z</time></trkpt><trkpt lat="44.82679884608043" lon="8.403462923810151"><ele>203.0</ele><time>2026-03-28T14:57:58Z</time></trkpt><trkpt lat="44.82683977924146" lon="8.403540512299276"><ele>203.00000000000003</ele><time>2026-03-28T14:57:59Z</time></trkpt><trkpt lat="44.82689045359711" lon="8.403656561857892"><ele>203.0</ele><time>2026-03-28T14:58:00Z</time></trkpt><trkpt lat="44.82693727504891" lon="8.403764406787994"><ele>203.0</ele><time>2026-03-28T14:58:01Z</time></trkpt><trkpt lat="44.82697242717911" lon="8.403851550698926"><ele>203.0</ele><time>2026-03-28T14:58:02Z</time></trkpt><trkpt lat="44.827007441603726" lon="8.403940300564885"><ele>203.00000000000003</ele><time>2026-03-28T14:58:03Z</time></trkpt><trkpt lat="44.827080149475975" lon="8.40401196557175"><ele>203.0</ele><time>2026-03-28T14:58:05Z</time></trkpt><trkpt lat="44.827183513531004" lon="8.403970552697043"><ele>203.0</ele><time>2026-03-28T14:58:07Z</time></trkpt><trkpt lat="44.82729348335095" lon="8.403927000232514"><ele>203.0</ele><time>2026-03-28T14:58:09Z</time></trkpt><trkpt lat="44.82741507291116" lon="8.40388603475439"><ele>203.0</ele><time>2026-03-28T14:58:11Z</time></trkpt><trkpt lat="44.827522043852504" lon="8.403834205183394"><ele>203.0</ele><time>2026-03-28T14:58:13Z</time></trkpt><trkpt lat="44.82761603958018" lon="8.403809870788827"><ele>203.0</ele><time>2026-03-28T14:58:16Z</time></trkpt><trkpt lat="44.827694430073976" lon="8.403810105051498"><ele>202.16666666666669</ele><time>2026-03-28T14:58:18Z</time></trkpt><trkpt lat="44.82776195883648" lon="8.40378299088918"><ele>201.33333333333334</ele><time>2026-03-28T14:58:20Z</time></trkpt><trkpt lat="44.82783782119793" lon="8.403747958561807"><ele>200.5</ele><time>2026-03-28T14:58:22Z</time></trkpt><trkpt lat="44.82790536130837" lon="8.403711095951667"><ele>199.66666666666669</ele><time>2026-03-28T14:58:23Z</time></trkpt><trkpt lat="44.82799049894975" lon="8.403693229565794"><ele>198.83333333333334</ele><time>2026-03-28T14:58:24Z</time></trkpt><trkpt lat="44.828092177238" lon="8.403636554877208"><ele>198.0</ele><time>2026-03-28T14:58:26Z</time></trkpt><trkpt lat="44.82816958222932" lon="8.403647482791184"><ele>198.0</ele><time>2026-03-28T14:58:29Z</time></trkpt><trkpt lat="44.82826168784561" lon="8.403665263851789"><ele>198.0</ele><time>2026-03-28T14:58:32Z</time></trkpt><trkpt lat="44.82830897372545" lon="8.403743025375148"><ele>198.0</ele><time>2026-03-28T14:58:34Z</time></trkpt><trkpt lat="44.82836036090023" lon="8.403867889357954"><ele>198.0</ele><time>2026-03-28T14:58:36Z</time></trkpt><trkpt lat="44.82838270159312" lon="8.403958766333448"><ele>198.0</ele><time>2026-03-28T14:58:37.001Z</time></trkpt><trkpt lat="44.82838107514453" lon="8.404066846976647"><ele>198.0</ele><time>2026-03-28T14:58:40.001Z</time></trkpt><trkpt lat="44.828325954355456" lon="8.404167820389643"><ele>197.2</ele><time>2026-03-28T14:58:42.001Z</time></trkpt><trkpt lat="44.828295918589255" lon="8.404300788274542"><ele>196.4</ele><time>2026-03-28T14:58:44.001Z</time></trkpt><trkpt lat="44.82825357858886" lon="8.404422847770588"><ele>195.6</ele><time>2026-03-28T14:58:46.001Z</time></trkpt><trkpt lat="44.828223845614424" lon="8.404567072266556"><ele>194.79999999999998</ele><time>2026-03-28T14:58:48.001Z</time></trkpt><trkpt lat="44.828207084392524" lon="8.404682511478677"><ele>194.0</ele><time>2026-03-28T14:58:50.001Z</time></trkpt><trkpt lat="44.828226612350846" lon="8.404771521970341"><ele>192.85714285714286</ele><time>2026-03-28T14:58:52.001Z</time></trkpt><trkpt lat="44.82825225088038" lon="8.404855731913145"><ele>191.71428571428572</ele><time>2026-03-28T14:59:38Z</time></trkpt><trkpt lat="44.828302777711464" lon="8.404939774615828"><ele>190.57142857142858</ele><time>2026-03-28T14:59:41Z</time></trkpt><trkpt lat="44.82837360828554" lon="8.404981776708691"><ele>189.42857142857144</ele><time>2026-03-28T14:59:44Z</time></trkpt><trkpt lat="44.82844612930991" lon="8.404961881886766"><ele>188.28571428571428</ele><time>2026-03-28T14:59:47Z</time></trkpt><trkpt lat="44.82850964691971" lon="8.404918167930592"><ele>187.14285714285717</ele><time>2026-03-28T14:59:52Z</time></trkpt><trkpt lat="44.82846870527984" lon="8.404991445634828"><ele>186.0</ele><time>2026-03-28T14:59:59Z</time></trkpt><trkpt lat="44.82855480552376" lon="8.404998232713423"><ele>183.83333333333334</ele><time>2026-03-28T15:00:09Z</time></trkpt><trkpt lat="44.828619791403696" lon="8.404986643652725"><ele>181.66666666666666</ele><time>2026-03-28T15:00:11Z</time></trkpt><trkpt lat="44.828701199645415" lon="8.404990258645688"><ele>179.5</ele><time>2026-03-28T15:00:13Z</time></trkpt><trkpt lat="44.82876706392054" lon="8.40493990332922"><ele>177.33333333333331</ele><time>2026-03-28T15:00:15Z</time></trkpt><trkpt lat="44.828835587201766" lon="8.40494179047478"><ele>175.16666666666666</ele><time>2026-03-28T15:00:18Z</time></trkpt><trkpt lat="44.82890648215268" lon="8.405033574629092"><ele>173.0</ele><time>2026-03-28T15:00:21Z</time></trkpt><trkpt lat="44.82896314015913" lon="8.405106248701207"><ele>173.0</ele><time>2026-03-28T15:00:23Z</time></trkpt><trkpt lat="44.828999398164534" lon="8.405188404235249"><ele>173.0</ele><time>2026-03-28T15:00:26Z</time></trkpt><trkpt lat="44.82902272140158" lon="8.405271632386299"><ele>173.0</ele><time>2026-03-28T15:00:28Z</time></trkpt><trkpt lat="44.82905905015973" lon="8.40535000590936"><ele>173.0</ele><time>2026-03-28T15:00:31Z</time></trkpt><trkpt lat="44.829137295853684" lon="8.405338449726333"><ele>173.0</ele><time>2026-03-28T15:01:20Z</time></trkpt><trkpt lat="44.82920842354367" lon="8.40533890885759"><ele>173.0</ele><time>2026-03-28T15:01:24Z</time></trkpt><trkpt lat="44.82928079488289" lon="8.405372706217443"><ele>173.0</ele><time>2026-03-28T15:01:28Z</time></trkpt><trkpt lat="44.82934724271773" lon="8.405344620678425"><ele>173.0</ele><time>2026-03-28T15:01:35Z</time></trkpt><trkpt lat="44.8293187839123" lon="8.405186557202805"><ele>173.0</ele><time>2026-03-28T15:01:48Z</time></trkpt><trkpt lat="44.8292695953404" lon="8.405258788798202"><ele>173.0</ele><time>2026-03-28T15:01:52Z</time></trkpt><trkpt lat="44.82921748570822" lon="8.405313652106553"><ele>173.0</ele><time>2026-03-28T15:01:55Z</time></trkpt><trkpt lat="44.829154391601094" lon="8.4053094363579"><ele>173.0</ele><time>2026-03-28T15:01:59Z</time></trkpt><trkpt lat="44.8290821614134" lon="8.40532536195114"><ele>173.0</ele><time>2026-03-28T15:02:00Z</time></trkpt><trkpt lat="44.82901954540376" lon="8.405371337696058"><ele>173.0</ele><time>2026-03-28T15:02:02Z</time></trkpt><trkpt lat="44.82898381078168" lon="8.405465298855908"><ele>173.0</ele><time>2026-03-28T15:02:04Z</time></trkpt><trkpt lat="44.82897398672436" lon="8.405556967191753"><ele>173.0</ele><time>2026-03-28T15:02:07Z</time></trkpt><trkpt lat="44.828899296561815" lon="8.405613526932578"><ele>173.0</ele><time>2026-03-28T15:02:09Z</time></trkpt><trkpt lat="44.82886385690553" lon="8.405694018328656"><ele>173.0</ele><time>2026-03-28T15:02:12Z</time></trkpt><trkpt lat="44.82878961769167" lon="8.405761751255262"><ele>173.0</ele><time>2026-03-28T15:02:16Z</time></trkpt><trkpt lat="44.82873511380559" lon="8.405862129018262"><ele>173.66666666666666</ele><time>2026-03-28T15:02:19Z</time></trkpt><trkpt lat="44.828662968658115" lon="8.405966784545273"><ele>174.33333333333331</ele><time>2026-03-28T15:02:22Z</time></trkpt><trkpt lat="44.82857481135249" lon="8.406022526970334"><ele>175.0</ele><time>2026-03-28T15:02:24Z</time></trkpt><trkpt lat="44.82850678875456" lon="8.406090532356922"><ele>175.66666666666666</ele><time>2026-03-28T15:02:26Z</time></trkpt><trkpt lat="44.82852544625819" lon="8.406203967177603"><ele>176.33333333333334</ele><time>2026-03-28T15:02:29Z</time></trkpt><trkpt lat="44.828452725474875" lon="8.40617875793091"><ele>177.0</ele><time>2026-03-28T15:03:08.001Z</time></trkpt><trkpt lat="44.82840656463589" lon="8.406257580443402"><ele>177.0</ele><time>2026-03-28T15:03:16.001Z</time></trkpt><trkpt lat="44.828454574815424" lon="8.406318372652922"><ele>177.0</ele><time>2026-03-28T15:03:23Z</time></trkpt><trkpt lat="44.82853458201008" lon="8.406387389432888"><ele>177.0</ele><time>2026-03-28T15:03:26Z</time></trkpt><trkpt lat="44.82845923912592" lon="8.406369739209616"><ele>177.0</ele><time>2026-03-28T15:03:52Z</time></trkpt><trkpt lat="44.82841844045984" lon="8.406299829255364"><ele>177.0</ele><time>2026-03-28T15:03:55Z</time></trkpt><trkpt lat="44.82838902065077" lon="8.406217034399337"><ele>177.0</ele><time>2026-03-28T15:03:57Z</time></trkpt><trkpt lat="44.82857823024618" lon="8.406213580201685"><ele>179.0</ele><time>2026-03-28T15:04:04Z</time></trkpt><trkpt lat="44.82860734241847" lon="8.406341208033844"><ele>181.0</ele><time>2026-03-28T15:04:06Z</time></trkpt><trkpt lat="44.82867591464214" lon="8.406436682700688"><ele>183.0</ele><time>2026-03-28T15:04:08Z</time></trkpt><trkpt lat="44.82872488145232" lon="8.406577751761436"><ele>185.0</ele><time>2026-03-28T15:04:10Z</time></trkpt><trkpt lat="44.82877924684753" lon="8.406655608260989"><ele>187.0</ele><time>2026-03-28T15:04:13Z</time></trkpt><trkpt lat="44.828799218426134" lon="8.406769633081606"><ele>187.0</ele><time>2026-03-28T15:04:15Z</time></trkpt><trkpt lat="44.82882045681288" lon="8.406869781064637"><ele>187.0</ele><time>2026-03-28T15:04:17Z</time></trkpt><trkpt lat="44.82888679524509" lon="8.40697780765948"><ele>187.0</ele><time>2026-03-28T15:04:20Z</time></trkpt><trkpt lat="44.82897079904079" lon="8.407108686843664"><ele>187.0</ele><time>2026-03-28T15:04:22Z</time></trkpt><trkpt lat="44.82901598742237" lon="8.407171082031386"><ele>187.0</ele><time>2026-03-28T15:04:23Z</time></trkpt><trkpt lat="44.82906209037103" lon="8.407237086369515"><ele>187.0</ele><time>2026-03-28T15:04:24Z</time></trkpt><trkpt lat="44.82911383983283" lon="8.407292274721758"><ele>188.2</ele><time>2026-03-28T15:04:25Z</time></trkpt><trkpt lat="44.82921066848309" lon="8.407401037614646"><ele>189.39999999999998</ele><time>2026-03-28T15:04:27Z</time></trkpt><trkpt lat="44.829262756647864" lon="8.407455713600777"><ele>190.60000000000002</ele><time>2026-03-28T15:04:28Z</time></trkpt><trkpt lat="44.82928541296501" lon="8.407593174653098"><ele>191.8</ele><time>2026-03-28T15:04:30Z</time></trkpt><trkpt lat="44.82933781368621" lon="8.407723915622231"><ele>193.0</ele><time>2026-03-28T15:04:32Z</time></trkpt><trkpt lat="44.82940135857112" lon="8.40781422481871"><ele>193.8</ele><time>2026-03-28T15:04:34Z</time></trkpt><trkpt lat="44.82946216509533" lon="8.40790997041423"><ele>194.60000000000002</ele><time>2026-03-28T15:04:36Z</time></trkpt><trkpt lat="44.82953468102243" lon="8.408011777547028"><ele>195.39999999999998</ele><time>2026-03-28T15:04:40.001Z</time></trkpt><trkpt lat="44.829616837593264" lon="8.408069971412164"><ele>196.2</ele><time>2026-03-28T15:04:43.001Z</time></trkpt><trkpt lat="44.82971908864813" lon="8.407969402153984"><ele>197.0</ele><time>2026-03-28T15:04:46.001Z</time></trkpt><trkpt lat="44.82978992646799" lon="8.407913209842944"><ele>197.0</ele><time>2026-03-28T15:04:47.001Z</time></trkpt><trkpt lat="44.82986105629657" lon="8.407831728593878"><ele>197.0</ele><time>2026-03-28T15:04:48.001Z</time></trkpt><trkpt lat="44.829932842384224" lon="8.407743102141625"><ele>197.0</ele><time>2026-03-28T15:04:49.001Z</time></trkpt><trkpt lat="44.83001246993772" lon="8.407643402551884"><ele>197.0</ele><time>2026-03-28T15:04:50.001Z</time></trkpt><trkpt lat="44.83009336602026" lon="8.407542114689015"><ele>197.0</ele><time>2026-03-28T15:04:51.001Z</time></trkpt><trkpt lat="44.83019188555051" lon="8.407417945561342"><ele>197.0</ele><time>2026-03-28T15:04:52.001Z</time></trkpt><trkpt lat="44.83027929720353" lon="8.407304884430511"><ele>197.0</ele><time>2026-03-28T15:04:53.001Z</time></trkpt><trkpt lat="44.830366473355895" lon="8.407192127886947"><ele>197.0</ele><time>2026-03-28T15:04:54.001Z</time></trkpt><trkpt lat="44.83045865605915" lon="8.407074722138953"><ele>197.0</ele><time>2026-03-28T15:04:55.001Z</time></trkpt><trkpt lat="44.83054634762823" lon="8.406964789931065"><ele>196.8</ele><time>2026-03-28T15:04:56.001Z</time></trkpt><trkpt lat="44.830638951513905" lon="8.406858058545714"><ele>196.6</ele><time>2026-03-28T15:04:57.001Z</time></trkpt><trkpt lat="44.830726682412795" lon="8.40677226089677"><ele>196.4</ele><time>2026-03-28T15:04:58.001Z</time></trkpt><trkpt lat="44.830815794352695" lon="8.40670931441478"><ele>196.20000000000002</ele><time>2026-03-28T15:04:59.001Z</time></trkpt><trkpt lat="44.8309148893727" lon="8.406648224806018"><ele>196.0</ele><time>2026-03-28T15:05:00.001Z</time></trkpt><trkpt lat="44.83101712733093" lon="8.406594695468268"><ele>196.0</ele><time>2026-03-28T15:05:01.001Z</time></trkpt><trkpt lat="44.83112392354449" lon="8.406543509389923"><ele>196.0</ele><time>2026-03-28T15:05:02.001Z</time></trkpt><trkpt lat="44.83123164743616" lon="8.406493039465444"><ele>196.0</ele><time>2026-03-28T15:05:03.001Z</time></trkpt><trkpt lat="44.831341916279584" lon="8.406443646547329"><ele>196.0</ele><time>2026-03-28T15:05:04.001Z</time></trkpt><trkpt lat="44.831441533891265" lon="8.406399024608346"><ele>196.0</ele><time>2026-03-28T15:05:05.001Z</time></trkpt><trkpt lat="44.83155025700811" lon="8.406332992615217"><ele>195.75</ele><time>2026-03-28T15:05:06.001Z</time></trkpt><trkpt lat="44.8316642911193" lon="8.406279178964366"><ele>195.5</ele><time>2026-03-28T15:05:07.001Z</time></trkpt><trkpt lat="44.83177475601862" lon="8.406224659962072"><ele>195.25</ele><time>2026-03-28T15:05:08.001Z</time></trkpt><trkpt lat="44.83187770388459" lon="8.40617795317059"><ele>195.0</ele><time>2026-03-28T15:05:09.001Z</time></trkpt><trkpt lat="44.831989974742605" lon="8.406126382469319"><ele>195.5</ele><time>2026-03-28T15:05:10.001Z</time></trkpt><trkpt lat="44.83210046803296" lon="8.40607889809136"><ele>196.0</ele><time>2026-03-28T15:05:11.001Z</time></trkpt><trkpt lat="44.83221741502539" lon="8.406030254869597"><ele>196.5</ele><time>2026-03-28T15:05:12.001Z</time></trkpt><trkpt lat="44.8323267186567" lon="8.405978333314746"><ele>197.0</ele><time>2026-03-28T15:05:13.001Z</time></trkpt><trkpt lat="44.83243884824856" lon="8.40592811825038"><ele>197.0</ele><time>2026-03-28T15:05:14.001Z</time></trkpt><trkpt lat="44.83255147850141" lon="8.405869237059651"><ele>197.0</ele><time>2026-03-28T15:05:15.001Z</time></trkpt><trkpt lat="44.83266445955477" lon="8.405815407427442"><ele>197.0</ele><time>2026-03-28T15:05:16.001Z</time></trkpt><trkpt lat="44.83277886442701" lon="8.405762944230673"><ele>197.0</ele><time>2026-03-28T15:05:17.001Z</time></trkpt><trkpt lat="44.8328914995223" lon="8.405715259027183"><ele>196.75</ele><time>2026-03-28T15:05:18.001Z</time></trkpt><trkpt lat="44.833004620961376" lon="8.405671994881665"><ele>196.5</ele><time>2026-03-28T15:05:19.001Z</time></trkpt><trkpt lat="44.83312136459738" lon="8.405639494265431"><ele>196.25</ele><time>2026-03-28T15:05:20.001Z</time></trkpt><trkpt lat="44.833227648029684" lon="8.405620617861176"><ele>196.0</ele><time>2026-03-28T15:05:21.001Z</time></trkpt><trkpt lat="44.833336679345734" lon="8.405618662619133"><ele>196.0</ele><time>2026-03-28T15:05:22.001Z</time></trkpt><trkpt lat="44.833448731576006" lon="8.405623033498408"><ele>196.0</ele><time>2026-03-28T15:05:23.001Z</time></trkpt><trkpt lat="44.83355551255411" lon="8.405622852084242"><ele>196.0</ele><time>2026-03-28T15:05:24.001Z</time></trkpt><trkpt lat="44.83366554404682" lon="8.405624109970068"><ele>196.0</ele><time>2026-03-28T15:05:25Z</time></trkpt><trkpt lat="44.833770268018455" lon="8.405626389936286"><ele>196.0</ele><time>2026-03-28T15:05:26Z</time></trkpt><trkpt lat="44.83388136410964" lon="8.405630589761735"><ele>195.8</ele><time>2026-03-28T15:05:27Z</time></trkpt><trkpt lat="44.833987525048684" lon="8.405635245880983"><ele>195.60000000000002</ele><time>2026-03-28T15:05:28Z</time></trkpt><trkpt lat="44.83409818646974" lon="8.40565721863493"><ele>195.4</ele><time>2026-03-28T15:05:29Z</time></trkpt><trkpt lat="44.834205485977336" lon="8.405701554787289"><ele>195.2</ele><time>2026-03-28T15:05:30Z</time></trkpt><trkpt lat="44.83430482936553" lon="8.405760666936953"><ele>195.0</ele><time>2026-03-28T15:05:31Z</time></trkpt><trkpt lat="44.83441052982262" lon="8.405806391805989"><ele>194.8</ele><time>2026-03-28T15:05:32Z</time></trkpt><trkpt lat="44.83450226105151" lon="8.405841562878013"><ele>194.6</ele><time>2026-03-28T15:05:33Z</time></trkpt><trkpt lat="44.83458934007713" lon="8.405868781190481"><ele>194.39999999999998</ele><time>2026-03-28T15:05:34Z</time></trkpt><trkpt lat="44.83466936359808" lon="8.405890907897659"><ele>194.2</ele><time>2026-03-28T15:05:35Z</time></trkpt><trkpt lat="44.83473753062088" lon="8.405925111161606"><ele>194.0</ele><time>2026-03-28T15:05:36Z</time></trkpt><trkpt lat="44.834848301282435" lon="8.4059798155501"><ele>194.0</ele><time>2026-03-28T15:05:38Z</time></trkpt><trkpt lat="44.83493074459146" lon="8.405982747061891"><ele>194.0</ele><time>2026-03-28T15:05:40Z</time></trkpt><trkpt lat="44.834996597397314" lon="8.405945791008174"><ele>194.0</ele><time>2026-03-28T15:05:41Z</time></trkpt><trkpt lat="44.83509125837421" lon="8.406237204918654"><ele>194.0</ele><time>2026-03-28T15:05:42Z</time></trkpt><trkpt lat="44.83517221611029" lon="8.406288807667504"><ele>194.00000000000003</ele><time>2026-03-28T15:05:43Z</time></trkpt><trkpt lat="44.83524306952414" lon="8.406343752945443"><ele>194.0</ele><time>2026-03-28T15:05:44Z</time></trkpt><trkpt lat="44.83531360115174" lon="8.406405722510685"><ele>194.0</ele><time>2026-03-28T15:05:45Z</time></trkpt><trkpt lat="44.83538981187194" lon="8.406479785401908"><ele>194.0</ele><time>2026-03-28T15:05:46Z</time></trkpt><trkpt lat="44.83546223662461" lon="8.406549353535633"><ele>194.00000000000003</ele><time>2026-03-28T15:05:47Z</time></trkpt><trkpt lat="44.835525212024514" lon="8.406617647627206"><ele>194.0</ele><time>2026-03-28T15:05:48Z</time></trkpt><trkpt lat="44.835586171104204" lon="8.406682007919587"><ele>194.0</ele><time>2026-03-28T15:05:49Z</time></trkpt><trkpt lat="44.83566284089504" lon="8.406726869982352"><ele>194.0</ele><time>2026-03-28T15:05:50Z</time></trkpt><trkpt lat="44.83574310529153" lon="8.406754429787748"><ele>194.0</ele><time>2026-03-28T15:05:51Z</time></trkpt><trkpt lat="44.8358234381814" lon="8.406780995634088"><ele>194.0</ele><time>2026-03-28T15:05:52Z</time></trkpt><trkpt lat="44.835892067572274" lon="8.406779333748156"><ele>194.0</ele><time>2026-03-28T15:05:53Z</time></trkpt><trkpt lat="44.83602306533289" lon="8.406842000562431"><ele>194.00000000000003</ele><time>2026-03-28T15:05:55Z</time></trkpt><trkpt lat="44.83609566649193" lon="8.406873969906517"><ele>194.0</ele><time>2026-03-28T15:05:56Z</time></trkpt><trkpt lat="44.83617812152088" lon="8.406952948516036"><ele>194.0</ele><time>2026-03-28T15:05:57Z</time></trkpt><trkpt lat="44.836244911770315" lon="8.407000510898024"><ele>194.0</ele><time>2026-03-28T15:05:58Z</time></trkpt><trkpt lat="44.83626329235595" lon="8.407132010924874"><ele>194.00000000000003</ele><time>2026-03-28T15:06:00Z</time></trkpt><trkpt lat="44.836333446938085" lon="8.407182751457954"><ele>194.0</ele><time>2026-03-28T15:06:09Z</time></trkpt><trkpt lat="44.83638856026913" lon="8.407233237880389"><ele>193.6</ele><time>2026-03-28T15:06:10Z</time></trkpt><trkpt lat="44.836474381010916" lon="8.407276931449381"><ele>193.2</ele><time>2026-03-28T15:06:11Z</time></trkpt><trkpt lat="44.83656193961899" lon="8.40731190080064"><ele>192.79999999999998</ele><time>2026-03-28T15:06:12Z</time></trkpt><trkpt lat="44.83665713560255" lon="8.407338391206011"><ele>192.39999999999998</ele><time>2026-03-28T15:06:13Z</time></trkpt><trkpt lat="44.836740659371436" lon="8.407339868185844"><ele>192.0</ele><time>2026-03-28T15:06:14Z</time></trkpt><trkpt lat="44.83687100458448" lon="8.40734802552105"><ele>191.66666666666666</ele><time>2026-03-28T15:06:16Z</time></trkpt><trkpt lat="44.836936085583126" lon="8.40734946164586"><ele>191.33333333333334</ele><time>2026-03-28T15:06:17Z</time></trkpt><trkpt lat="44.83700347050426" lon="8.407371337537365"><ele>191.0</ele><time>2026-03-28T15:06:19Z</time></trkpt><trkpt lat="44.837070829510395" lon="8.407410781445806"><ele>190.66666666666669</ele><time>2026-03-28T15:06:23Z</time></trkpt><trkpt lat="44.837147744723765" lon="8.407447850356416"><ele>190.33333333333334</ele><time>2026-03-28T15:06:25Z</time></trkpt><trkpt lat="44.83721181443166" lon="8.407424972991446"><ele>190.0</ele><time>2026-03-28T15:06:27Z</time></trkpt><trkpt lat="44.83711364813114" lon="8.407451397097537"><ele>190.0</ele><time>2026-03-28T15:06:35.001Z</time></trkpt><trkpt lat="44.837039919453105" lon="8.407387902583947"><ele>190.0</ele><time>2026-03-28T15:06:37.001Z</time></trkpt><trkpt lat="44.837100859733155" lon="8.407349509005842"><ele>190.0</ele><time>2026-03-28T15:06:43.001Z</time></trkpt><trkpt lat="44.83717304787914" lon="8.407348799475733"><ele>190.0</ele><time>2026-03-28T15:06:44.001Z</time></trkpt><trkpt lat="44.83729333131334" lon="8.407265175335313"><ele>190.0</ele><time>2026-03-28T15:06:46.001Z</time></trkpt><trkpt lat="44.837389622060435" lon="8.407240851515759"><ele>190.0</ele><time>2026-03-28T15:06:47.001Z</time></trkpt><trkpt lat="44.83752684117513" lon="8.407174739555408"><ele>190.0</ele><time>2026-03-28T15:06:48.001Z</time></trkpt><trkpt lat="44.83766403898902" lon="8.407128029735217"><ele>190.0</ele><time>2026-03-28T15:06:49.001Z</time></trkpt><trkpt lat="44.83775742519678" lon="8.407090173362684"><ele>190.0</ele><time>2026-03-28T15:06:50.001Z</time></trkpt><trkpt lat="44.83785130653717" lon="8.407037169716514"><ele>187.0</ele><time>2026-03-28T15:06:51.001Z</time></trkpt><trkpt lat="44.83793093586261" lon="8.406986693811422"><ele>184.0</ele><time>2026-03-28T15:06:52.001Z</time></trkpt><trkpt lat="44.83801454745693" lon="8.406946263319355"><ele>181.0</ele><time>2026-03-28T15:06:53.001Z</time></trkpt><trkpt lat="44.83812127214872" lon="8.406916954452964"><ele>178.0</ele><time>2026-03-28T15:06:55.001Z</time></trkpt><trkpt lat="44.83820692622409" lon="8.406975381595778"><ele>175.0</ele><time>2026-03-28T15:06:57.001Z</time></trkpt><trkpt lat="44.83823472378364" lon="8.407085710751714"><ele>177.0</ele><time>2026-03-28T15:06:59.001Z</time></trkpt><trkpt lat="44.83828809079514" lon="8.407229682869342"><ele>179.0</ele><time>2026-03-28T15:07:01.001Z</time></trkpt><trkpt lat="44.838337360463186" lon="8.407364051107093"><ele>181.0</ele><time>2026-03-28T15:07:02.001Z</time></trkpt><trkpt lat="44.83837461089911" lon="8.407472949272156"><ele>183.0</ele><time>2026-03-28T15:07:03.001Z</time></trkpt><trkpt lat="44.83841470158938" lon="8.40759547225387"><ele>185.0</ele><time>2026-03-28T15:07:04.001Z</time></trkpt><trkpt lat="44.838442519604364" lon="8.407718839916162"><ele>182.33333333333331</ele><time>2026-03-28T15:07:05.001Z</time></trkpt><trkpt lat="44.83847484916093" lon="8.407843323261652"><ele>179.66666666666666</ele><time>2026-03-28T15:07:06.001Z</time></trkpt><trkpt lat="44.83852317065793" lon="8.407938461200867"><ele>177.0</ele><time>2026-03-28T15:07:07.001Z</time></trkpt><trkpt lat="44.83858116738243" lon="8.408017736202225"><ele>174.33333333333334</ele><time>2026-03-28T15:07:09.001Z</time></trkpt><trkpt lat="44.83863374244332" lon="8.40814471677819"><ele>171.66666666666669</ele><time>2026-03-28T15:07:11.001Z</time></trkpt><trkpt lat="44.83868369887955" lon="8.40823221715493"><ele>169.0</ele><time>2026-03-28T15:07:13.001Z</time></trkpt><trkpt lat="44.838740522220675" lon="8.408395594735"><ele>169.0</ele><time>2026-03-28T15:07:15.001Z</time></trkpt><trkpt lat="44.838821987859255" lon="8.408483526340179"><ele>169.0</ele><time>2026-03-28T15:07:17.001Z</time></trkpt><trkpt lat="44.83887997569897" lon="8.408549735529938"><ele>169.0</ele><time>2026-03-28T15:07:18.001Z</time></trkpt><trkpt lat="44.83894876151647" lon="8.408625502863018"><ele>169.0</ele><time>2026-03-28T15:07:20.001Z</time></trkpt><trkpt lat="44.83904203697302" lon="8.408375767389755"><ele>169.0</ele><time>2026-03-28T15:07:25.001Z</time></trkpt><trkpt lat="44.8390234335204" lon="8.408241423461002"><ele>169.0</ele><time>2026-03-28T15:07:26.001Z</time></trkpt><trkpt lat="44.83903928156703" lon="8.408116063997479"><ele>169.0</ele><time>2026-03-28T15:07:27.001Z</time></trkpt><trkpt lat="44.839029734582745" lon="8.408014189282989"><ele>169.0</ele><time>2026-03-28T15:07:28.001Z</time></trkpt><trkpt lat="44.83900791106218" lon="8.407930227816024"><ele>169.0</ele><time>2026-03-28T15:07:29.001Z</time></trkpt><trkpt lat="44.838978681613064" lon="8.407825209265892"><ele>169.0</ele><time>2026-03-28T15:07:30.001Z</time></trkpt><trkpt lat="44.83895685695768" lon="8.407725576791561"><ele>167.66666666666669</ele><time>2026-03-28T15:07:31Z</time></trkpt><trkpt lat="44.83889873198748" lon="8.407613663049158"><ele>166.33333333333334</ele><time>2026-03-28T15:07:33Z</time></trkpt><trkpt lat="44.83889629607315" lon="8.407495506994932"><ele>165.0</ele><time>2026-03-28T15:07:34Z</time></trkpt><trkpt lat="44.838863995939036" lon="8.407413222551769"><ele>163.66666666666666</ele><time>2026-03-28T15:07:35Z</time></trkpt><trkpt lat="44.8388361220385" lon="8.40732226868822"><ele>162.33333333333331</ele><time>2026-03-28T15:07:36Z</time></trkpt><trkpt lat="44.83882976982445" lon="8.407232842213363"><ele>161.0</ele><time>2026-03-28T15:07:37Z</time></trkpt><trkpt lat="44.838789824338114" lon="8.407095497743821"><ele>159.4</ele><time>2026-03-28T15:07:39Z</time></trkpt><trkpt lat="44.83875449607088" lon="8.406923050313114"><ele>157.8</ele><time>2026-03-28T15:07:41Z</time></trkpt><trkpt lat="44.83877073513369" lon="8.406800101410798"><ele>156.20000000000002</ele><time>2026-03-28T15:07:43Z</time></trkpt><trkpt lat="44.838752150267105" lon="8.406709735378175"><ele>154.60000000000002</ele><time>2026-03-28T15:07:45Z</time></trkpt><trkpt lat="44.838735410022274" lon="8.406520022543994"><ele>153.0</ele><time>2026-03-28T15:07:47Z</time></trkpt><trkpt lat="44.83872836479771" lon="8.406417418206056"><ele>152.6</ele><time>2026-03-28T15:07:48Z</time></trkpt><trkpt lat="44.838695516442364" lon="8.406248302200185"><ele>152.20000000000002</ele><time>2026-03-28T15:07:50Z</time></trkpt><trkpt lat="44.83866838176561" lon="8.406143108665908"><ele>151.8</ele><time>2026-03-28T15:07:52Z</time></trkpt><trkpt lat="44.838552809240355" lon="8.406072411736604"><ele>151.4</ele><time>2026-03-28T15:07:54Z</time></trkpt><trkpt lat="44.838493009667424" lon="8.406102149769431"><ele>151.0</ele><time>2026-03-28T15:07:56Z</time></trkpt><trkpt lat="44.83841823791012" lon="8.406025733270562"><ele>151.0</ele><time>2026-03-28T15:07:58Z</time></trkpt><trkpt lat="44.838461040507674" lon="8.405948871614472"><ele>151.0</ele><time>2026-03-28T15:08:01Z</time></trkpt><trkpt lat="44.83865169176293" lon="8.405919734402078"><ele>151.0</ele><time>2026-03-28T15:08:06Z</time></trkpt><trkpt lat="44.83874717885969" lon="8.405902030061107"><ele>151.0</ele><time>2026-03-28T15:08:08Z</time></trkpt><trkpt lat="44.83884890476938" lon="8.405889508920836"><ele>151.0</ele><time>2026-03-28T15:08:09Z</time></trkpt><trkpt lat="44.83891282254573" lon="8.40579536247404"><ele>151.0</ele><time>2026-03-28T15:08:11Z</time></trkpt><trkpt lat="44.83888994953714" lon="8.405708073814504"><ele>151.0</ele><time>2026-03-28T15:08:15Z</time></trkpt><trkpt lat="44.83899071585796" lon="8.405760584955242"><ele>151.0</ele><time>2026-03-28T15:08:59.001Z</time></trkpt><trkpt lat="44.839035303028275" lon="8.405653808837016"><ele>151.0</ele><time>2026-03-28T15:09:07.001Z</time></trkpt><trkpt lat="44.83897891193236" lon="8.405482031270354"><ele>151.16666666666669</ele><time>2026-03-28T15:09:09.001Z</time></trkpt><trkpt lat="44.83894120708531" lon="8.405373081653652"><ele>151.33333333333334</ele><time>2026-03-28T15:09:10.001Z</time></trkpt><trkpt lat="44.83889533074241" lon="8.405268625968704"><ele>151.5</ele><time>2026-03-28T15:09:11.001Z</time></trkpt><trkpt lat="44.838852477917015" lon="8.405169476047282"><ele>151.66666666666666</ele><time>2026-03-28T15:09:12.001Z</time></trkpt><trkpt lat="44.83882175084475" lon="8.405079266069892"><ele>151.83333333333331</ele><time>2026-03-28T15:09:13.001Z</time></trkpt><trkpt lat="44.83881605383102" lon="8.40498356935442"><ele>152.0</ele><time>2026-03-28T15:09:14.001Z</time></trkpt><trkpt lat="44.83882065981704" lon="8.404853442422995"><ele>152.0</ele><time>2026-03-28T15:09:15.001Z</time></trkpt><trkpt lat="44.83877805075391" lon="8.404670664436289"><ele>152.0</ele><time>2026-03-28T15:09:17.001Z</time></trkpt><trkpt lat="44.8387249944359" lon="8.404506521778902"><ele>152.0</ele><time>2026-03-28T15:09:18.001Z</time></trkpt><trkpt lat="44.838673675674215" lon="8.404384064578053"><ele>152.0</ele><time>2026-03-28T15:09:19.001Z</time></trkpt><trkpt lat="44.838627360462915" lon="8.404273173314373"><ele>152.6</ele><time>2026-03-28T15:09:20.001Z</time></trkpt><trkpt lat="44.83857207189104" lon="8.404193019234095"><ele>153.2</ele><time>2026-03-28T15:09:21.001Z</time></trkpt><trkpt lat="44.838513652068016" lon="8.404102910395226"><ele>153.8</ele><time>2026-03-28T15:09:22.001Z</time></trkpt><trkpt lat="44.83844816299577" lon="8.403984008657366"><ele>154.4</ele><time>2026-03-28T15:09:23.001Z</time></trkpt><trkpt lat="44.83839018705904" lon="8.403892054655214"><ele>155.0</ele><time>2026-03-28T15:09:24.001Z</time></trkpt><trkpt lat="44.838320308702215" lon="8.403801626257403"><ele>155.2</ele><time>2026-03-28T15:09:25.001Z</time></trkpt><trkpt lat="44.838236994706776" lon="8.403630086040323"><ele>155.4</ele><time>2026-03-28T15:09:26.001Z</time></trkpt><trkpt lat="44.83815233836744" lon="8.403553342327728"><ele>155.6</ele><time>2026-03-28T15:09:27.001Z</time></trkpt><trkpt lat="44.83805982718801" lon="8.403491213578233"><ele>155.8</ele><time>2026-03-28T15:09:28.001Z</time></trkpt><trkpt lat="44.83798733611713" lon="8.403426367981142"><ele>156.0</ele><time>2026-03-28T15:09:29.001Z</time></trkpt><trkpt lat="44.83790988141079" lon="8.403333785206081"><ele>156.0</ele><time>2026-03-28T15:09:30.001Z</time></trkpt><trkpt lat="44.83783609173434" lon="8.40323383773318"><ele>156.0</ele><time>2026-03-28T15:09:31.001Z</time></trkpt><trkpt lat="44.83778147867612" lon="8.403148322456056"><ele>156.0</ele><time>2026-03-28T15:09:32.001Z</time></trkpt><trkpt lat="44.83770072820761" lon="8.403096456210514"><ele>156.0</ele><time>2026-03-28T15:09:33.001Z</time></trkpt><trkpt lat="44.83761631570231" lon="8.403059997364558"><ele>156.0</ele><time>2026-03-28T15:09:34.001Z</time></trkpt><trkpt lat="44.837543247955374" lon="8.403005789308468"><ele>156.0</ele><time>2026-03-28T15:09:35.001Z</time></trkpt><trkpt lat="44.83747525231285" lon="8.402968271070788"><ele>155.83333333333334</ele><time>2026-03-28T15:09:36.001Z</time></trkpt><trkpt lat="44.83739080861242" lon="8.402952300299704"><ele>155.66666666666666</ele><time>2026-03-28T15:09:37Z</time></trkpt><trkpt lat="44.83730383802599" lon="8.402958052065427"><ele>155.5</ele><time>2026-03-28T15:09:38Z</time></trkpt><trkpt lat="44.83722832086382" lon="8.402999592134098"><ele>155.33333333333331</ele><time>2026-03-28T15:09:39Z</time></trkpt><trkpt lat="44.83714458438442" lon="8.403056731258257"><ele>155.16666666666666</ele><time>2026-03-28T15:09:41Z</time></trkpt><trkpt lat="44.837052051078764" lon="8.40309435040531"><ele>155.0</ele><time>2026-03-28T15:09:48Z</time></trkpt><trkpt lat="44.836969534238186" lon="8.40328753338866"><ele>156.6</ele><time>2026-03-28T15:09:50Z</time></trkpt><trkpt lat="44.83691507660878" lon="8.403396804754578"><ele>158.2</ele><time>2026-03-28T15:09:51Z</time></trkpt><trkpt lat="44.83686427100741" lon="8.403506391129563"><ele>159.8</ele><time>2026-03-28T15:09:52Z</time></trkpt><trkpt lat="44.8368092682291" lon="8.403604827537507"><ele>161.4</ele><time>2026-03-28T15:09:53Z</time></trkpt><trkpt lat="44.83674796010874" lon="8.403716670029903"><ele>163.0</ele><time>2026-03-28T15:09:54Z</time></trkpt><trkpt lat="44.83669215441566" lon="8.403818801993683"><ele>165.0</ele><time>2026-03-28T15:09:55Z</time></trkpt><trkpt lat="44.83661629021708" lon="8.403933631131057"><ele>167.0</ele><time>2026-03-28T15:09:56Z</time></trkpt><trkpt lat="44.836561760740594" lon="8.404035320555481"><ele>169.0</ele><time>2026-03-28T15:09:57Z</time></trkpt><trkpt lat="44.83646998723551" lon="8.404089353938534"><ele>171.0</ele><time>2026-03-28T15:09:58Z</time></trkpt><trkpt lat="44.8363892734553" lon="8.404155395134767"><ele>173.0</ele><time>2026-03-28T15:09:59Z</time></trkpt><trkpt lat="44.83633014132941" lon="8.404224467362386"><ele>173.0</ele><time>2026-03-28T15:10:00Z</time></trkpt><trkpt lat="44.836247965177414" lon="8.404301763636507"><ele>173.0</ele><time>2026-03-28T15:10:01Z</time></trkpt><trkpt lat="44.83617282448555" lon="8.40436817923254"><ele>173.0</ele><time>2026-03-28T15:10:02Z</time></trkpt><trkpt lat="44.83610461464139" lon="8.40442743595329"><ele>173.0</ele><time>2026-03-28T15:10:03Z</time></trkpt><trkpt lat="44.83603102339411" lon="8.404470206666694"><ele>173.0</ele><time>2026-03-28T15:10:04Z</time></trkpt><trkpt lat="44.83597073975884" lon="8.404529107546308"><ele>173.0</ele><time>2026-03-28T15:10:05Z</time></trkpt><trkpt lat="44.83591984952961" lon="8.404651210694212"><ele>175.33333333333331</ele><time>2026-03-28T15:10:07Z</time></trkpt><trkpt lat="44.83591786704521" lon="8.404768068481275"><ele>177.66666666666666</ele><time>2026-03-28T15:10:08Z</time></trkpt><trkpt lat="44.83590033749914" lon="8.404883328789433"><ele>180.0</ele><time>2026-03-28T15:10:09Z</time></trkpt><trkpt lat="44.8358793175541" lon="8.405001396531992"><ele>182.33333333333334</ele><time>2026-03-28T15:10:10Z</time></trkpt><trkpt lat="44.835840127503126" lon="8.40511145663373"><ele>184.66666666666669</ele><time>2026-03-28T15:10:11Z</time></trkpt><trkpt lat="44.835802015546776" lon="8.405200546076362"><ele>187.0</ele><time>2026-03-28T15:10:12Z</time></trkpt><trkpt lat="44.835770733916256" lon="8.405301573242067"><ele>187.0</ele><time>2026-03-28T15:10:13Z</time></trkpt><trkpt lat="44.83570927869165" lon="8.405384838487262"><ele>187.0</ele><time>2026-03-28T15:10:14Z</time></trkpt><trkpt lat="44.83568089469019" lon="8.405507839278007"><ele>187.0</ele><time>2026-03-28T15:10:15Z</time></trkpt><trkpt lat="44.835667522194306" lon="8.405601875844468"><ele>187.0</ele><time>2026-03-28T15:10:16Z</time></trkpt><trkpt lat="44.83565379259755" lon="8.405696048804554"><ele>187.0</ele><time>2026-03-28T15:10:17Z</time></trkpt><trkpt lat="44.835644078201554" lon="8.405788784724752"><ele>187.0</ele><time>2026-03-28T15:10:18Z</time></trkpt><trkpt lat="44.83562611120951" lon="8.405877229789306"><ele>187.0</ele><time>2026-03-28T15:10:19Z</time></trkpt><trkpt lat="44.83559016541089" lon="8.406042950904718"><ele>187.7142857142857</ele><time>2026-03-28T15:10:21Z</time></trkpt><trkpt lat="44.83557987266634" lon="8.40614058852284"><ele>188.42857142857144</ele><time>2026-03-28T15:10:22Z</time></trkpt><trkpt lat="44.83555819119488" lon="8.406248491543858"><ele>189.14285714285714</ele><time>2026-03-28T15:10:23Z</time></trkpt><trkpt lat="44.83555561890292" lon="8.406343494062956"><ele>189.85714285714283</ele><time>2026-03-28T15:10:24Z</time></trkpt><trkpt lat="44.83552086040574" lon="8.406422312853472"><ele>190.57142857142856</ele><time>2026-03-28T15:10:25Z</time></trkpt><trkpt lat="44.835480765409486" lon="8.4065239155644"><ele>191.28571428571428</ele><time>2026-03-28T15:10:27Z</time></trkpt><trkpt lat="44.83548980922259" lon="8.406628716038334"><ele>192.0</ele><time>2026-03-28T15:10:31Z</time></trkpt><trkpt lat="44.835600868432884" lon="8.406724828480755"><ele>192.33333333333334</ele><time>2026-03-28T15:10:33Z</time></trkpt><trkpt lat="44.835668740317786" lon="8.406773768250233"><ele>192.66666666666669</ele><time>2026-03-28T15:10:34Z</time></trkpt><trkpt lat="44.83574761520806" lon="8.406783570524"><ele>193.0</ele><time>2026-03-28T15:10:35Z</time></trkpt><trkpt lat="44.835827582583356" lon="8.406773313531652"><ele>193.33333333333334</ele><time>2026-03-28T15:10:36Z</time></trkpt><trkpt lat="44.83590452844454" lon="8.406769048906542"><ele>193.66666666666669</ele><time>2026-03-28T15:10:37Z</time></trkpt><trkpt lat="44.835975496060904" lon="8.406821101139135"><ele>194.0</ele><time>2026-03-28T15:10:38Z</time></trkpt><trkpt lat="44.83606736534046" lon="8.406882508970785"><ele>194.0</ele><time>2026-03-28T15:10:39Z</time></trkpt><trkpt lat="44.83614656367753" lon="8.406935692371071"><ele>194.0</ele><time>2026-03-28T15:10:40Z</time></trkpt><trkpt lat="44.836261095128876" lon="8.407025731270059"><ele>194.0</ele><time>2026-03-28T15:10:42Z</time></trkpt><trkpt lat="44.83627434624394" lon="8.407162382958427"><ele>194.0</ele><time>2026-03-28T15:10:44Z</time></trkpt><trkpt lat="44.83622907209049" lon="8.407287226230906"><ele>194.0</ele><time>2026-03-28T15:10:46.001Z</time></trkpt><trkpt lat="44.836224419590124" lon="8.407448730745118"><ele>193.6</ele><time>2026-03-28T15:10:48.001Z</time></trkpt><trkpt lat="44.836259520522425" lon="8.407564550942121"><ele>193.2</ele><time>2026-03-28T15:10:49.001Z</time></trkpt><trkpt lat="44.83630323361744" lon="8.407684099361518"><ele>192.79999999999998</ele><time>2026-03-28T15:10:50.001Z</time></trkpt><trkpt lat="44.83632765671001" lon="8.407799394111588"><ele>192.39999999999998</ele><time>2026-03-28T15:10:51.001Z</time></trkpt><trkpt lat="44.83635863865201" lon="8.407965000285248"><ele>192.0</ele><time>2026-03-28T15:10:52.001Z</time></trkpt><trkpt lat="44.83640917672114" lon="8.408118911841441"><ele>191.2</ele><time>2026-03-28T15:10:53.001Z</time></trkpt><trkpt lat="44.836460637453605" lon="8.408277390205223"><ele>190.39999999999998</ele><time>2026-03-28T15:10:54.001Z</time></trkpt><trkpt lat="44.83649054356255" lon="8.408422243999082"><ele>189.60000000000002</ele><time>2026-03-28T15:10:55.001Z</time></trkpt><trkpt lat="44.83651186859767" lon="8.408553957809799"><ele>188.8</ele><time>2026-03-28T15:10:56.001Z</time></trkpt><trkpt lat="44.83653322046416" lon="8.408675463400757"><ele>188.0</ele><time>2026-03-28T15:10:57.001Z</time></trkpt><trkpt lat="44.83654180075605" lon="8.408804322418698"><ele>187.16666666666666</ele><time>2026-03-28T15:10:58.001Z</time></trkpt><trkpt lat="44.83653835440809" lon="8.408918362422565"><ele>186.33333333333331</ele><time>2026-03-28T15:10:59.001Z</time></trkpt><trkpt lat="44.83653282084914" lon="8.409025622076985"><ele>185.5</ele><time>2026-03-28T15:11:00.001Z</time></trkpt><trkpt lat="44.83657381964148" lon="8.409130277697729"><ele>184.66666666666666</ele><time>2026-03-28T15:11:01.001Z</time></trkpt><trkpt lat="44.83662274799005" lon="8.409205398594187"><ele>183.83333333333334</ele><time>2026-03-28T15:11:02.001Z</time></trkpt><trkpt lat="44.8366967064498" lon="8.409243291715653"><ele>183.0</ele><time>2026-03-28T15:11:04.001Z</time></trkpt><trkpt lat="44.83678979133303" lon="8.409207254375879"><ele>182.5</ele><time>2026-03-28T15:11:06.001Z</time></trkpt><trkpt lat="44.83683334093069" lon="8.409123066429803"><ele>182.0</ele><time>2026-03-28T15:11:07.001Z</time></trkpt><trkpt lat="44.8368833708749" lon="8.4090542268246"><ele>181.5</ele><time>2026-03-28T15:11:08.001Z</time></trkpt><trkpt lat="44.83692994722516" lon="8.40899344731596"><ele>181.0</ele><time>2026-03-28T15:11:09.001Z</time></trkpt><trkpt lat="44.83697816815965" lon="8.408924690961662"><ele>180.5</ele><time>2026-03-28T15:11:10.001Z</time></trkpt><trkpt lat="44.83708294013168" lon="8.408921349679062"><ele>180.0</ele><time>2026-03-28T15:11:12.001Z</time></trkpt><trkpt lat="44.83717543010364" lon="8.409101019586922"><ele>180.0</ele><time>2026-03-28T15:11:14.001Z</time></trkpt><trkpt lat="44.8371989090364" lon="8.409253431304775"><ele>180.0</ele><time>2026-03-28T15:11:16.001Z</time></trkpt><trkpt lat="44.83725516008804" lon="8.409325826868525"><ele>180.0</ele><time>2026-03-28T15:11:19.001Z</time></trkpt><trkpt lat="44.8372903411707" lon="8.409410899419228"><ele>180.0</ele><time>2026-03-28T15:11:39.001Z</time></trkpt><trkpt lat="44.83734218173803" lon="8.409475733016523"><ele>180.0</ele><time>2026-03-28T15:11:54Z</time></trkpt><trkpt lat="44.837407698085656" lon="8.409597595147945"><ele>180.0</ele><time>2026-03-28T15:11:56Z</time></trkpt><trkpt lat="44.837456844781" lon="8.40971966000567"><ele>179.5</ele><time>2026-03-28T15:11:58Z</time></trkpt><trkpt lat="44.83751736428043" lon="8.409760832625956"><ele>179.0</ele><time>2026-03-28T15:12:00Z</time></trkpt><trkpt lat="44.8375915697162" lon="8.409768381309808"><ele>178.5</ele><time>2026-03-28T15:12:02Z</time></trkpt><trkpt lat="44.83766169890448" lon="8.409756654860736"><ele>178.0</ele><time>2026-03-28T15:12:03Z</time></trkpt><trkpt lat="44.837776906574334" lon="8.409765252334385"><ele>177.5</ele><time>2026-03-28T15:12:05Z</time></trkpt><trkpt lat="44.83785955141183" lon="8.409783368657708"><ele>177.0</ele><time>2026-03-28T15:12:06Z</time></trkpt><trkpt lat="44.83793226364159" lon="8.409840984601974"><ele>175.39999999999998</ele><time>2026-03-28T15:12:08Z</time></trkpt><trkpt lat="44.838040089651635" lon="8.409901114996472"><ele>173.79999999999998</ele><time>2026-03-28T15:12:10Z</time></trkpt><trkpt lat="44.8382175112339" lon="8.409918957521043"><ele>172.2</ele><time>2026-03-28T15:12:12Z</time></trkpt><trkpt lat="44.838287327981796" lon="8.40993333042992"><ele>170.6</ele><time>2026-03-28T15:12:13Z</time></trkpt><trkpt lat="44.83834905732839" lon="8.409951253029721"><ele>169.0</ele><time>2026-03-28T15:12:14Z</time></trkpt><trkpt lat="44.83841509760306" lon="8.409974235458145"><ele>166.79999999999998</ele><time>2026-03-28T15:12:15Z</time></trkpt><trkpt lat="44.838497086287056" lon="8.409996558033175"><ele>164.6</ele><time>2026-03-28T15:12:16Z</time></trkpt><trkpt lat="44.83859348742607" lon="8.410062869796658"><ele>162.4</ele><time>2026-03-28T15:12:18Z</time></trkpt><trkpt lat="44.83864957737142" lon="8.410105993108424"><ele>160.2</ele><time>2026-03-28T15:12:19Z</time></trkpt><trkpt lat="44.83876150803735" lon="8.410168076290876"><ele>158.0</ele><time>2026-03-28T15:12:21Z</time></trkpt><trkpt lat="44.83890328399047" lon="8.41018579513053"><ele>158.0</ele><time>2026-03-28T15:12:23Z</time></trkpt><trkpt lat="44.83898238539472" lon="8.410228529809803"><ele>158.0</ele><time>2026-03-28T15:12:24Z</time></trkpt><trkpt lat="44.839117843200455" lon="8.410256003272826"><ele>158.0</ele><time>2026-03-28T15:12:26Z</time></trkpt><trkpt lat="44.8392047282867" lon="8.410262879022401"><ele>158.0</ele><time>2026-03-28T15:12:27Z</time></trkpt><trkpt lat="44.839272705603356" lon="8.410301422645686"><ele>158.0</ele><time>2026-03-28T15:12:28Z</time></trkpt><trkpt lat="44.83933095004109" lon="8.410266872070071"><ele>158.0</ele><time>2026-03-28T15:12:29Z</time></trkpt><trkpt lat="44.8394242189814" lon="8.410354021684267"><ele>156.20000000000002</ele><time>2026-03-28T15:12:31Z</time></trkpt><trkpt lat="44.839489327673725" lon="8.410386812144234"><ele>154.4</ele><time>2026-03-28T15:12:32Z</time></trkpt><trkpt lat="44.839549538928416" lon="8.410442020133413"><ele>152.60000000000002</ele><time>2026-03-28T15:12:33Z</time></trkpt><trkpt lat="44.83965375341463" lon="8.410536358299879"><ele>150.8</ele><time>2026-03-28T15:12:35Z</time></trkpt><trkpt lat="44.839775531569934" lon="8.410536326834533"><ele>149.0</ele><time>2026-03-28T15:12:37Z</time></trkpt><trkpt lat="44.83984038388049" lon="8.410512351411997"><ele>148.33333333333331</ele><time>2026-03-28T15:12:38Z</time></trkpt><trkpt lat="44.8398873749426" lon="8.410638666070982"><ele>147.66666666666666</ele><time>2026-03-28T15:12:41Z</time></trkpt><trkpt lat="44.83991105296719" lon="8.410727820378133"><ele>147.0</ele><time>2026-03-28T15:12:44Z</time></trkpt><trkpt lat="44.840011661695385" lon="8.411115861554636"><ele>147.0</ele><time>2026-03-28T15:12:46Z</time></trkpt><trkpt lat="44.84000586142916" lon="8.411210995144158"><ele>147.0</ele><time>2026-03-28T15:12:47.001Z</time></trkpt><trkpt lat="44.84006567412646" lon="8.411291800600301"><ele>147.0</ele><time>2026-03-28T15:12:49.001Z</time></trkpt><trkpt lat="44.840077456367794" lon="8.411414772261452"><ele>147.0</ele><time>2026-03-28T15:12:52.001Z</time></trkpt><trkpt lat="44.84011035598549" lon="8.411573377755397"><ele>147.0</ele><time>2026-03-28T15:12:54.001Z</time></trkpt><trkpt lat="44.84006199263539" lon="8.411714610191478"><ele>147.33333333333334</ele><time>2026-03-28T15:12:56.001Z</time></trkpt><trkpt lat="44.84000586233102" lon="8.411774911536417"><ele>147.66666666666666</ele><time>2026-03-28T15:12:57.001Z</time></trkpt><trkpt lat="44.83997715414395" lon="8.411875819656032"><ele>148.0</ele><time>2026-03-28T15:12:58.001Z</time></trkpt><trkpt lat="44.83992493779563" lon="8.411943779764853"><ele>148.33333333333331</ele><time>2026-03-28T15:12:59.001Z</time></trkpt><trkpt lat="44.839873099329495" lon="8.412008219791085"><ele>148.66666666666666</ele><time>2026-03-28T15:13:00.001Z</time></trkpt><trkpt lat="44.839900968071525" lon="8.412089344089015"><ele>149.0</ele><time>2026-03-28T15:13:01.001Z</time></trkpt><trkpt lat="44.83989707773139" lon="8.412265473070498"><ele>149.16666666666666</ele><time>2026-03-28T15:13:03.001Z</time></trkpt><trkpt lat="44.839913554492014" lon="8.41236543975015"><ele>149.33333333333331</ele><time>2026-03-28T15:13:04.001Z</time></trkpt><trkpt lat="44.83995369442197" lon="8.412500922716253"><ele>149.5</ele><time>2026-03-28T15:13:06.001Z</time></trkpt><trkpt lat="44.840032016855254" lon="8.41249761672506"><ele>149.66666666666666</ele><time>2026-03-28T15:13:09.001Z</time></trkpt><trkpt lat="44.83994774278833" lon="8.412486741238736"><ele>149.83333333333334</ele><time>2026-03-28T15:14:23Z</time></trkpt><trkpt lat="44.83991572362513" lon="8.412396775978305"><ele>150.0</ele><time>2026-03-28T15:14:24Z</time></trkpt><trkpt lat="44.839890506667395" lon="8.412238005213817"><ele>149.83333333333334</ele><time>2026-03-28T15:14:26Z</time></trkpt><trkpt lat="44.83988443069508" lon="8.412102036928138"><ele>149.66666666666666</ele><time>2026-03-28T15:14:27Z</time></trkpt><trkpt lat="44.839904961650255" lon="8.411986709119041"><ele>149.5</ele><time>2026-03-28T15:14:28Z</time></trkpt><trkpt lat="44.83993840541718" lon="8.411872392863685"><ele>149.33333333333331</ele><time>2026-03-28T15:14:30Z</time></trkpt><trkpt lat="44.84000029297558" lon="8.411890516184073"><ele>149.16666666666666</ele><time>2026-03-28T15:14:40Z</time></trkpt><trkpt lat="44.83995727795288" lon="8.41197914461934"><ele>149.0</ele><time>2026-03-28T15:14:49Z</time></trkpt><trkpt lat="44.83995809130365" lon="8.412070628314101"><ele>149.16666666666666</ele><time>2026-03-28T15:14:56Z</time></trkpt><trkpt lat="44.83999548780996" lon="8.412187466695347"><ele>149.33333333333331</ele><time>2026-03-28T15:14:59Z</time></trkpt><trkpt lat="44.84002440021187" lon="8.412288440101456"><ele>149.5</ele><time>2026-03-28T15:15:02Z</time></trkpt><trkpt lat="44.840085100132264" lon="8.412348955219136"><ele>149.66666666666666</ele><time>2026-03-28T15:15:06Z</time></trkpt><trkpt lat="44.840168326182734" lon="8.412320146694643"><ele>149.83333333333334</ele><time>2026-03-28T15:15:10.001Z</time></trkpt><trkpt lat="44.840240244971206" lon="8.412306549324736"><ele>150.0</ele><time>2026-03-28T15:15:13.001Z</time></trkpt><trkpt lat="44.840293587461666" lon="8.412211421911968"><ele>150.0</ele><time>2026-03-28T15:15:22.001Z</time></trkpt><trkpt lat="44.840383211627234" lon="8.41218587613805"><ele>150.0</ele><time>2026-03-28T15:15:26.001Z</time></trkpt><trkpt lat="44.84045765530589" lon="8.412191299764467"><ele>150.0</ele><time>2026-03-28T15:15:34.001Z</time></trkpt><trkpt lat="44.84051642189163" lon="8.412136313453043"><ele>150.0</ele><time>2026-03-28T15:15:38.001Z</time></trkpt><trkpt lat="44.840558319777564" lon="8.412044498463548"><ele>150.0</ele><time>2026-03-28T15:15:43.001Z</time></trkpt><trkpt lat="44.840609287581515" lon="8.412186550322055"><ele>150.0</ele><time>2026-03-28T15:15:46.001Z</time></trkpt><trkpt lat="44.84065103755681" lon="8.41231395394092"><ele>150.0</ele><time>2026-03-28T15:15:48.001Z</time></trkpt><trkpt lat="44.840732739890846" lon="8.412344137025219"><ele>150.0</ele><time>2026-03-28T15:15:50.001Z</time></trkpt><trkpt lat="44.84082585652598" lon="8.41226343141109"><ele>150.0</ele><time>2026-03-28T15:15:52.001Z</time></trkpt><trkpt lat="44.840906591972356" lon="8.412176832805073"><ele>150.0</ele><time>2026-03-28T15:15:54.001Z</time></trkpt><trkpt lat="44.840976564294785" lon="8.412106017881309"><ele>150.0</ele><time>2026-03-28T15:15:56Z</time></trkpt><trkpt lat="44.84103127040314" lon="8.411989105511225"><ele>153.66666666666666</ele><time>2026-03-28T15:15:58Z</time></trkpt><trkpt lat="44.84107695602336" lon="8.411908262939878"><ele>157.33333333333334</ele><time>2026-03-28T15:16:00Z</time></trkpt><trkpt lat="44.841159457844014" lon="8.41186115678903"><ele>161.0</ele><time>2026-03-28T15:16:02Z</time></trkpt><trkpt lat="44.84125111613155" lon="8.41180224158216"><ele>164.66666666666669</ele><time>2026-03-28T15:16:04Z</time></trkpt><trkpt lat="44.84133193142074" lon="8.41174868030428"><ele>168.33333333333334</ele><time>2026-03-28T15:16:06Z</time></trkpt><trkpt lat="44.841396789747535" lon="8.411725075879701"><ele>172.0</ele><time>2026-03-28T15:16:08Z</time></trkpt><trkpt lat="44.84144941757897" lon="8.411665497393768"><ele>172.0</ele><time>2026-03-28T15:16:11Z</time></trkpt><trkpt lat="44.84150794714827" lon="8.411702655479584"><ele>172.0</ele><time>2026-03-28T15:17:07Z</time></trkpt><trkpt lat="44.84152505841543" lon="8.41161697483843"><ele>172.0</ele><time>2026-03-28T15:17:35.001Z</time></trkpt><trkpt lat="44.84155139741269" lon="8.411482544319586"><ele>172.0</ele><time>2026-03-28T15:17:37.001Z</time></trkpt><trkpt lat="44.841515540019" lon="8.411401929342027"><ele>172.0</ele><time>2026-03-28T15:17:39.001Z</time></trkpt><trkpt lat="44.841403606929454" lon="8.411394109102153"><ele>172.0</ele><time>2026-03-28T15:17:41.001Z</time></trkpt><trkpt lat="44.84129411205651" lon="8.41139109643886"><ele>172.66666666666669</ele><time>2026-03-28T15:17:43.001Z</time></trkpt><trkpt lat="44.841214285952304" lon="8.411317357676513"><ele>173.33333333333334</ele><time>2026-03-28T15:17:45.001Z</time></trkpt><trkpt lat="44.841164702963624" lon="8.411234045960802"><ele>174.0</ele><time>2026-03-28T15:17:46.001Z</time></trkpt><trkpt lat="44.84112193717162" lon="8.411157756962035"><ele>174.66666666666666</ele><time>2026-03-28T15:17:47.001Z</time></trkpt><trkpt lat="44.8410762182912" lon="8.41102960116135"><ele>175.33333333333331</ele><time>2026-03-28T15:17:49.001Z</time></trkpt><trkpt lat="44.84107908993045" lon="8.410894664998517"><ele>176.0</ele><time>2026-03-28T15:17:51.001Z</time></trkpt><trkpt lat="44.841091510187645" lon="8.41074522286337"><ele>176.0</ele><time>2026-03-28T15:17:53.001Z</time></trkpt><trkpt lat="44.841093409615006" lon="8.410578162642796"><ele>176.0</ele><time>2026-03-28T15:17:55.001Z</time></trkpt><trkpt lat="44.84107946223164" lon="8.410480764008375"><ele>176.0</ele><time>2026-03-28T15:17:56.001Z</time></trkpt><trkpt lat="44.84109430594747" lon="8.410361793769216"><ele>176.0</ele><time>2026-03-28T15:17:58.001Z</time></trkpt><trkpt lat="44.84117540686846" lon="8.410296052266457"><ele>176.0</ele><time>2026-03-28T15:18:00.001Z</time></trkpt><trkpt lat="44.84125406344668" lon="8.4102532019459"><ele>175.20000000000002</ele><time>2026-03-28T15:18:02Z</time></trkpt><trkpt lat="44.84131467227692" lon="8.41022842325775"><ele>174.4</ele><time>2026-03-28T15:18:10Z</time></trkpt><trkpt lat="44.84140567938351" lon="8.410217774672542"><ele>173.6</ele><time>2026-03-28T15:18:12Z</time></trkpt><trkpt lat="44.84152644751631" lon="8.410156496980715"><ele>172.8</ele><time>2026-03-28T15:18:14Z</time></trkpt><trkpt lat="44.84160277971599" lon="8.410142788654674"><ele>172.0</ele><time>2026-03-28T15:18:15Z</time></trkpt><trkpt lat="44.84170384382052" lon="8.410119886793495"><ele>172.0</ele><time>2026-03-28T15:18:16Z</time></trkpt><trkpt lat="44.8417792205861" lon="8.410094313563713"><ele>172.0</ele><time>2026-03-28T15:18:17Z</time></trkpt><trkpt lat="44.841856003313" lon="8.410050247740918"><ele>172.0</ele><time>2026-03-28T15:18:18Z</time></trkpt><trkpt lat="44.84193462615004" lon="8.409987052872832"><ele>172.0</ele><time>2026-03-28T15:18:19Z</time></trkpt><trkpt lat="44.84200670539984" lon="8.409927776641828"><ele>172.0</ele><time>2026-03-28T15:18:20Z</time></trkpt><trkpt lat="44.84208319227148" lon="8.409858450582242"><ele>172.0</ele><time>2026-03-28T15:18:21Z</time></trkpt><trkpt lat="44.8421610919078" lon="8.409811734323043"><ele>172.83333333333334</ele><time>2026-03-28T15:18:22Z</time></trkpt><trkpt lat="44.842222261829704" lon="8.409758729867143"><ele>173.66666666666669</ele><time>2026-03-28T15:18:23Z</time></trkpt><trkpt lat="44.84228880203061" lon="8.40972885760294"><ele>174.5</ele><time>2026-03-28T15:18:24Z</time></trkpt><trkpt lat="44.842350435799126" lon="8.40970948422199"><ele>175.33333333333334</ele><time>2026-03-28T15:18:25Z</time></trkpt><trkpt lat="44.84241059172673" lon="8.409645230699493"><ele>176.16666666666666</ele><time>2026-03-28T15:18:29Z</time></trkpt><trkpt lat="44.842347847238045" lon="8.40949544185871"><ele>177.0</ele><time>2026-03-28T15:18:31Z</time></trkpt><trkpt lat="44.84231341303893" lon="8.409389178087736"><ele>177.0</ele><time>2026-03-28T15:18:32Z</time></trkpt><trkpt lat="44.842272999585646" lon="8.409271366617348"><ele>177.0</ele><time>2026-03-28T15:18:33Z</time></trkpt><trkpt lat="44.84224056824866" lon="8.409151416230438"><ele>177.0</ele><time>2026-03-28T15:18:34Z</time></trkpt><trkpt lat="44.84219795772712" lon="8.409027105076701"><ele>177.0</ele><time>2026-03-28T15:18:35Z</time></trkpt><trkpt lat="44.84214720865724" lon="8.408908158648172"><ele>177.0</ele><time>2026-03-28T15:18:36Z</time></trkpt><trkpt lat="44.84209713952558" lon="8.408782483628801"><ele>177.6</ele><time>2026-03-28T15:18:37Z</time></trkpt><trkpt lat="44.84205809617231" lon="8.40864945281886"><ele>178.2</ele><time>2026-03-28T15:18:38Z</time></trkpt><trkpt lat="44.842023628889166" lon="8.40850847522647"><ele>178.8</ele><time>2026-03-28T15:18:39Z</time></trkpt><trkpt lat="44.842002502446604" lon="8.408368526506514"><ele>179.4</ele><time>2026-03-28T15:18:40Z</time></trkpt><trkpt lat="44.84199575556566" lon="8.40822789748929"><ele>180.0</ele><time>2026-03-28T15:18:41Z</time></trkpt><trkpt lat="44.842000260555764" lon="8.408081475232724"><ele>180.2</ele><time>2026-03-28T15:18:42Z</time></trkpt><trkpt lat="44.84199810444971" lon="8.40792574162694"><ele>180.4</ele><time>2026-03-28T15:18:43Z</time></trkpt><trkpt lat="44.8420017997584" lon="8.407760475387144"><ele>180.60000000000002</ele><time>2026-03-28T15:18:44Z</time></trkpt><trkpt lat="44.8420068421991" lon="8.407613581622712"><ele>180.8</ele><time>2026-03-28T15:18:45Z</time></trkpt><trkpt lat="44.84200449424646" lon="8.407477921498302"><ele>181.0</ele><time>2026-03-28T15:18:46Z</time></trkpt><trkpt lat="44.84199577896308" lon="8.407334876972211"><ele>181.0</ele><time>2026-03-28T15:18:47Z</time></trkpt><trkpt lat="44.84195704796824" lon="8.407206045481951"><ele>181.0</ele><time>2026-03-28T15:18:48Z</time></trkpt><trkpt lat="44.84189758363347" lon="8.407081144114088"><ele>181.0</ele><time>2026-03-28T15:18:49Z</time></trkpt><trkpt lat="44.84184386812833" lon="8.406956858489425"><ele>181.0</ele><time>2026-03-28T15:18:50Z</time></trkpt><trkpt lat="44.84179590965306" lon="8.406831843253574"><ele>181.0</ele><time>2026-03-28T15:18:51Z</time></trkpt><trkpt lat="44.841744333795184" lon="8.4067147402877"><ele>181.20000000000002</ele><time>2026-03-28T15:18:52Z</time></trkpt><trkpt lat="44.84169061756239" lon="8.406589907405316"><ele>181.4</ele><time>2026-03-28T15:18:53Z</time></trkpt><trkpt lat="44.84164009012232" lon="8.406466487382131"><ele>181.6</ele><time>2026-03-28T15:18:54Z</time></trkpt><trkpt lat="44.84159060904722" lon="8.406349203180683"><ele>181.8</ele><time>2026-03-28T15:18:55Z</time></trkpt><trkpt lat="44.8415424042127" lon="8.406233164649322"><ele>182.0</ele><time>2026-03-28T15:18:56Z</time></trkpt><trkpt lat="44.84149575207753" lon="8.406113007766223"><ele>182.5</ele><time>2026-03-28T15:18:57Z</time></trkpt><trkpt lat="44.84145200913893" lon="8.405995573396336"><ele>183.0</ele><time>2026-03-28T15:18:58Z</time></trkpt><trkpt lat="44.841412254285466" lon="8.405892449924545"><ele>183.5</ele><time>2026-03-28T15:18:59Z</time></trkpt><trkpt lat="44.84138182276046" lon="8.40579817624598"><ele>184.0</ele><time>2026-03-28T15:19:00Z</time></trkpt><trkpt lat="44.841358549987525" lon="8.405707740694401"><ele>184.5</ele><time>2026-03-28T15:19:01Z</time></trkpt><trkpt lat="44.84135185317829" lon="8.405539698887054"><ele>185.0</ele><time>2026-03-28T15:19:03Z</time></trkpt><trkpt lat="44.84138951264431" lon="8.405460354308547"><ele>184.99999999999997</ele><time>2026-03-28T15:19:04Z</time></trkpt><trkpt lat="44.84144760435403" lon="8.405408277146966"><ele>185.0</ele><time>2026-03-28T15:19:05Z</time></trkpt><trkpt lat="44.84151589353522" lon="8.40538223814214"><ele>185.0</ele><time>2026-03-28T15:19:06Z</time></trkpt><trkpt lat="44.84158067357127" lon="8.405347793036041"><ele>185.0</ele><time>2026-03-28T15:19:07Z</time></trkpt><trkpt lat="44.84164067867984" lon="8.405304673022533"><ele>185.0</ele><time>2026-03-28T15:19:08Z</time></trkpt><trkpt lat="44.8416950434235" lon="8.405259492394693"><ele>184.99999999999997</ele><time>2026-03-28T15:19:09Z</time></trkpt><trkpt lat="44.84175590501286" lon="8.405218892275068"><ele>185.0</ele><time>2026-03-28T15:19:10Z</time></trkpt><trkpt lat="44.841814130278" lon="8.405183130833063"><ele>185.0</ele><time>2026-03-28T15:19:11Z</time></trkpt><trkpt lat="44.84187466289684" lon="8.40514449784581"><ele>185.0</ele><time>2026-03-28T15:19:12Z</time></trkpt><trkpt lat="44.841984906171916" lon="8.40505919095455"><ele>185.0</ele><time>2026-03-28T15:19:14Z</time></trkpt><trkpt lat="44.84203787221449" lon="8.40500556707443"><ele>185.0</ele><time>2026-03-28T15:19:15Z</time></trkpt><trkpt lat="44.84208796005866" lon="8.40493725933706"><ele>185.0</ele><time>2026-03-28T15:19:16Z</time></trkpt><trkpt lat="44.84212929935355" lon="8.404866485492247"><ele>185.0</ele><time>2026-03-28T15:19:17Z</time></trkpt><trkpt lat="44.84221705290447" lon="8.404762972340322"><ele>185.0</ele><time>2026-03-28T15:19:19Z</time></trkpt><trkpt lat="44.84229831792778" lon="8.404726080684002"><ele>185.0</ele><time>2026-03-28T15:19:21Z</time></trkpt><trkpt lat="44.84239604728407" lon="8.404821612135711"><ele>185.0</ele><time>2026-03-28T15:19:23Z</time></trkpt><trkpt lat="44.84245764726928" lon="8.404876766690839"><ele>185.0</ele><time>2026-03-28T15:19:24Z</time></trkpt><trkpt lat="44.84251458131167" lon="8.40492053839376"><ele>185.0</ele><time>2026-03-28T15:19:25Z</time></trkpt><trkpt lat="44.84260610499052" lon="8.404995003385848"><ele>185.0</ele><time>2026-03-28T15:19:27Z</time></trkpt><trkpt lat="44.84267931259767" lon="8.405069191702161"><ele>184.4</ele><time>2026-03-28T15:19:29Z</time></trkpt><trkpt lat="44.84275087141966" lon="8.405025594151097"><ele>183.8</ele><time>2026-03-28T15:19:33Z</time></trkpt><trkpt lat="44.84273070754812" lon="8.404883468736411"><ele>183.2</ele><time>2026-03-28T15:19:35Z</time></trkpt><trkpt lat="44.84269404470298" lon="8.404779547437915"><ele>182.6</ele><time>2026-03-28T15:19:36Z</time></trkpt><trkpt lat="44.84265127822448" lon="8.404665136792156"><ele>182.0</ele><time>2026-03-28T15:19:37Z</time></trkpt><trkpt lat="44.84259620663291" lon="8.40455133990019"><ele>182.0</ele><time>2026-03-28T15:19:38.001Z</time></trkpt><trkpt lat="44.8425434031778" lon="8.404418397877592"><ele>182.0</ele><time>2026-03-28T15:19:39.001Z</time></trkpt><trkpt lat="44.842470922079215" lon="8.404283797048974"><ele>182.0</ele><time>2026-03-28T15:19:40.001Z</time></trkpt><trkpt lat="44.842404623553556" lon="8.404168921759865"><ele>182.0</ele><time>2026-03-28T15:19:41.001Z</time></trkpt><trkpt lat="44.8423480445537" lon="8.404078410191403"><ele>182.0</ele><time>2026-03-28T15:19:42.001Z</time></trkpt><trkpt lat="44.84227637075541" lon="8.404011860279912"><ele>182.0</ele><time>2026-03-28T15:19:43.001Z</time></trkpt><trkpt lat="44.84221241385537" lon="8.403917703046627"><ele>182.0</ele><time>2026-03-28T15:19:44.001Z</time></trkpt><trkpt lat="44.84216446736163" lon="8.40379481065759"><ele>182.0</ele><time>2026-03-28T15:19:45.001Z</time></trkpt><trkpt lat="44.84210206374088" lon="8.403666781739012"><ele>182.0</ele><time>2026-03-28T15:19:46.001Z</time></trkpt><trkpt lat="44.84203779839901" lon="8.403573650946555"><ele>182.0</ele><time>2026-03-28T15:19:47.001Z</time></trkpt><trkpt lat="44.841997506704345" lon="8.403452370837192"><ele>182.16666666666666</ele><time>2026-03-28T15:19:48.001Z</time></trkpt><trkpt lat="44.84193912760607" lon="8.40335160290299"><ele>182.33333333333331</ele><time>2026-03-28T15:19:49.001Z</time></trkpt><trkpt lat="44.84188228742848" lon="8.403274152184128"><ele>182.5</ele><time>2026-03-28T15:19:50.001Z</time></trkpt><trkpt lat="44.84183063118274" lon="8.403216449848294"><ele>182.66666666666666</ele><time>2026-03-28T15:19:51.001Z</time></trkpt><trkpt lat="44.84176959607251" lon="8.403161733891025"><ele>182.83333333333334</ele><time>2026-03-28T15:19:53.001Z</time></trkpt><trkpt lat="44.841753036760046" lon="8.403051278278616"><ele>183.0</ele><time>2026-03-28T15:20:04.001Z</time></trkpt><trkpt lat="44.841784711112226" lon="8.402910074374832"><ele>180.4</ele><time>2026-03-28T15:20:06.001Z</time></trkpt><trkpt lat="44.84181495044035" lon="8.402806846920301"><ele>177.8</ele><time>2026-03-28T15:20:07Z</time></trkpt><trkpt lat="44.84185219118875" lon="8.402672464077854"><ele>175.2</ele><time>2026-03-28T15:20:08Z</time></trkpt><trkpt lat="44.841907204691914" lon="8.402547940700703"><ele>172.6</ele><time>2026-03-28T15:20:09Z</time></trkpt><trkpt lat="44.84195751237316" lon="8.402428315248264"><ele>170.0</ele><time>2026-03-28T15:20:10Z</time></trkpt><trkpt lat="44.84201897591352" lon="8.402334138813208"><ele>170.0</ele><time>2026-03-28T15:20:11Z</time></trkpt><trkpt lat="44.84207447794229" lon="8.40226172330307"><ele>170.0</ele><time>2026-03-28T15:20:12Z</time></trkpt><trkpt lat="44.84211569017441" lon="8.40218980861104"><ele>170.0</ele><time>2026-03-28T15:20:13Z</time></trkpt><trkpt lat="44.84216985894545" lon="8.402136182124206"><ele>170.0</ele><time>2026-03-28T15:20:14Z</time></trkpt><trkpt lat="44.84223178306436" lon="8.402108981235752"><ele>170.0</ele><time>2026-03-28T15:20:15Z</time></trkpt><trkpt lat="44.84230043846395" lon="8.402088281089764"><ele>170.0</ele><time>2026-03-28T15:20:16Z</time></trkpt><trkpt lat="44.84237928761333" lon="8.402067637959817"><ele>170.0</ele><time>2026-03-28T15:20:17Z</time></trkpt><trkpt lat="44.842461107036556" lon="8.402043204506228"><ele>169.5</ele><time>2026-03-28T15:20:18Z</time></trkpt><trkpt lat="44.84254958056685" lon="8.401983173789585"><ele>169.0</ele><time>2026-03-28T15:20:20Z</time></trkpt><trkpt lat="44.842599469065625" lon="8.401921403991311"><ele>168.5</ele><time>2026-03-28T15:20:30Z</time></trkpt><trkpt lat="44.84267884439126" lon="8.401808036067207"><ele>168.0</ele><time>2026-03-28T15:20:32Z</time></trkpt><trkpt lat="44.84274172526184" lon="8.40172760020477"><ele>167.5</ele><time>2026-03-28T15:20:33Z</time></trkpt><trkpt lat="44.84278799492914" lon="8.40164757472599"><ele>167.0</ele><time>2026-03-28T15:20:34Z</time></trkpt><trkpt lat="44.842846534459355" lon="8.401568872840345"><ele>165.66666666666666</ele><time>2026-03-28T15:20:35Z</time></trkpt><trkpt lat="44.84293166765536" lon="8.401512143336005"><ele>164.33333333333331</ele><time>2026-03-28T15:20:36Z</time></trkpt><trkpt lat="44.843026038826956" lon="8.401469857821526"><ele>163.0</ele><time>2026-03-28T15:20:37Z</time></trkpt><trkpt lat="44.84310297321105" lon="8.401424903133938"><ele>161.66666666666666</ele><time>2026-03-28T15:20:38Z</time></trkpt><trkpt lat="44.84318137186247" lon="8.401408223924399"><ele>160.33333333333334</ele><time>2026-03-28T15:20:39Z</time></trkpt><trkpt lat="44.84326434365008" lon="8.40138327305501"><ele>159.0</ele><time>2026-03-28T15:20:40Z</time></trkpt><trkpt lat="44.84333945999592" lon="8.40138218989045"><ele>159.0</ele><time>2026-03-28T15:20:41Z</time></trkpt><trkpt lat="44.843422466669935" lon="8.4014007072603"><ele>159.0</ele><time>2026-03-28T15:20:42Z</time></trkpt><trkpt lat="44.84348944335195" lon="8.401397579035729"><ele>159.0</ele><time>2026-03-28T15:20:43Z</time></trkpt><trkpt lat="44.84356396511227" lon="8.40141278080393"><ele>159.0</ele><time>2026-03-28T15:20:44Z</time></trkpt><trkpt lat="44.843626877923484" lon="8.401464776979644"><ele>159.0</ele><time>2026-03-28T15:20:45Z</time></trkpt><trkpt lat="44.84369712122682" lon="8.401556212989277"><ele>159.0</ele><time>2026-03-28T15:20:46Z</time></trkpt><trkpt lat="44.843763048380616" lon="8.401626909626705"><ele>156.6</ele><time>2026-03-28T15:20:47Z</time></trkpt><trkpt lat="44.843837841231284" lon="8.401743879215573"><ele>154.2</ele><time>2026-03-28T15:20:49Z</time></trkpt><trkpt lat="44.84378615942576" lon="8.401913433426474"><ele>151.79999999999998</ele><time>2026-03-28T15:20:51Z</time></trkpt><trkpt lat="44.843740736110874" lon="8.40198638095826"><ele>149.4</ele><time>2026-03-28T15:20:52Z</time></trkpt><trkpt lat="44.843682376921" lon="8.402124321068472"><ele>147.0</ele><time>2026-03-28T15:20:53Z</time></trkpt><trkpt lat="44.84363060914977" lon="8.402263270550582"><ele>147.0</ele><time>2026-03-28T15:20:54Z</time></trkpt><trkpt lat="44.84357493249955" lon="8.402353779223288"><ele>147.0</ele><time>2026-03-28T15:20:55Z</time></trkpt><trkpt lat="44.84353964735144" lon="8.402456267637175"><ele>147.0</ele><time>2026-03-28T15:20:56Z</time></trkpt><trkpt lat="44.8435608332224" lon="8.402593827716878"><ele>147.0</ele><time>2026-03-28T15:20:58Z</time></trkpt><trkpt lat="44.84363476533022" lon="8.402658629114798"><ele>147.0</ele><time>2026-03-28T15:20:59Z</time></trkpt><trkpt lat="44.843693855482094" lon="8.40262656032564"><ele>147.0</ele><time>2026-03-28T15:21:00Z</time></trkpt><trkpt lat="44.84373961124125" lon="8.402553773537043"><ele>147.0</ele><time>2026-03-28T15:21:01Z</time></trkpt><trkpt lat="44.843785712192464" lon="8.402481867053318"><ele>147.0</ele><time>2026-03-28T15:21:02Z</time></trkpt><trkpt lat="44.84384774576693" lon="8.402385524785485"><ele>147.0</ele><time>2026-03-28T15:21:03Z</time></trkpt><trkpt lat="44.84390399527153" lon="8.402273730906252"><ele>147.0</ele><time>2026-03-28T15:21:04Z</time></trkpt><trkpt lat="44.84400342560119" lon="8.402171201278515"><ele>147.0</ele><time>2026-03-28T15:21:05Z</time></trkpt><trkpt lat="44.844092288007786" lon="8.402110904326262"><ele>145.4</ele><time>2026-03-28T15:21:06Z</time></trkpt><trkpt lat="44.84418906417118" lon="8.402043573836812"><ele>143.79999999999998</ele><time>2026-03-28T15:21:07Z</time></trkpt><trkpt lat="44.84427541451617" lon="8.401959097736613"><ele>142.2</ele><time>2026-03-28T15:21:08Z</time></trkpt><trkpt lat="44.844357853016476" lon="8.40188205600343"><ele>140.6</ele><time>2026-03-28T15:21:09Z</time></trkpt><trkpt lat="44.84444448377651" lon="8.401796300818457"><ele>139.0</ele><time>2026-03-28T15:21:10Z</time></trkpt><trkpt lat="44.84451327600084" lon="8.401690666120238"><ele>138.0</ele><time>2026-03-28T15:21:11Z</time></trkpt><trkpt lat="44.84457591913595" lon="8.40155168938033"><ele>137.0</ele><time>2026-03-28T15:21:12Z</time></trkpt><trkpt lat="44.84462808098993" lon="8.401424565989455"><ele>136.0</ele><time>2026-03-28T15:21:13Z</time></trkpt><trkpt lat="44.84466966747112" lon="8.401331941281759"><ele>135.0</ele><time>2026-03-28T15:21:14Z</time></trkpt><trkpt lat="44.84472684042675" lon="8.401261296293749"><ele>134.0</ele><time>2026-03-28T15:21:15Z</time></trkpt><trkpt lat="44.844844478255574" lon="8.401196527485736"><ele>131.16666666666666</ele><time>2026-03-28T15:21:17Z</time></trkpt><trkpt lat="44.844911961497054" lon="8.401178524748776"><ele>128.33333333333331</ele><time>2026-03-28T15:21:18Z</time></trkpt><trkpt lat="44.84497497612048" lon="8.401146559040756"><ele>125.5</ele><time>2026-03-28T15:21:19Z</time></trkpt><trkpt lat="44.84504336420432" lon="8.40113024113547"><ele>122.66666666666666</ele><time>2026-03-28T15:21:20Z</time></trkpt><trkpt lat="44.84512438220074" lon="8.4011280773658"><ele>119.83333333333333</ele><time>2026-03-28T15:21:21Z</time></trkpt><trkpt lat="44.84521693638856" lon="8.401158696615811"><ele>117.0</ele><time>2026-03-28T15:21:22Z</time></trkpt><trkpt lat="44.8453097823228" lon="8.40122653603952"><ele>116.25</ele><time>2026-03-28T15:21:23Z</time></trkpt><trkpt lat="44.84541505118221" lon="8.401311082938834"><ele>115.5</ele><time>2026-03-28T15:21:24Z</time></trkpt><trkpt lat="44.84550677964328" lon="8.401415888212291"><ele>114.75</ele><time>2026-03-28T15:21:25Z</time></trkpt><trkpt lat="44.84560543518412" lon="8.401533521991468"><ele>114.0</ele><time>2026-03-28T15:21:26Z</time></trkpt><trkpt lat="44.84569984742519" lon="8.40164159249637"><ele>114.2</ele><time>2026-03-28T15:21:27Z</time></trkpt><trkpt lat="44.84579554525176" lon="8.401740796326932"><ele>114.4</ele><time>2026-03-28T15:21:28Z</time></trkpt><trkpt lat="44.845887430363526" lon="8.401819797470468"><ele>114.6</ele><time>2026-03-28T15:21:29Z</time></trkpt><trkpt lat="44.84598161918642" lon="8.40189141629691"><ele>114.8</ele><time>2026-03-28T15:21:30Z</time></trkpt><trkpt lat="44.846085082333964" lon="8.40194433953372"><ele>115.0</ele><time>2026-03-28T15:21:31Z</time></trkpt><trkpt lat="44.84618413493455" lon="8.40197665453237"><ele>115.0</ele><time>2026-03-28T15:21:32Z</time></trkpt><trkpt lat="44.846264280975035" lon="8.40202597048376"><ele>115.0</ele><time>2026-03-28T15:21:33Z</time></trkpt><trkpt lat="44.84633298418833" lon="8.402064224839334"><ele>115.0</ele><time>2026-03-28T15:21:34Z</time></trkpt><trkpt lat="44.8464246523205" lon="8.402065447578156"><ele>115.0</ele><time>2026-03-28T15:21:35Z</time></trkpt><trkpt lat="44.846548195160466" lon="8.402150010317031"><ele>115.0</ele><time>2026-03-28T15:21:37Z</time></trkpt><trkpt lat="44.84662277074145" lon="8.40222957708636"><ele>115.25</ele><time>2026-03-28T15:21:38.001Z</time></trkpt><trkpt lat="44.84671559498259" lon="8.402316218930165"><ele>115.5</ele><time>2026-03-28T15:21:39.001Z</time></trkpt><trkpt lat="44.8468159668187" lon="8.402398584022396"><ele>115.75</ele><time>2026-03-28T15:21:40.001Z</time></trkpt><trkpt lat="44.846918534625175" lon="8.402480185381293"><ele>116.0</ele><time>2026-03-28T15:21:41.001Z</time></trkpt><trkpt lat="44.84702766260834" lon="8.402557270748765"><ele>116.0</ele><time>2026-03-28T15:21:42.001Z</time></trkpt><trkpt lat="44.84713905765623" lon="8.402643983143077"><ele>116.0</ele><time>2026-03-28T15:21:43.001Z</time></trkpt><trkpt lat="44.847237038284455" lon="8.402732669197041"><ele>116.0</ele><time>2026-03-28T15:21:44.001Z</time></trkpt><trkpt lat="44.847318922345494" lon="8.402836302896603"><ele>116.0</ele><time>2026-03-28T15:21:45.001Z</time></trkpt><trkpt lat="44.84740708692861" lon="8.4029455460207"><ele>116.5</ele><time>2026-03-28T15:21:46.001Z</time></trkpt><trkpt lat="44.847499187878114" lon="8.403053044585997"><ele>117.0</ele><time>2026-03-28T15:21:47.001Z</time></trkpt><trkpt lat="44.84759582041732" lon="8.403167621334207"><ele>117.5</ele><time>2026-03-28T15:21:48.001Z</time></trkpt><trkpt lat="44.84769598249924" lon="8.403297633039058"><ele>118.0</ele><time>2026-03-28T15:21:49.001Z</time></trkpt><trkpt lat="44.847785855923654" lon="8.40343091971462"><ele>118.0</ele><time>2026-03-28T15:21:50.001Z</time></trkpt><trkpt lat="44.84785553877552" lon="8.403556104690578"><ele>118.0</ele><time>2026-03-28T15:21:51.001Z</time></trkpt><trkpt lat="44.84794340630986" lon="8.403694480993657"><ele>118.0</ele><time>2026-03-28T15:21:52.001Z</time></trkpt><trkpt lat="44.848045663041056" lon="8.403820671127832"><ele>118.0</ele><time>2026-03-28T15:21:53.001Z</time></trkpt><trkpt lat="44.84813675171861" lon="8.403936322884343"><ele>118.4</ele><time>2026-03-28T15:21:54.001Z</time></trkpt><trkpt lat="44.84822758585615" lon="8.404057759292183"><ele>118.80000000000001</ele><time>2026-03-28T15:21:55.001Z</time></trkpt><trkpt lat="44.84830249992448" lon="8.404151121321185"><ele>119.2</ele><time>2026-03-28T15:21:56.001Z</time></trkpt><trkpt lat="44.848381245862186" lon="8.404236226411465"><ele>119.6</ele><time>2026-03-28T15:21:57.001Z</time></trkpt><trkpt lat="44.84844306463066" lon="8.404290309243931"><ele>120.0</ele><time>2026-03-28T15:21:58.001Z</time></trkpt><trkpt lat="44.848508735503" lon="8.404323941474903"><ele>119.33333333333333</ele><time>2026-03-28T15:21:59.001Z</time></trkpt><trkpt lat="44.848572202120785" lon="8.404377983407326"><ele>118.66666666666666</ele><time>2026-03-28T15:22:00.001Z</time></trkpt><trkpt lat="44.84863637520951" lon="8.404455490527727"><ele>118.0</ele><time>2026-03-28T15:22:01.001Z</time></trkpt><trkpt lat="44.848701132835295" lon="8.40450443847884"><ele>117.33333333333333</ele><time>2026-03-28T15:22:02.001Z</time></trkpt><trkpt lat="44.8488003954664" lon="8.404574617784139"><ele>116.66666666666666</ele><time>2026-03-28T15:22:04.001Z</time></trkpt><trkpt lat="44.848848737762104" lon="8.404642539050728"><ele>116.0</ele><time>2026-03-28T15:22:05.001Z</time></trkpt><trkpt lat="44.848916514200106" lon="8.404738996545772"><ele>116.0</ele><time>2026-03-28T15:22:06.001Z</time></trkpt><trkpt lat="44.8489629588171" lon="8.404858513986278"><ele>116.0</ele><time>2026-03-28T15:22:07.001Z</time></trkpt><trkpt lat="44.84900253286628" lon="8.404973956553905"><ele>116.0</ele><time>2026-03-28T15:22:08.001Z</time></trkpt><trkpt lat="44.84901108204502" lon="8.405083212530707"><ele>116.0</ele><time>2026-03-28T15:22:09.001Z</time></trkpt><trkpt lat="44.84901670000712" lon="8.405195654802757"><ele>116.0</ele><time>2026-03-28T15:22:10.001Z</time></trkpt><trkpt lat="44.849049362246255" lon="8.405335950109336"><ele>116.0</ele><time>2026-03-28T15:22:11.001Z</time></trkpt><trkpt lat="44.84909188053537" lon="8.405486529335175"><ele>116.0</ele><time>2026-03-28T15:22:12.001Z</time></trkpt><trkpt lat="44.8491416332907" lon="8.405607605074017"><ele>116.0</ele><time>2026-03-28T15:22:13Z</time></trkpt><trkpt lat="44.849204117593544" lon="8.405719546961121"><ele>116.0</ele><time>2026-03-28T15:22:14Z</time></trkpt><trkpt lat="44.84924846981405" lon="8.40581391856917"><ele>116.0</ele><time>2026-03-28T15:22:15Z</time></trkpt><trkpt lat="44.84930632589476" lon="8.405928119412529"><ele>115.8</ele><time>2026-03-28T15:22:16Z</time></trkpt><trkpt lat="44.849374100165164" lon="8.40605869793741"><ele>115.6</ele><time>2026-03-28T15:22:17Z</time></trkpt><trkpt lat="44.849438993825736" lon="8.406174201344305"><ele>115.4</ele><time>2026-03-28T15:22:18Z</time></trkpt><trkpt lat="44.84949457697591" lon="8.406306597299503"><ele>115.2</ele><time>2026-03-28T15:22:19Z</time></trkpt><trkpt lat="44.84953749263641" lon="8.406394294318472"><ele>115.0</ele><time>2026-03-28T15:22:20Z</time></trkpt><trkpt lat="44.849608651789026" lon="8.406548681257991"><ele>114.6</ele><time>2026-03-28T15:22:22Z</time></trkpt><trkpt lat="44.84965235495174" lon="8.406664562497632"><ele>114.2</ele><time>2026-03-28T15:22:23Z</time></trkpt><trkpt lat="44.84970405329094" lon="8.406765666328576"><ele>113.80000000000001</ele><time>2026-03-28T15:22:24Z</time></trkpt><trkpt lat="44.84977944542646" lon="8.406861148266561"><ele>113.4</ele><time>2026-03-28T15:22:25Z</time></trkpt><trkpt lat="44.84985373172359" lon="8.40691946503647"><ele>113.0</ele><time>2026-03-28T15:22:26Z</time></trkpt><trkpt lat="44.84997096028307" lon="8.407009232630742"><ele>113.0</ele><time>2026-03-28T15:22:28Z</time></trkpt><trkpt lat="44.8500463248311" lon="8.407074650262263"><ele>113.00000000000001</ele><time>2026-03-28T15:22:29Z</time></trkpt><trkpt lat="44.850109851008746" lon="8.40712845931686"><ele>113.00000000000001</ele><time>2026-03-28T15:22:30Z</time></trkpt><trkpt lat="44.85019806289653" lon="8.407240183734888"><ele>113.0</ele><time>2026-03-28T15:22:32Z</time></trkpt><trkpt lat="44.850265963748534" lon="8.407328104083541"><ele>113.0</ele><time>2026-03-28T15:22:34Z</time></trkpt><trkpt lat="44.85032619035114" lon="8.407398375930505"><ele>114.0</ele><time>2026-03-28T15:22:35Z</time></trkpt><trkpt lat="44.850437519149374" lon="8.407514485117266"><ele>115.00000000000001</ele><time>2026-03-28T15:22:37Z</time></trkpt><trkpt lat="44.85049171050369" lon="8.407571760620337"><ele>116.00000000000001</ele><time>2026-03-28T15:22:38Z</time></trkpt><trkpt lat="44.85057747113571" lon="8.407655047511593"><ele>117.0</ele><time>2026-03-28T15:22:40Z</time></trkpt><trkpt lat="44.85062137756042" lon="8.407732455492786"><ele>118.0</ele><time>2026-03-28T15:22:41Z</time></trkpt><trkpt lat="44.85071863185247" lon="8.407849378074372"><ele>118.0</ele><time>2026-03-28T15:22:43Z</time></trkpt><trkpt lat="44.85078708778916" lon="8.407904137695377"><ele>118.00000000000001</ele><time>2026-03-28T15:22:44Z</time></trkpt><trkpt lat="44.85086699848006" lon="8.40796808162694"><ele>118.00000000000001</ele><time>2026-03-28T15:22:45Z</time></trkpt><trkpt lat="44.85095377395035" lon="8.4080299483458"><ele>118.0</ele><time>2026-03-28T15:22:46Z</time></trkpt><trkpt lat="44.85104406015296" lon="8.408083213917491"><ele>118.0</ele><time>2026-03-28T15:22:47Z</time></trkpt><trkpt lat="44.85114734313679" lon="8.408127932293075"><ele>116.75</ele><time>2026-03-28T15:22:48Z</time></trkpt><trkpt lat="44.85125731880462" lon="8.408185276499358"><ele>115.5</ele><time>2026-03-28T15:22:49Z</time></trkpt><trkpt lat="44.85136515993523" lon="8.408248301117712"><ele>114.25</ele><time>2026-03-28T15:22:50Z</time></trkpt><trkpt lat="44.85148173000248" lon="8.408339876629144"><ele>113.0</ele><time>2026-03-28T15:22:51Z</time></trkpt><trkpt lat="44.85159761383703" lon="8.40843767799682"><ele>113.0</ele><time>2026-03-28T15:22:52Z</time></trkpt><trkpt lat="44.85171710631692" lon="8.408522985869666"><ele>113.0</ele><time>2026-03-28T15:22:53Z</time></trkpt><trkpt lat="44.8518421891025" lon="8.408622219440758"><ele>113.0</ele><time>2026-03-28T15:22:54Z</time></trkpt><trkpt lat="44.85196136923925" lon="8.40872725516013"><ele>113.0</ele><time>2026-03-28T15:22:55Z</time></trkpt><trkpt lat="44.852077572571275" lon="8.4088212321864"><ele>113.0</ele><time>2026-03-28T15:22:56Z</time></trkpt><trkpt lat="44.852196692661224" lon="8.408909867129275"><ele>113.0</ele><time>2026-03-28T15:22:57Z</time></trkpt><trkpt lat="44.8523055014666" lon="8.408983525846459"><ele>113.0</ele><time>2026-03-28T15:22:58Z</time></trkpt><trkpt lat="44.8524246931186" lon="8.409056583642867"><ele>113.0</ele><time>2026-03-28T15:22:59Z</time></trkpt><trkpt lat="44.85254393564752" lon="8.409119595590486"><ele>112.60000000000001</ele><time>2026-03-28T15:23:00Z</time></trkpt><trkpt lat="44.85264766982904" lon="8.409178469193643"><ele>112.20000000000002</ele><time>2026-03-28T15:23:01Z</time></trkpt><trkpt lat="44.852736074383266" lon="8.409246615485058"><ele>111.8</ele><time>2026-03-28T15:23:02Z</time></trkpt><trkpt lat="44.85280550380639" lon="8.409305809246803"><ele>111.4</ele><time>2026-03-28T15:23:03Z</time></trkpt><trkpt lat="44.85286106962161" lon="8.409392880906418"><ele>111.0</ele><time>2026-03-28T15:23:04Z</time></trkpt><trkpt lat="44.852917270248504" lon="8.409481282397874"><ele>111.0</ele><time>2026-03-28T15:23:05Z</time></trkpt><trkpt lat="44.85300278242728" lon="8.409553494761393"><ele>111.0</ele><time>2026-03-28T15:23:06Z</time></trkpt><trkpt lat="44.85309077271726" lon="8.409632224567098"><ele>111.0</ele><time>2026-03-28T15:23:07Z</time></trkpt><trkpt lat="44.853153462501474" lon="8.409681838777638"><ele>111.0</ele><time>2026-03-28T15:23:08Z</time></trkpt><trkpt lat="44.853225272148414" lon="8.40976036840529"><ele>111.0</ele><time>2026-03-28T15:23:09Z</time></trkpt><trkpt lat="44.85328448948395" lon="8.409807669659257"><ele>111.0</ele><time>2026-03-28T15:23:10Z</time></trkpt><trkpt lat="44.853378555855095" lon="8.409845709273917"><ele>110.8</ele><time>2026-03-28T15:23:12Z</time></trkpt><trkpt lat="44.85349227491689" lon="8.409930852920011"><ele>110.6</ele><time>2026-03-28T15:23:14Z</time></trkpt><trkpt lat="44.85356647046524" lon="8.409986826649162"><ele>110.4</ele><time>2026-03-28T15:23:15Z</time></trkpt><trkpt lat="44.85364975929826" lon="8.410046282738621"><ele>110.2</ele><time>2026-03-28T15:23:16Z</time></trkpt><trkpt lat="44.85373423559484" lon="8.410101238827666"><ele>110.0</ele><time>2026-03-28T15:23:17Z</time></trkpt><trkpt lat="44.853822105795786" lon="8.410162071815487"><ele>110.0</ele><time>2026-03-28T15:23:18Z</time></trkpt><trkpt lat="44.853918020723434" lon="8.410214553752565"><ele>110.0</ele><time>2026-03-28T15:23:19Z</time></trkpt><trkpt lat="44.85401976458017" lon="8.410290303055255"><ele>110.0</ele><time>2026-03-28T15:23:20Z</time></trkpt><trkpt lat="44.85412909842115" lon="8.410372476564948"><ele>110.0</ele><time>2026-03-28T15:23:21Z</time></trkpt><trkpt lat="44.854235594519295" lon="8.410452945533889"><ele>111.0</ele><time>2026-03-28T15:23:22Z</time></trkpt><trkpt lat="44.85433547888401" lon="8.41052300682836"><ele>112.0</ele><time>2026-03-28T15:23:23Z</time></trkpt><trkpt lat="44.85443860948958" lon="8.410594835002563"><ele>113.0</ele><time>2026-03-28T15:23:24Z</time></trkpt><trkpt lat="44.85454522095357" lon="8.410665623918103"><ele>114.0</ele><time>2026-03-28T15:23:25Z</time></trkpt><trkpt lat="44.85465008659856" lon="8.41073883854294"><ele>114.0</ele><time>2026-03-28T15:23:26Z</time></trkpt><trkpt lat="44.85475642078503" lon="8.410833938329494"><ele>114.0</ele><time>2026-03-28T15:23:27Z</time></trkpt><trkpt lat="44.85484459792168" lon="8.41095889285008"><ele>114.0</ele><time>2026-03-28T15:23:28Z</time></trkpt><trkpt lat="44.8549292549079" lon="8.411114201198124"><ele>114.0</ele><time>2026-03-28T15:23:29Z</time></trkpt><trkpt lat="44.85501385710504" lon="8.411260765390189"><ele>114.0</ele><time>2026-03-28T15:23:30Z</time></trkpt><trkpt lat="44.855087439232534" lon="8.411424806404636"><ele>114.0</ele><time>2026-03-28T15:23:31Z</time></trkpt><trkpt lat="44.85517201257415" lon="8.411593536416747"><ele>114.0</ele><time>2026-03-28T15:23:32Z</time></trkpt><trkpt lat="44.85524919327886" lon="8.411744733933805"><ele>114.0</ele><time>2026-03-28T15:23:33Z</time></trkpt><trkpt lat="44.85532542036033" lon="8.411893129694931"><ele>112.75</ele><time>2026-03-28T15:23:34Z</time></trkpt><trkpt lat="44.855404727032614" lon="8.412039229342916"><ele>111.5</ele><time>2026-03-28T15:23:35Z</time></trkpt><trkpt lat="44.85548274528923" lon="8.412159514240411"><ele>110.25</ele><time>2026-03-28T15:23:36Z</time></trkpt><trkpt lat="44.85556177242372" lon="8.412308099672185"><ele>109.0</ele><time>2026-03-28T15:23:37Z</time></trkpt><trkpt lat="44.85563125145608" lon="8.412458222838506"><ele>109.0</ele><time>2026-03-28T15:23:38Z</time></trkpt><trkpt lat="44.855693933954726" lon="8.4125900039246"><ele>109.0</ele><time>2026-03-28T15:23:39Z</time></trkpt><trkpt lat="44.85576966964867" lon="8.412735146860454"><ele>109.0</ele><time>2026-03-28T15:23:40Z</time></trkpt><trkpt lat="44.855838800271414" lon="8.412873013307284"><ele>109.0</ele><time>2026-03-28T15:23:41Z</time></trkpt><trkpt lat="44.85593228620734" lon="8.412989825832776"><ele>108.25</ele><time>2026-03-28T15:23:42Z</time></trkpt><trkpt lat="44.856011234308475" lon="8.41311554448766"><ele>107.5</ele><time>2026-03-28T15:23:43Z</time></trkpt><trkpt lat="44.85608054951234" lon="8.41322731122134"><ele>106.75</ele><time>2026-03-28T15:23:44Z</time></trkpt><trkpt lat="44.85616324882066" lon="8.413362553393851"><ele>106.0</ele><time>2026-03-28T15:23:45Z</time></trkpt><trkpt lat="44.85624574002008" lon="8.413502336771094"><ele>106.0</ele><time>2026-03-28T15:23:46Z</time></trkpt><trkpt lat="44.85632506602381" lon="8.41362958890843"><ele>106.0</ele><time>2026-03-28T15:23:47Z</time></trkpt><trkpt lat="44.856402057116554" lon="8.413763162413703"><ele>106.0</ele><time>2026-03-28T15:23:48Z</time></trkpt><trkpt lat="44.85648648022327" lon="8.413870544448468"><ele>106.0</ele><time>2026-03-28T15:23:49Z</time></trkpt><trkpt lat="44.85656844866808" lon="8.41396586389771"><ele>106.0</ele><time>2026-03-28T15:23:50.001Z</time></trkpt><trkpt lat="44.85664483240066" lon="8.414025056762714"><ele>106.0</ele><time>2026-03-28T15:23:51.001Z</time></trkpt><trkpt lat="44.85673045799561" lon="8.414065139075115"><ele>106.0</ele><time>2026-03-28T15:23:52.001Z</time></trkpt><trkpt lat="44.85682420096674" lon="8.414088177406809"><ele>106.0</ele><time>2026-03-28T15:23:53.001Z</time></trkpt><trkpt lat="44.85690870380303" lon="8.414123054716743"><ele>106.0</ele><time>2026-03-28T15:23:54.001Z</time></trkpt><trkpt lat="44.85699464157949" lon="8.41419248499663"><ele>106.0</ele><time>2026-03-28T15:23:55.001Z</time></trkpt><trkpt lat="44.857058556636865" lon="8.41431095058731"><ele>106.0</ele><time>2026-03-28T15:23:56.001Z</time></trkpt><trkpt lat="44.85713371365083" lon="8.414432136979864"><ele>106.0</ele><time>2026-03-28T15:23:57.001Z</time></trkpt><trkpt lat="44.857218045874724" lon="8.41456258815543"><ele>106.0</ele><time>2026-03-28T15:23:58.001Z</time></trkpt><trkpt lat="44.85729969630378" lon="8.414665530195759"><ele>106.50000000000001</ele><time>2026-03-28T15:23:59.001Z</time></trkpt><trkpt lat="44.85735331903238" lon="8.41476040815081"><ele>107.0</ele><time>2026-03-28T15:24:00.001Z</time></trkpt><trkpt lat="44.85739856151555" lon="8.414835361795742"><ele>107.5</ele><time>2026-03-28T15:24:01.001Z</time></trkpt><trkpt lat="44.85744556782891" lon="8.41490943971878"><ele>108.0</ele><time>2026-03-28T15:24:03.001Z</time></trkpt><trkpt lat="44.85745718997829" lon="8.41500492763941"><ele>108.50000000000001</ele><time>2026-03-28T15:24:08.001Z</time></trkpt><trkpt lat="44.85756372896421" lon="8.41503345089303"><ele>109.0</ele><time>2026-03-28T15:24:09.001Z</time></trkpt><trkpt lat="44.857665215242264" lon="8.415075758363914"><ele>109.00000000000001</ele><time>2026-03-28T15:24:11.001Z</time></trkpt><trkpt lat="44.857755805820304" lon="8.415116539987414"><ele>109.0</ele><time>2026-03-28T15:24:13.001Z</time></trkpt><trkpt lat="44.857821425839184" lon="8.415146080502677"><ele>109.0</ele><time>2026-03-28T15:24:14.001Z</time></trkpt><trkpt lat="44.85789185926177" lon="8.415176774092231"><ele>109.0</ele><time>2026-03-28T15:24:15.001Z</time></trkpt><trkpt lat="44.85797126587503" lon="8.415210727253937"><ele>109.00000000000001</ele><time>2026-03-28T15:24:16.001Z</time></trkpt><trkpt lat="44.858056435430115" lon="8.41524278784953"><ele>109.0</ele><time>2026-03-28T15:24:17.001Z</time></trkpt><trkpt lat="44.858159869619755" lon="8.415278495801415"><ele>109.0</ele><time>2026-03-28T15:24:18.001Z</time></trkpt><trkpt lat="44.858266392669634" lon="8.415327834534528"><ele>109.0</ele><time>2026-03-28T15:24:19Z</time></trkpt><trkpt lat="44.85833012512183" lon="8.415307516393183"><ele>109.0</ele><time>2026-03-28T15:24:21Z</time></trkpt><trkpt lat="44.85860442109129" lon="8.416217396084516"><ele>110.0</ele><time>2026-03-28T15:24:28Z</time></trkpt><trkpt lat="44.85868172519089" lon="8.416322688611842"><ele>111.0</ele><time>2026-03-28T15:24:29Z</time></trkpt><trkpt lat="44.85878106473114" lon="8.416413241779233"><ele>112.0</ele><time>2026-03-28T15:24:30Z</time></trkpt><trkpt lat="44.85887301742803" lon="8.416498647270005"><ele>113.0</ele><time>2026-03-28T15:24:31Z</time></trkpt><trkpt lat="44.858959258435725" lon="8.416585719321416"><ele>114.0</ele><time>2026-03-28T15:24:32Z</time></trkpt><trkpt lat="44.85901027428597" lon="8.416650493521754"><ele>114.0</ele><time>2026-03-28T15:24:33Z</time></trkpt><trkpt lat="44.85901305376208" lon="8.416743250879302"><ele>114.0</ele><time>2026-03-28T15:24:34Z</time></trkpt><trkpt lat="44.85904460807239" lon="8.416830716996982"><ele>114.0</ele><time>2026-03-28T15:24:35Z</time></trkpt><trkpt lat="44.85909911104503" lon="8.416922747661456"><ele>114.0</ele><time>2026-03-28T15:24:36Z</time></trkpt><trkpt lat="44.8591740584219" lon="8.416986755829818"><ele>114.0</ele><time>2026-03-28T15:24:37Z</time></trkpt><trkpt lat="44.8592592645162" lon="8.417033626372088"><ele>114.0</ele><time>2026-03-28T15:24:38Z</time></trkpt><trkpt lat="44.85935290883694" lon="8.41709009120638"><ele>113.80000000000001</ele><time>2026-03-28T15:24:39Z</time></trkpt><trkpt lat="44.859444654331725" lon="8.417157023551962"><ele>113.60000000000001</ele><time>2026-03-28T15:24:40Z</time></trkpt><trkpt lat="44.859521140907056" lon="8.417212248092873"><ele>113.4</ele><time>2026-03-28T15:24:41Z</time></trkpt><trkpt lat="44.859610634427646" lon="8.417293844318941"><ele>113.2</ele><time>2026-03-28T15:24:42Z</time></trkpt><trkpt lat="44.85969196557907" lon="8.417355235415721"><ele>113.0</ele><time>2026-03-28T15:24:43Z</time></trkpt><trkpt lat="44.85976680912684" lon="8.417426128246477"><ele>113.0</ele><time>2026-03-28T15:24:44Z</time></trkpt><trkpt lat="44.859892469385244" lon="8.417480525826848"><ele>113.00000000000001</ele><time>2026-03-28T15:24:45Z</time></trkpt><trkpt lat="44.85998833839292" lon="8.41751023022201"><ele>113.00000000000001</ele><time>2026-03-28T15:24:46Z</time></trkpt><trkpt lat="44.860114524032376" lon="8.417527753934078"><ele>113.0</ele><time>2026-03-28T15:24:47Z</time></trkpt><trkpt lat="44.860180782966836" lon="8.417597909775997"><ele>113.0</ele><time>2026-03-28T15:24:48Z</time></trkpt><trkpt lat="44.86023334166688" lon="8.41768602369438"><ele>112.4</ele><time>2026-03-28T15:24:49Z</time></trkpt><trkpt lat="44.8602547783464" lon="8.417784435489978"><ele>111.80000000000001</ele><time>2026-03-28T15:24:50Z</time></trkpt><trkpt lat="44.860334150214655" lon="8.417867455507986"><ele>111.2</ele><time>2026-03-28T15:24:51Z</time></trkpt><trkpt lat="44.86043667311897" lon="8.417943100266035"><ele>110.6</ele><time>2026-03-28T15:24:52Z</time></trkpt><trkpt lat="44.86054545012439" lon="8.418043561289096"><ele>110.0</ele><time>2026-03-28T15:24:53Z</time></trkpt><trkpt lat="44.86062887216502" lon="8.41812468124302"><ele>110.0</ele><time>2026-03-28T15:24:54Z</time></trkpt><trkpt lat="44.86070919883483" lon="8.418220105476568"><ele>110.0</ele><time>2026-03-28T15:24:55Z</time></trkpt><trkpt lat="44.86078853066778" lon="8.418317518603452"><ele>110.0</ele><time>2026-03-28T15:24:56Z</time></trkpt><trkpt lat="44.86087194336324" lon="8.418417973680869"><ele>110.0</ele><time>2026-03-28T15:24:57Z</time></trkpt><trkpt lat="44.86095751901323" lon="8.418530370532482"><ele>110.0</ele><time>2026-03-28T15:24:58Z</time></trkpt><trkpt lat="44.86104865148919" lon="8.418657716606422"><ele>109.2</ele><time>2026-03-28T15:24:59Z</time></trkpt><trkpt lat="44.8611334827727" lon="8.41877138185608"><ele>108.4</ele><time>2026-03-28T15:25:00Z</time></trkpt><trkpt lat="44.8612134316518" lon="8.418871917325346"><ele>107.6</ele><time>2026-03-28T15:25:01Z</time></trkpt><trkpt lat="44.86128062161671" lon="8.418971421882166"><ele>106.8</ele><time>2026-03-28T15:25:02Z</time></trkpt><trkpt lat="44.861351985354965" lon="8.419070066406052"><ele>106.0</ele><time>2026-03-28T15:25:03Z</time></trkpt><trkpt lat="44.86144629907728" lon="8.41917033565849"><ele>106.0</ele><time>2026-03-28T15:25:04Z</time></trkpt><trkpt lat="44.86153976640463" lon="8.41926600212699"><ele>106.0</ele><time>2026-03-28T15:25:05Z</time></trkpt><trkpt lat="44.861640666076816" lon="8.419373489628406"><ele>106.0</ele><time>2026-03-28T15:25:06Z</time></trkpt><trkpt lat="44.861742046675026" lon="8.419492796697206"><ele>106.0</ele><time>2026-03-28T15:25:07Z</time></trkpt><trkpt lat="44.86184513298921" lon="8.41960156551882"><ele>106.25</ele><time>2026-03-28T15:25:08Z</time></trkpt><trkpt lat="44.861957143218405" lon="8.419717844106517"><ele>106.5</ele><time>2026-03-28T15:25:09Z</time></trkpt><trkpt lat="44.862079608513056" lon="8.419826202073837"><ele>106.75</ele><time>2026-03-28T15:25:10Z</time></trkpt><trkpt lat="44.86219129892482" lon="8.419936362672129"><ele>107.0</ele><time>2026-03-28T15:25:11Z</time></trkpt><trkpt lat="44.8622886062396" lon="8.420044536039022"><ele>107.0</ele><time>2026-03-28T15:25:12Z</time></trkpt><trkpt lat="44.862384301714286" lon="8.420144332954377"><ele>107.0</ele><time>2026-03-28T15:25:13Z</time></trkpt><trkpt lat="44.86244666849631" lon="8.42024087599043"><ele>107.0</ele><time>2026-03-28T15:25:14Z</time></trkpt><trkpt lat="44.862530034675125" lon="8.420362068118589"><ele>107.0</ele><time>2026-03-28T15:25:15Z</time></trkpt><trkpt lat="44.8626231290797" lon="8.420484747504858"><ele>106.75</ele><time>2026-03-28T15:25:16Z</time></trkpt><trkpt lat="44.86270677099778" lon="8.420588412702857"><ele>106.5</ele><time>2026-03-28T15:25:17Z</time></trkpt><trkpt lat="44.862784585634955" lon="8.420709577562139"><ele>106.25</ele><time>2026-03-28T15:25:18Z</time></trkpt><trkpt lat="44.8628662406505" lon="8.420837194594904"><ele>106.0</ele><time>2026-03-28T15:25:19Z</time></trkpt><trkpt lat="44.86295016415766" lon="8.420970366898706"><ele>106.0</ele><time>2026-03-28T15:25:20Z</time></trkpt><trkpt lat="44.86302029327344" lon="8.421082764615218"><ele>106.0</ele><time>2026-03-28T15:25:21Z</time></trkpt><trkpt lat="44.863088993114474" lon="8.42118893062072"><ele>106.0</ele><time>2026-03-28T15:25:22Z</time></trkpt><trkpt lat="44.86314853125275" lon="8.421302423789708"><ele>106.0</ele><time>2026-03-28T15:25:23Z</time></trkpt><trkpt lat="44.86319974287888" lon="8.421416387410439"><ele>106.0</ele><time>2026-03-28T15:25:24Z</time></trkpt><trkpt lat="44.86324498401382" lon="8.421536329555165"><ele>106.0</ele><time>2026-03-28T15:25:25Z</time></trkpt><trkpt lat="44.86330664981784" lon="8.42167193394043"><ele>106.0</ele><time>2026-03-28T15:25:26Z</time></trkpt><trkpt lat="44.86337863088814" lon="8.421816651605246"><ele>106.0</ele><time>2026-03-28T15:25:27Z</time></trkpt><trkpt lat="44.86344906318913" lon="8.421958698283603"><ele>106.0</ele><time>2026-03-28T15:25:28Z</time></trkpt><trkpt lat="44.863526186471006" lon="8.422106138652358"><ele>105.6</ele><time>2026-03-28T15:25:29Z</time></trkpt><trkpt lat="44.86360229086623" lon="8.422247576863224"><ele>105.19999999999999</ele><time>2026-03-28T15:25:30Z</time></trkpt><trkpt lat="44.86366800722172" lon="8.422355633379954"><ele>104.80000000000001</ele><time>2026-03-28T15:25:31Z</time></trkpt><trkpt lat="44.86373614031346" lon="8.422439170374844"><ele>104.4</ele><time>2026-03-28T15:25:32Z</time></trkpt><trkpt lat="44.863788870176535" lon="8.422516716694075"><ele>104.0</ele><time>2026-03-28T15:25:33Z</time></trkpt><trkpt lat="44.863861851916084" lon="8.422616377959779"><ele>104.0</ele><time>2026-03-28T15:25:34Z</time></trkpt><trkpt lat="44.86392426529593" lon="8.422725650469653"><ele>104.0</ele><time>2026-03-28T15:25:35Z</time></trkpt><trkpt lat="44.86398214789654" lon="8.42285219867305"><ele>104.0</ele><time>2026-03-28T15:25:36Z</time></trkpt><trkpt lat="44.86405489861437" lon="8.422965830772302"><ele>104.0</ele><time>2026-03-28T15:25:37Z</time></trkpt><trkpt lat="44.864148763542694" lon="8.423078547425597"><ele>104.0</ele><time>2026-03-28T15:25:38Z</time></trkpt><trkpt lat="44.864231052987684" lon="8.423170273397886"><ele>103.4</ele><time>2026-03-28T15:25:39Z</time></trkpt><trkpt lat="44.86431894908158" lon="8.42323814997644"><ele>102.80000000000001</ele><time>2026-03-28T15:25:40Z</time></trkpt><trkpt lat="44.8644163900356" lon="8.423322457135358"><ele>102.19999999999999</ele><time>2026-03-28T15:25:41Z</time></trkpt><trkpt lat="44.86451649678095" lon="8.4233817474297"><ele>101.6</ele><time>2026-03-28T15:25:42Z</time></trkpt><trkpt lat="44.8646094262341" lon="8.423431366895068"><ele>101.0</ele><time>2026-03-28T15:25:43Z</time></trkpt><trkpt lat="44.86470048153359" lon="8.42344699058126"><ele>101.0</ele><time>2026-03-28T15:25:44Z</time></trkpt><trkpt lat="44.86481288780161" lon="8.423445935403155"><ele>101.0</ele><time>2026-03-28T15:25:45Z</time></trkpt><trkpt lat="44.86492830960141" lon="8.423423061263925"><ele>101.0</ele><time>2026-03-28T15:25:46Z</time></trkpt><trkpt lat="44.86503282940653" lon="8.423379630252095"><ele>101.0</ele><time>2026-03-28T15:25:47Z</time></trkpt><trkpt lat="44.86514578624879" lon="8.423362011680021"><ele>101.4</ele><time>2026-03-28T15:25:48Z</time></trkpt><trkpt lat="44.86524392724516" lon="8.423346303618942"><ele>101.8</ele><time>2026-03-28T15:25:49Z</time></trkpt><trkpt lat="44.86534723815114" lon="8.423326168650926"><ele>102.2</ele><time>2026-03-28T15:25:50Z</time></trkpt><trkpt lat="44.86545988521306" lon="8.423344470919172"><ele>102.60000000000001</ele><time>2026-03-28T15:25:51Z</time></trkpt><trkpt lat="44.86557488925927" lon="8.42337958639305"><ele>103.0</ele><time>2026-03-28T15:25:52Z</time></trkpt><trkpt lat="44.86568638036163" lon="8.423427615095784"><ele>103.00000000000001</ele><time>2026-03-28T15:25:53Z</time></trkpt><trkpt lat="44.86577688637705" lon="8.423461992312498"><ele>103.0</ele><time>2026-03-28T15:25:54Z</time></trkpt><trkpt lat="44.86584926441565" lon="8.42352282360659"><ele>103.0</ele><time>2026-03-28T15:25:55Z</time></trkpt><trkpt lat="44.86592307884564" lon="8.42362453413795"><ele>103.0</ele><time>2026-03-28T15:25:57Z</time></trkpt><trkpt lat="44.86594406729099" lon="8.423731004538359"><ele>103.00000000000001</ele><time>2026-03-28T15:26:00Z</time></trkpt><trkpt lat="44.865955656163" lon="8.42382371033995"><ele>103.0</ele><time>2026-03-28T15:26:02Z</time></trkpt><trkpt lat="44.86596385185484" lon="8.42393356837919"><ele>104.5</ele><time>2026-03-28T15:26:04Z</time></trkpt><trkpt lat="44.86563413897241" lon="8.424185985900792"><ele>106.0</ele><time>2026-03-28T15:26:06Z</time></trkpt><trkpt lat="44.86559309863825" lon="8.424314452950986"><ele>106.0</ele><time>2026-03-28T15:26:07Z</time></trkpt><trkpt lat="44.86557249192056" lon="8.42446220332519"><ele>106.0</ele><time>2026-03-28T15:26:08Z</time></trkpt><trkpt lat="44.86556578837182" lon="8.424611149498764"><ele>106.0</ele><time>2026-03-28T15:26:09Z</time></trkpt><trkpt lat="44.86556837246143" lon="8.424765759858508"><ele>106.0</ele><time>2026-03-28T15:26:10Z</time></trkpt><trkpt lat="44.8655761991661" lon="8.424921255101271"><ele>106.0</ele><time>2026-03-28T15:26:11Z</time></trkpt><trkpt lat="44.86557821348124" lon="8.425093658077763"><ele>106.75</ele><time>2026-03-28T15:26:12Z</time></trkpt><trkpt lat="44.86557150420141" lon="8.425260889954808"><ele>107.5</ele><time>2026-03-28T15:26:13Z</time></trkpt><trkpt lat="44.86556361489745" lon="8.42543070663751"><ele>108.25</ele><time>2026-03-28T15:26:14Z</time></trkpt><trkpt lat="44.86555863725858" lon="8.425593315192863"><ele>109.0</ele><time>2026-03-28T15:26:15Z</time></trkpt><trkpt lat="44.865552801247084" lon="8.425766095981672"><ele>110.4</ele><time>2026-03-28T15:26:16Z</time></trkpt><trkpt lat="44.86555336260281" lon="8.425918472864078"><ele>111.80000000000001</ele><time>2026-03-28T15:26:17Z</time></trkpt><trkpt lat="44.86557959740701" lon="8.426058812628872"><ele>113.19999999999999</ele><time>2026-03-28T15:26:18Z</time></trkpt><trkpt lat="44.86564241246709" lon="8.42617712179359"><ele>114.6</ele><time>2026-03-28T15:26:19Z</time></trkpt><trkpt lat="44.86572845440504" lon="8.426277402850298"><ele>116.0</ele><time>2026-03-28T15:26:20Z</time></trkpt><trkpt lat="44.865856622903465" lon="8.426290494456474"><ele>115.19999999999999</ele><time>2026-03-28T15:26:21Z</time></trkpt><trkpt lat="44.865977717729905" lon="8.42627403972872"><ele>114.39999999999999</ele><time>2026-03-28T15:26:22Z</time></trkpt><trkpt lat="44.86608664373925" lon="8.42623527604903"><ele>113.6</ele><time>2026-03-28T15:26:23Z</time></trkpt><trkpt lat="44.86616992477964" lon="8.426192402062641"><ele>112.8</ele><time>2026-03-28T15:26:24Z</time></trkpt><trkpt lat="44.866281718488786" lon="8.426198597042546"><ele>112.0</ele><time>2026-03-28T15:26:25Z</time></trkpt><trkpt lat="44.86634539721872" lon="8.42624997680924"><ele>112.39999999999999</ele><time>2026-03-28T15:26:26Z</time></trkpt><trkpt lat="44.866337133781286" lon="8.426422877174032"><ele>112.79999999999998</ele><time>2026-03-28T15:26:28Z</time></trkpt><trkpt lat="44.86626784912517" lon="8.426478378430861"><ele>113.2</ele><time>2026-03-28T15:26:29Z</time></trkpt><trkpt lat="44.86616687742914" lon="8.426510931490196"><ele>113.6</ele><time>2026-03-28T15:26:30Z</time></trkpt><trkpt lat="44.86606116603195" lon="8.42653711669674"><ele>114.0</ele><time>2026-03-28T15:26:31Z</time></trkpt><trkpt lat="44.86596309896247" lon="8.426560377724115"><ele>116.4</ele><time>2026-03-28T15:26:32Z</time></trkpt><trkpt lat="44.865869310093" lon="8.426616160205675"><ele>118.80000000000001</ele><time>2026-03-28T15:26:33Z</time></trkpt><trkpt lat="44.86580652164747" lon="8.42671742089549"><ele>121.19999999999999</ele><time>2026-03-28T15:26:34Z</time></trkpt><trkpt lat="44.865777733800726" lon="8.426849089186664"><ele>123.6</ele><time>2026-03-28T15:26:35Z</time></trkpt><trkpt lat="44.865785824527336" lon="8.427000772832528"><ele>126.0</ele><time>2026-03-28T15:26:36Z</time></trkpt><trkpt lat="44.865809215602106" lon="8.427154777830513"><ele>128.5</ele><time>2026-03-28T15:26:37Z</time></trkpt><trkpt lat="44.86583002329566" lon="8.427311579622437"><ele>131.0</ele><time>2026-03-28T15:26:38Z</time></trkpt><trkpt lat="44.865849880054554" lon="8.427471232231783"><ele>133.5</ele><time>2026-03-28T15:26:39Z</time></trkpt><trkpt lat="44.86586464648057" lon="8.427640439398841"><ele>136.0</ele><time>2026-03-28T15:26:40Z</time></trkpt><trkpt lat="44.86587409269524" lon="8.427804453696083"><ele>136.0</ele><time>2026-03-28T15:26:41Z</time></trkpt><trkpt lat="44.865864303134614" lon="8.427960139705728"><ele>136.0</ele><time>2026-03-28T15:26:42Z</time></trkpt><trkpt lat="44.865827044833104" lon="8.428091231901107"><ele>136.0</ele><time>2026-03-28T15:26:43Z</time></trkpt><trkpt lat="44.86578203145079" lon="8.428196651649897"><ele>136.0</ele><time>2026-03-28T15:26:44Z</time></trkpt><trkpt lat="44.86574037764358" lon="8.428347239932185"><ele>136.0</ele><time>2026-03-28T15:26:46Z</time></trkpt><trkpt lat="44.86578354943963" lon="8.42854621604246"><ele>136.66666666666669</ele><time>2026-03-28T15:26:48Z</time></trkpt><trkpt lat="44.86583662569756" lon="8.428655755931988"><ele>137.33333333333334</ele><time>2026-03-28T15:26:49Z</time></trkpt><trkpt lat="44.86588827184374" lon="8.428766476651576"><ele>138.0</ele><time>2026-03-28T15:26:50Z</time></trkpt><trkpt lat="44.865932173107886" lon="8.428875852901523"><ele>138.66666666666666</ele><time>2026-03-28T15:26:51Z</time></trkpt><trkpt lat="44.865978931922825" lon="8.428978283911759"><ele>139.33333333333331</ele><time>2026-03-28T15:26:52Z</time></trkpt><trkpt lat="44.866017330155145" lon="8.429079862925994"><ele>140.0</ele><time>2026-03-28T15:26:53Z</time></trkpt><trkpt lat="44.86605421122898" lon="8.429179604183487"><ele>140.0</ele><time>2026-03-28T15:26:54Z</time></trkpt><trkpt lat="44.8660948440087" lon="8.429274464833714"><ele>140.0</ele><time>2026-03-28T15:26:55Z</time></trkpt><trkpt lat="44.86613733821112" lon="8.429367347526757"><ele>140.0</ele><time>2026-03-28T15:26:56Z</time></trkpt><trkpt lat="44.86617742381342" lon="8.429455076824501"><ele>140.0</ele><time>2026-03-28T15:26:57Z</time></trkpt><trkpt lat="44.866220406116774" lon="8.429543630752487"><ele>140.0</ele><time>2026-03-28T15:26:58Z</time></trkpt><trkpt lat="44.86626599467451" lon="8.429638901560986"><ele>140.0</ele><time>2026-03-28T15:26:59Z</time></trkpt><trkpt lat="44.86630865804296" lon="8.429733843893102"><ele>141.33333333333331</ele><time>2026-03-28T15:27:00Z</time></trkpt><trkpt lat="44.86635448073921" lon="8.429826860658387"><ele>142.66666666666666</ele><time>2026-03-28T15:27:01Z</time></trkpt><trkpt lat="44.866405029452984" lon="8.429921661329677"><ele>144.0</ele><time>2026-03-28T15:27:02Z</time></trkpt><trkpt lat="44.86645306031905" lon="8.430024117372938"><ele>145.33333333333334</ele><time>2026-03-28T15:27:03Z</time></trkpt><trkpt lat="44.8664948192417" lon="8.430119865656502"><ele>146.66666666666669</ele><time>2026-03-28T15:27:04Z</time></trkpt><trkpt lat="44.866530769754554" lon="8.43020897173466"><ele>148.0</ele><time>2026-03-28T15:27:05Z</time></trkpt><trkpt lat="44.866570544981684" lon="8.430295243076673"><ele>148.0</ele><time>2026-03-28T15:27:06Z</time></trkpt><trkpt lat="44.866613083637105" lon="8.430381033927542"><ele>148.0</ele><time>2026-03-28T15:27:07Z</time></trkpt><trkpt lat="44.86665119929464" lon="8.430464733364687"><ele>148.0</ele><time>2026-03-28T15:27:08Z</time></trkpt><trkpt lat="44.86669382798288" lon="8.430537952711681"><ele>148.0</ele><time>2026-03-28T15:27:09Z</time></trkpt><trkpt lat="44.866748536130466" lon="8.430653466580852"><ele>148.0</ele><time>2026-03-28T15:27:11Z</time></trkpt><trkpt lat="44.86678543353334" lon="8.430737844280623"><ele>148.0</ele><time>2026-03-28T15:27:20Z</time></trkpt><trkpt lat="44.866866325391825" lon="8.43088444303848"><ele>147.4</ele><time>2026-03-28T15:27:22Z</time></trkpt><trkpt lat="44.86690472917284" lon="8.43096493081262"><ele>146.8</ele><time>2026-03-28T15:27:23Z</time></trkpt><trkpt lat="44.86695344541331" lon="8.431089291265392"><ele>146.2</ele><time>2026-03-28T15:27:25Z</time></trkpt><trkpt lat="44.867024444092124" lon="8.431237819609587"><ele>145.6</ele><time>2026-03-28T15:27:27Z</time></trkpt><trkpt lat="44.86706846595119" lon="8.431325000370483"><ele>145.0</ele><time>2026-03-28T15:27:28Z</time></trkpt><trkpt lat="44.86711626611784" lon="8.431424167486437"><ele>144.66666666666669</ele><time>2026-03-28T15:27:29Z</time></trkpt><trkpt lat="44.86715703648706" lon="8.431549676637093"><ele>144.33333333333334</ele><time>2026-03-28T15:27:30Z</time></trkpt><trkpt lat="44.86718848603517" lon="8.43166981518164"><ele>144.0</ele><time>2026-03-28T15:27:31Z</time></trkpt><trkpt lat="44.86720821162398" lon="8.431775260039661"><ele>143.66666666666666</ele><time>2026-03-28T15:27:32Z</time></trkpt><trkpt lat="44.86720993105129" lon="8.43187965608087"><ele>143.33333333333331</ele><time>2026-03-28T15:27:33Z</time></trkpt><trkpt lat="44.86722917100796" lon="8.431972875482598"><ele>143.0</ele><time>2026-03-28T15:27:34Z</time></trkpt><trkpt lat="44.86725389567896" lon="8.43210171045849"><ele>142.66666666666666</ele><time>2026-03-28T15:27:35Z</time></trkpt><trkpt lat="44.86727400542695" lon="8.43229328372668"><ele>142.33333333333334</ele><time>2026-03-28T15:27:37Z</time></trkpt><trkpt lat="44.86727137374995" lon="8.432409396706097"><ele>142.0</ele><time>2026-03-28T15:27:39Z</time></trkpt><trkpt lat="44.86702026609524" lon="8.432458987483868"><ele>142.0</ele><time>2026-03-28T15:27:43Z</time></trkpt><trkpt lat="44.8669401719401" lon="8.432465644570849"><ele>142.0</ele><time>2026-03-28T15:27:44Z</time></trkpt><trkpt lat="44.8668646840535" lon="8.432489246455622"><ele>142.0</ele><time>2026-03-28T15:27:45Z</time></trkpt><trkpt lat="44.866760468132036" lon="8.432311589466147"><ele>142.0</ele><time>2026-03-28T15:27:46Z</time></trkpt><trkpt lat="44.8666897932221" lon="8.432338236607208"><ele>142.0</ele><time>2026-03-28T15:27:47Z</time></trkpt><trkpt lat="44.86662870618218" lon="8.432361268755832"><ele>141.83333333333334</ele><time>2026-03-28T15:27:48Z</time></trkpt><trkpt lat="44.86653356357202" lon="8.43239714116007"><ele>141.66666666666669</ele><time>2026-03-28T15:27:50Z</time></trkpt><trkpt lat="44.866500848644876" lon="8.432568307615494"><ele>141.5</ele><time>2026-03-28T15:27:51Z</time></trkpt><trkpt lat="44.866425626736046" lon="8.432597186048248"><ele>141.33333333333334</ele><time>2026-03-28T15:27:52Z</time></trkpt><trkpt lat="44.86635969714738" lon="8.432623390139689"><ele>141.16666666666666</ele><time>2026-03-28T15:27:53Z</time></trkpt><trkpt lat="44.86628479353657" lon="8.432651837556648"><ele>141.0</ele><time>2026-03-28T15:27:54Z</time></trkpt><trkpt lat="44.866216643886936" lon="8.432675670447999"><ele>141.0</ele><time>2026-03-28T15:27:55Z</time></trkpt><trkpt lat="44.86615026571637" lon="8.432692953584164"><ele>141.0</ele><time>2026-03-28T15:27:56Z</time></trkpt><trkpt lat="44.86602228398258" lon="8.432728468053634"><ele>141.0</ele><time>2026-03-28T15:27:58Z</time></trkpt><trkpt lat="44.86594819362322" lon="8.432742131651858"><ele>141.0</ele><time>2026-03-28T15:27:59Z</time></trkpt><trkpt lat="44.86588488817626" lon="8.432765697289339"><ele>141.0</ele><time>2026-03-28T15:28:00Z</time></trkpt><trkpt lat="44.86582006832882" lon="8.432789759007072"><ele>141.0</ele><time>2026-03-28T15:28:01Z</time></trkpt><trkpt lat="44.86574290034843" lon="8.432804095890312"><ele>140.16666666666666</ele><time>2026-03-28T15:28:02Z</time></trkpt><trkpt lat="44.865659863131455" lon="8.432818432850377"><ele>139.33333333333334</ele><time>2026-03-28T15:28:03Z</time></trkpt><trkpt lat="44.86559056040938" lon="8.432816427795446"><ele>138.5</ele><time>2026-03-28T15:28:04Z</time></trkpt><trkpt lat="44.865468771332" lon="8.43283403969907"><ele>137.66666666666669</ele><time>2026-03-28T15:28:06Z</time></trkpt><trkpt lat="44.86540006030917" lon="8.432845007983065"><ele>136.83333333333334</ele><time>2026-03-28T15:28:07Z</time></trkpt><trkpt lat="44.865329995042984" lon="8.43286174734662"><ele>136.0</ele><time>2026-03-28T15:28:08Z</time></trkpt><trkpt lat="44.865254760070925" lon="8.432877189020225"><ele>136.0</ele><time>2026-03-28T15:28:09Z</time></trkpt><trkpt lat="44.86513250996739" lon="8.432890885619317"><ele>136.0</ele><time>2026-03-28T15:28:11Z</time></trkpt><trkpt lat="44.86498200864863" lon="8.432921578845278"><ele>136.0</ele><time>2026-03-28T15:28:13Z</time></trkpt><trkpt lat="44.86489819184497" lon="8.432939641239138"><ele>136.0</ele><time>2026-03-28T15:28:14Z</time></trkpt><trkpt lat="44.864832133718224" lon="8.432946937507847"><ele>136.0</ele><time>2026-03-28T15:28:15Z</time></trkpt><trkpt lat="44.864735518559684" lon="8.432952374816177"><ele>134.83333333333334</ele><time>2026-03-28T15:28:17Z</time></trkpt><trkpt lat="44.864672144448356" lon="8.432958064094194"><ele>133.66666666666669</ele><time>2026-03-28T15:28:19Z</time></trkpt><trkpt lat="44.86458688872188" lon="8.4329749481359"><ele>132.5</ele><time>2026-03-28T15:28:22Z</time></trkpt><trkpt lat="44.864524300769354" lon="8.432989620388241"><ele>131.33333333333334</ele><time>2026-03-28T15:28:23Z</time></trkpt><trkpt lat="44.864442716104286" lon="8.43299263088677"><ele>130.16666666666666</ele><time>2026-03-28T15:28:24Z</time></trkpt><trkpt lat="44.864361744391424" lon="8.433005584912697"><ele>129.0</ele><time>2026-03-28T15:28:25Z</time></trkpt><trkpt lat="44.86424080928316" lon="8.433032846630448"><ele>128.16666666666666</ele><time>2026-03-28T15:28:27Z</time></trkpt><trkpt lat="44.86416937775777" lon="8.433031082282458"><ele>127.33333333333334</ele><time>2026-03-28T15:28:28Z</time></trkpt><trkpt lat="44.86408870501322" lon="8.433043888824914"><ele>126.5</ele><time>2026-03-28T15:28:29Z</time></trkpt><trkpt lat="44.8640011209011" lon="8.433064561681839"><ele>125.66666666666667</ele><time>2026-03-28T15:28:30Z</time></trkpt><trkpt lat="44.8639051630843" lon="8.433084041981814"><ele>124.83333333333334</ele><time>2026-03-28T15:28:31Z</time></trkpt><trkpt lat="44.8638055691872" lon="8.433103407745836"><ele>124.0</ele><time>2026-03-28T15:28:32Z</time></trkpt><trkpt lat="44.86371170252678" lon="8.433121544787717"><ele>124.0</ele><time>2026-03-28T15:28:33Z</time></trkpt><trkpt lat="44.86362220129709" lon="8.43312883984404"><ele>124.0</ele><time>2026-03-28T15:28:34Z</time></trkpt><trkpt lat="44.86353019210508" lon="8.433128727589427"><ele>124.0</ele><time>2026-03-28T15:28:35Z</time></trkpt><trkpt lat="44.86344809323696" lon="8.433141104179015"><ele>124.0</ele><time>2026-03-28T15:28:36Z</time></trkpt><trkpt lat="44.86335949757632" lon="8.433146188083125"><ele>124.0</ele><time>2026-03-28T15:28:37Z</time></trkpt><trkpt lat="44.86326284152903" lon="8.433158875025784"><ele>124.66666666666667</ele><time>2026-03-28T15:28:38Z</time></trkpt><trkpt lat="44.86316719573299" lon="8.433165073179502"><ele>125.33333333333334</ele><time>2026-03-28T15:28:39Z</time></trkpt><trkpt lat="44.8630727070614" lon="8.433164465843122"><ele>126.0</ele><time>2026-03-28T15:28:40Z</time></trkpt><trkpt lat="44.862979707577864" lon="8.433164155751768"><ele>126.66666666666666</ele><time>2026-03-28T15:28:41Z</time></trkpt><trkpt lat="44.862891397561974" lon="8.433162160796028"><ele>127.33333333333333</ele><time>2026-03-28T15:28:42Z</time></trkpt><trkpt lat="44.86282856053019" lon="8.433154864747161"><ele>128.0</ele><time>2026-03-28T15:28:43Z</time></trkpt><trkpt lat="44.8627583699665" lon="8.433166169635692"><ele>127.99999999999999</ele><time>2026-03-28T15:28:44Z</time></trkpt><trkpt lat="44.86268433459159" lon="8.433172663025134"><ele>128.0</ele><time>2026-03-28T15:28:45Z</time></trkpt><trkpt lat="44.86261248049168" lon="8.43317620682184"><ele>128.0</ele><time>2026-03-28T15:28:46Z</time></trkpt><trkpt lat="44.86252644406051" lon="8.433178773099046"><ele>128.0</ele><time>2026-03-28T15:28:47Z</time></trkpt><trkpt lat="44.86244969214889" lon="8.433182185237998"><ele>127.99999999999999</ele><time>2026-03-28T15:28:48Z</time></trkpt><trkpt lat="44.862371870372584" lon="8.433171065746263"><ele>128.0</ele><time>2026-03-28T15:28:49Z</time></trkpt><trkpt lat="44.862291938369836" lon="8.433139897380238"><ele>129.6</ele><time>2026-03-28T15:28:50Z</time></trkpt><trkpt lat="44.862212183162455" lon="8.433085534999554"><ele>131.20000000000002</ele><time>2026-03-28T15:28:51Z</time></trkpt><trkpt lat="44.86214452062049" lon="8.433016837310156"><ele>132.8</ele><time>2026-03-28T15:28:52Z</time></trkpt><trkpt lat="44.86208525360233" lon="8.43294731648188"><ele>134.4</ele><time>2026-03-28T15:28:53Z</time></trkpt><trkpt lat="44.86203057657946" lon="8.432891949652632"><ele>136.0</ele><time>2026-03-28T15:28:54Z</time></trkpt><trkpt lat="44.861909832355494" lon="8.432779173628967"><ele>136.5</ele><time>2026-03-28T15:28:56Z</time></trkpt><trkpt lat="44.8618370524057" lon="8.43273406824524"><ele>137.0</ele><time>2026-03-28T15:28:57Z</time></trkpt><trkpt lat="44.86176747722383" lon="8.432696376166637"><ele>137.5</ele><time>2026-03-28T15:28:58Z</time></trkpt><trkpt lat="44.86170662017919" lon="8.432612146908813"><ele>138.0</ele><time>2026-03-28T15:28:59Z</time></trkpt><trkpt lat="44.86161412148464" lon="8.432553087807166"><ele>138.5</ele><time>2026-03-28T15:29:00Z</time></trkpt><trkpt lat="44.86154146712969" lon="8.43250944070337"><ele>139.0</ele><time>2026-03-28T15:29:01Z</time></trkpt><trkpt lat="44.86147712434697" lon="8.432483512177967"><ele>139.66666666666669</ele><time>2026-03-28T15:29:02Z</time></trkpt><trkpt lat="44.861402143100364" lon="8.432484419922531"><ele>140.33333333333334</ele><time>2026-03-28T15:29:03Z</time></trkpt><trkpt lat="44.86132982027118" lon="8.432497066055868"><ele>141.0</ele><time>2026-03-28T15:29:04Z</time></trkpt><trkpt lat="44.861257288173825" lon="8.432513161980408"><ele>141.66666666666666</ele><time>2026-03-28T15:29:05Z</time></trkpt><trkpt lat="44.861180511204424" lon="8.432524887402892"><ele>142.33333333333331</ele><time>2026-03-28T15:29:06Z</time></trkpt><trkpt lat="44.861082188914025" lon="8.432536078236875"><ele>143.0</ele><time>2026-03-28T15:29:08Z</time></trkpt><trkpt lat="44.86099136706258" lon="8.432587516719932"><ele>143.0</ele><time>2026-03-28T15:29:10Z</time></trkpt><trkpt lat="44.86089768350309" lon="8.432674806988844"><ele>143.0</ele><time>2026-03-28T15:29:12Z</time></trkpt><trkpt lat="44.860837255688054" lon="8.432730977122906"><ele>143.0</ele><time>2026-03-28T15:29:14Z</time></trkpt><trkpt lat="44.86090777297579" lon="8.432853883376888"><ele>143.0</ele><time>2026-03-28T15:29:20Z</time></trkpt><trkpt lat="44.860956357987995" lon="8.432932883301891"><ele>143.0</ele><time>2026-03-28T15:29:21Z</time></trkpt><trkpt lat="44.86103750205298" lon="8.433041693699272"><ele>143.20000000000002</ele><time>2026-03-28T15:29:22Z</time></trkpt><trkpt lat="44.861094320427185" lon="8.433154033747137"><ele>143.4</ele><time>2026-03-28T15:29:23Z</time></trkpt><trkpt lat="44.86116077296162" lon="8.433243227904795"><ele>143.60000000000002</ele><time>2026-03-28T15:29:24Z</time></trkpt><trkpt lat="44.861219983109" lon="8.433340385890954"><ele>143.8</ele><time>2026-03-28T15:29:25Z</time></trkpt><trkpt lat="44.86128188767394" lon="8.433441161406357"><ele>144.0</ele><time>2026-03-28T15:29:26Z</time></trkpt><trkpt lat="44.86133922856958" lon="8.433557730092001"><ele>144.0</ele><time>2026-03-28T15:29:27Z</time></trkpt><trkpt lat="44.861397666460995" lon="8.433692315257423"><ele>144.0</ele><time>2026-03-28T15:29:28Z</time></trkpt><trkpt lat="44.86145680408382" lon="8.433832268951932"><ele>144.0</ele><time>2026-03-28T15:29:29Z</time></trkpt><trkpt lat="44.861513075631066" lon="8.433969196991768"><ele>144.0</ele><time>2026-03-28T15:29:30Z</time></trkpt><trkpt lat="44.8615711625564" lon="8.434103126621293"><ele>143.8</ele><time>2026-03-28T15:29:31Z</time></trkpt><trkpt lat="44.861636951983876" lon="8.434234793225036"><ele>143.60000000000002</ele><time>2026-03-28T15:29:32Z</time></trkpt><trkpt lat="44.86170682724639" lon="8.434353041487299"><ele>143.4</ele><time>2026-03-28T15:29:33Z</time></trkpt><trkpt lat="44.86177835313267" lon="8.43446356336663"><ele>143.20000000000002</ele><time>2026-03-28T15:29:34Z</time></trkpt><trkpt lat="44.861849031235465" lon="8.434565428145683"><ele>143.0</ele><time>2026-03-28T15:29:35Z</time></trkpt><trkpt lat="44.86191938341034" lon="8.434672091517333"><ele>143.0</ele><time>2026-03-28T15:29:36Z</time></trkpt><trkpt lat="44.86198420784922" lon="8.434770925382912"><ele>143.0</ele><time>2026-03-28T15:29:37Z</time></trkpt><trkpt lat="44.86204501485841" lon="8.434862649199381"><ele>143.0</ele><time>2026-03-28T15:29:38Z</time></trkpt><trkpt lat="44.8620935250176" lon="8.434949265596996"><ele>143.0</ele><time>2026-03-28T15:29:39Z</time></trkpt><trkpt lat="44.86214253654531" lon="8.435055135407117"><ele>143.0</ele><time>2026-03-28T15:29:41Z</time></trkpt><trkpt lat="44.86218472906461" lon="8.435131744360552"><ele>143.0</ele><time>2026-03-28T15:29:44Z</time></trkpt><trkpt lat="44.86213447292522" lon="8.435032303808184"><ele>143.0</ele><time>2026-03-28T15:29:49Z</time></trkpt><trkpt lat="44.862082654911845" lon="8.434928867588347"><ele>143.0</ele><time>2026-03-28T15:29:51Z</time></trkpt><trkpt lat="44.862030288202796" lon="8.434826849216554"><ele>143.0</ele><time>2026-03-28T15:29:53Z</time></trkpt><trkpt lat="44.86197424266879" lon="8.43473181862539"><ele>143.0</ele><time>2026-03-28T15:29:55Z</time></trkpt><trkpt lat="44.861916281455514" lon="8.434632392935818"><ele>143.0</ele><time>2026-03-28T15:29:57Z</time></trkpt><trkpt lat="44.861867165241165" lon="8.43453880596697"><ele>143.0</ele><time>2026-03-28T15:29:59Z</time></trkpt><trkpt lat="44.861821592892674" lon="8.434460408702343"><ele>143.0</ele><time>2026-03-28T15:30:01Z</time></trkpt><trkpt lat="44.861752903979315" lon="8.434473227497891"><ele>143.0</ele><time>2026-03-28T15:30:06Z</time></trkpt><trkpt lat="44.86171239548957" lon="8.434587498008964"><ele>143.0</ele><time>2026-03-28T15:30:08Z</time></trkpt><trkpt lat="44.86165711135144" lon="8.434687646095881"><ele>143.0</ele><time>2026-03-28T15:30:10Z</time></trkpt><trkpt lat="44.861591317801675" lon="8.434808616654893"><ele>143.0</ele><time>2026-03-28T15:30:12Z</time></trkpt><trkpt lat="44.86154555469168" lon="8.434898460788137"><ele>143.0</ele><time>2026-03-28T15:30:13Z</time></trkpt><trkpt lat="44.86150160810187" lon="8.434987482548499"><ele>142.0</ele><time>2026-03-28T15:30:14Z</time></trkpt><trkpt lat="44.86145472227006" lon="8.435060853031974"><ele>141.0</ele><time>2026-03-28T15:30:15Z</time></trkpt><trkpt lat="44.861404190262434" lon="8.435170419360924"><ele>140.0</ele><time>2026-03-28T15:30:16Z</time></trkpt><trkpt lat="44.86134490760529" lon="8.435262970810529"><ele>139.0</ele><time>2026-03-28T15:30:17Z</time></trkpt><trkpt lat="44.86129009304593" lon="8.435341006663974"><ele>138.0</ele><time>2026-03-28T15:30:18Z</time></trkpt><trkpt lat="44.86124452172634" lon="8.435424267280322"><ele>137.0</ele><time>2026-03-28T15:30:19Z</time></trkpt><trkpt lat="44.861196997894524" lon="8.435527357161863"><ele>135.66666666666666</ele><time>2026-03-28T15:30:20Z</time></trkpt><trkpt lat="44.86114508155238" lon="8.43562002183562"><ele>134.33333333333331</ele><time>2026-03-28T15:30:21Z</time></trkpt><trkpt lat="44.861103348318835" lon="8.43570881326569"><ele>133.0</ele><time>2026-03-28T15:30:22Z</time></trkpt><trkpt lat="44.86108334874421" lon="8.435827859102472"><ele>131.66666666666666</ele><time>2026-03-28T15:30:25Z</time></trkpt><trkpt lat="44.86114074418686" lon="8.435950231256653"><ele>130.33333333333334</ele><time>2026-03-28T15:30:27Z</time></trkpt><trkpt lat="44.86120534442639" lon="8.436041564061023"><ele>129.0</ele><time>2026-03-28T15:30:28Z</time></trkpt><trkpt lat="44.861260043448034" lon="8.436135430831444"><ele>129.0</ele><time>2026-03-28T15:30:29Z</time></trkpt><trkpt lat="44.86131260532402" lon="8.436192644992063"><ele>129.0</ele><time>2026-03-28T15:30:30Z</time></trkpt><trkpt lat="44.86135244741102" lon="8.436276777375978"><ele>129.0</ele><time>2026-03-28T15:30:31Z</time></trkpt><trkpt lat="44.86138853244111" lon="8.436449358810629"><ele>129.0</ele><time>2026-03-28T15:30:33Z</time></trkpt><trkpt lat="44.86136110933124" lon="8.43663214051005"><ele>129.0</ele><time>2026-03-28T15:30:35Z</time></trkpt><trkpt lat="44.86134034826089" lon="8.436727755788814"><ele>129.33333333333334</ele><time>2026-03-28T15:30:36Z</time></trkpt><trkpt lat="44.86130987744549" lon="8.43684214808088"><ele>129.66666666666666</ele><time>2026-03-28T15:30:37Z</time></trkpt><trkpt lat="44.861279368821755" lon="8.43694529885657"><ele>130.0</ele><time>2026-03-28T15:30:38Z</time></trkpt><trkpt lat="44.86127298737137" lon="8.43705614090836"><ele>130.33333333333331</ele><time>2026-03-28T15:30:39Z</time></trkpt><trkpt lat="44.86127213499926" lon="8.437160576114751"><ele>130.66666666666666</ele><time>2026-03-28T15:30:40Z</time></trkpt><trkpt lat="44.861257927829904" lon="8.437250090937793"><ele>131.0</ele><time>2026-03-28T15:30:41Z</time></trkpt><trkpt lat="44.86125954072648" lon="8.437362940045908"><ele>131.0</ele><time>2026-03-28T15:30:42Z</time></trkpt><trkpt lat="44.86123799170188" lon="8.437482141964939"><ele>131.0</ele><time>2026-03-28T15:30:43Z</time></trkpt><trkpt lat="44.86122435919013" lon="8.437584349652715"><ele>131.0</ele><time>2026-03-28T15:30:44Z</time></trkpt><trkpt lat="44.861221253353115" lon="8.437681478706786"><ele>131.0</ele><time>2026-03-28T15:30:45Z</time></trkpt><trkpt lat="44.8612259893828" lon="8.437834607906757"><ele>131.0</ele><time>2026-03-28T15:30:47Z</time></trkpt><trkpt lat="44.86123373788867" lon="8.43793554651171"><ele>131.0</ele><time>2026-03-28T15:30:48Z</time></trkpt><trkpt lat="44.861238447837636" lon="8.438048827728139"><ele>132.16666666666666</ele><time>2026-03-28T15:30:49Z</time></trkpt><trkpt lat="44.86124040404669" lon="8.438166489542722"><ele>133.33333333333331</ele><time>2026-03-28T15:30:50Z</time></trkpt><trkpt lat="44.861241167199" lon="8.4382822311546"><ele>134.5</ele><time>2026-03-28T15:30:51Z</time></trkpt><trkpt lat="44.86124703703665" lon="8.438400308217572"><ele>135.66666666666666</ele><time>2026-03-28T15:30:52Z</time></trkpt><trkpt lat="44.86125100077789" lon="8.438530430156327"><ele>136.83333333333334</ele><time>2026-03-28T15:30:53Z</time></trkpt><trkpt lat="44.86124975555562" lon="8.438631176479745"><ele>138.0</ele><time>2026-03-28T15:30:54Z</time></trkpt><trkpt lat="44.86123256213494" lon="8.438728451757548"><ele>138.0</ele><time>2026-03-28T15:30:56Z</time></trkpt><trkpt lat="44.861182225835755" lon="8.438783630281723"><ele>138.0</ele><time>2026-03-28T15:30:58Z</time></trkpt><trkpt lat="44.8610886613071" lon="8.438858297801183"><ele>138.0</ele><time>2026-03-28T15:31:00Z</time></trkpt><trkpt lat="44.861003529197" lon="8.438895151755096"><ele>138.0</ele><time>2026-03-28T15:31:02Z</time></trkpt><trkpt lat="44.860895130783646" lon="8.438929770760902"><ele>138.0</ele><time>2026-03-28T15:31:04Z</time></trkpt><trkpt lat="44.86080127386396" lon="8.438851947263721"><ele>138.5</ele><time>2026-03-28T15:31:05Z</time></trkpt><trkpt lat="44.86074643758689" lon="8.438900400134715"><ele>139.0</ele><time>2026-03-28T15:31:07Z</time></trkpt><trkpt lat="44.86067812169713" lon="8.438951633218895"><ele>139.5</ele><time>2026-03-28T15:31:09Z</time></trkpt><trkpt lat="44.860601153071585" lon="8.438983873736367"><ele>140.0</ele><time>2026-03-28T15:31:10Z</time></trkpt><trkpt lat="44.86050575868228" lon="8.438985721568516"><ele>140.5</ele><time>2026-03-28T15:31:11Z</time></trkpt><trkpt lat="44.860396389881224" lon="8.43901015858363"><ele>141.0</ele><time>2026-03-28T15:31:12Z</time></trkpt><trkpt lat="44.86027642342293" lon="8.4390369634922"><ele>141.0</ele><time>2026-03-28T15:31:13Z</time></trkpt><trkpt lat="44.86014117808186" lon="8.43906718225396"><ele>141.0</ele><time>2026-03-28T15:31:14Z</time></trkpt><trkpt lat="44.86000339167843" lon="8.439097941226741"><ele>141.0</ele><time>2026-03-28T15:31:15Z</time></trkpt><trkpt lat="44.859861709460006" lon="8.43913124503376"><ele>141.0</ele><time>2026-03-28T15:31:16Z</time></trkpt><trkpt lat="44.85972135463241" lon="8.439186260660069"><ele>141.25</ele><time>2026-03-28T15:31:17Z</time></trkpt><trkpt lat="44.85957669169768" lon="8.439227039525912"><ele>141.5</ele><time>2026-03-28T15:31:18Z</time></trkpt><trkpt lat="44.85944730113386" lon="8.439261590849624"><ele>141.75</ele><time>2026-03-28T15:31:19Z</time></trkpt><trkpt lat="44.85931101502543" lon="8.43929206690156"><ele>142.0</ele><time>2026-03-28T15:31:20Z</time></trkpt><trkpt lat="44.85916868594597" lon="8.43932169230398"><ele>141.25</ele><time>2026-03-28T15:31:21Z</time></trkpt><trkpt lat="44.85902359963321" lon="8.439328932586546"><ele>140.5</ele><time>2026-03-28T15:31:22Z</time></trkpt><trkpt lat="44.85887030586827" lon="8.439346460179161"><ele>139.75</ele><time>2026-03-28T15:31:23Z</time></trkpt><trkpt lat="44.85872374256728" lon="8.439384309335589"><ele>139.0</ele><time>2026-03-28T15:31:24Z</time></trkpt><trkpt lat="44.85857320986356" lon="8.439398481515502"><ele>139.0</ele><time>2026-03-28T15:31:25Z</time></trkpt><trkpt lat="44.85842930806182" lon="8.439430889428383"><ele>139.0</ele><time>2026-03-28T15:31:26Z</time></trkpt><trkpt lat="44.85828977040314" lon="8.439481953036124"><ele>139.0</ele><time>2026-03-28T15:31:27Z</time></trkpt><trkpt lat="44.85815610135277" lon="8.439533466281633"><ele>139.0</ele><time>2026-03-28T15:31:28Z</time></trkpt><trkpt lat="44.858023626729576" lon="8.439584064405036"><ele>138.75</ele><time>2026-03-28T15:31:29Z</time></trkpt><trkpt lat="44.85788641007788" lon="8.439635151516228"><ele>138.5</ele><time>2026-03-28T15:31:30Z</time></trkpt><trkpt lat="44.85775414636258" lon="8.439686977382744"><ele>138.25</ele><time>2026-03-28T15:31:31Z</time></trkpt><trkpt lat="44.857611396951924" lon="8.439713121935286"><ele>138.0</ele><time>2026-03-28T15:31:32Z</time></trkpt><trkpt lat="44.857482298738596" lon="8.439757287199091"><ele>139.0</ele><time>2026-03-28T15:31:33Z</time></trkpt><trkpt lat="44.85734963802617" lon="8.439802324030605"><ele>140.0</ele><time>2026-03-28T15:31:34Z</time></trkpt><trkpt lat="44.85721933128224" lon="8.439846563596435"><ele>141.0</ele><time>2026-03-28T15:31:35Z</time></trkpt><trkpt lat="44.857095371429246" lon="8.439906365208694"><ele>142.0</ele><time>2026-03-28T15:31:36Z</time></trkpt><trkpt lat="44.856965637290045" lon="8.439948993234692"><ele>142.0</ele><time>2026-03-28T15:31:37Z</time></trkpt><trkpt lat="44.856837438614924" lon="8.439995584225587"><ele>142.0</ele><time>2026-03-28T15:31:38Z</time></trkpt><trkpt lat="44.856710524072035" lon="8.440040128022604"><ele>142.0</ele><time>2026-03-28T15:31:39Z</time></trkpt><trkpt lat="44.85659494633691" lon="8.440077714381502"><ele>142.0</ele><time>2026-03-28T15:31:40Z</time></trkpt><trkpt lat="44.85649104177705" lon="8.44010904223467"><ele>142.66666666666669</ele><time>2026-03-28T15:31:41Z</time></trkpt><trkpt lat="44.85641306572792" lon="8.440139804970395"><ele>143.33333333333334</ele><time>2026-03-28T15:31:42Z</time></trkpt><trkpt lat="44.856343178013226" lon="8.4401411277923"><ele>144.0</ele><time>2026-03-28T15:31:43Z</time></trkpt><trkpt lat="44.8562647963445" lon="8.440156296446634"><ele>144.66666666666666</ele><time>2026-03-28T15:31:45Z</time></trkpt><trkpt lat="44.85624152277633" lon="8.44005316106233"><ele>145.33333333333331</ele><time>2026-03-28T15:31:47Z</time></trkpt><trkpt lat="44.856229067282534" lon="8.439938418955006"><ele>146.0</ele><time>2026-03-28T15:31:48Z</time></trkpt><trkpt lat="44.856211147698644" lon="8.43982260418194"><ele>146.0</ele><time>2026-03-28T15:31:49Z</time></trkpt><trkpt lat="44.85619343189839" lon="8.439685970570064"><ele>146.0</ele><time>2026-03-28T15:31:50Z</time></trkpt><trkpt lat="44.85618551761188" lon="8.439536732300946"><ele>146.0</ele><time>2026-03-28T15:31:51Z</time></trkpt><trkpt lat="44.856173403654715" lon="8.439389340215822"><ele>146.0</ele><time>2026-03-28T15:31:52Z</time></trkpt><trkpt lat="44.85617121376624" lon="8.439231075408404"><ele>146.0</ele><time>2026-03-28T15:31:53Z</time></trkpt><trkpt lat="44.856156389140544" lon="8.43906221264376"><ele>146.0</ele><time>2026-03-28T15:31:54Z</time></trkpt><trkpt lat="44.85614179494747" lon="8.438895974821824"><ele>146.0</ele><time>2026-03-28T15:31:55Z</time></trkpt><trkpt lat="44.856127009474385" lon="8.43872755808264"><ele>146.0</ele><time>2026-03-28T15:31:56Z</time></trkpt><trkpt lat="44.856112585284116" lon="8.438563256730705"><ele>146.0</ele><time>2026-03-28T15:31:57Z</time></trkpt><trkpt lat="44.8560866562827" lon="8.438419549151247"><ele>146.0</ele><time>2026-03-28T15:31:58Z</time></trkpt><trkpt lat="44.85607556157716" lon="8.438256117599066"><ele>146.0</ele><time>2026-03-28T15:31:59Z</time></trkpt><trkpt lat="44.85607181270804" lon="8.43809253684711"><ele>146.0</ele><time>2026-03-28T15:32:00Z</time></trkpt><trkpt lat="44.856060830477524" lon="8.437929837131353"><ele>146.0</ele><time>2026-03-28T15:32:01Z</time></trkpt><trkpt lat="44.856051263681124" lon="8.437767274974311"><ele>145.75</ele><time>2026-03-28T15:32:02Z</time></trkpt><trkpt lat="44.856042020474135" lon="8.437599393504607"><ele>145.5</ele><time>2026-03-28T15:32:03Z</time></trkpt><trkpt lat="44.85603346803515" lon="8.437427378529385"><ele>145.25</ele><time>2026-03-28T15:32:04Z</time></trkpt><trkpt lat="44.85602744754662" lon="8.4372527809772"><ele>145.0</ele><time>2026-03-28T15:32:05Z</time></trkpt><trkpt lat="44.856025449632895" lon="8.43707767805628"><ele>145.5</ele><time>2026-03-28T15:32:06Z</time></trkpt><trkpt lat="44.8560120632492" lon="8.43690878226745"><ele>146.0</ele><time>2026-03-28T15:32:07Z</time></trkpt><trkpt lat="44.856013673076006" lon="8.436726541371513"><ele>146.5</ele><time>2026-03-28T15:32:08Z</time></trkpt><trkpt lat="44.8560367302967" lon="8.436543212957407"><ele>147.0</ele><time>2026-03-28T15:32:09Z</time></trkpt><trkpt lat="44.856045691811296" lon="8.436360290484709"><ele>147.0</ele><time>2026-03-28T15:32:10Z</time></trkpt><trkpt lat="44.85605727998327" lon="8.436174410241517"><ele>147.0</ele><time>2026-03-28T15:32:11Z</time></trkpt><trkpt lat="44.85607144185203" lon="8.435985035481865"><ele>147.0</ele><time>2026-03-28T15:32:12Z</time></trkpt><trkpt lat="44.856085871193" lon="8.435792084016706"><ele>147.0</ele><time>2026-03-28T15:32:13Z</time></trkpt><trkpt lat="44.85608331656557" lon="8.435593567068056"><ele>147.5</ele><time>2026-03-28T15:32:14Z</time></trkpt><trkpt lat="44.85611187743756" lon="8.435412085646453"><ele>148.0</ele><time>2026-03-28T15:32:15Z</time></trkpt><trkpt lat="44.856135065077" lon="8.43522184154772"><ele>148.5</ele><time>2026-03-28T15:32:16Z</time></trkpt><trkpt lat="44.8561126191111" lon="8.435026015021593"><ele>149.0</ele><time>2026-03-28T15:32:17Z</time></trkpt><trkpt lat="44.856123891187494" lon="8.434843066690956"><ele>149.0</ele><time>2026-03-28T15:32:18Z</time></trkpt><trkpt lat="44.856146251153106" lon="8.434658185478328"><ele>149.0</ele><time>2026-03-28T15:32:19Z</time></trkpt><trkpt lat="44.8561619037843" lon="8.434459877103821"><ele>149.0</ele><time>2026-03-28T15:32:20Z</time></trkpt><trkpt lat="44.85617025452019" lon="8.434267263604786"><ele>149.0</ele><time>2026-03-28T15:32:21Z</time></trkpt><trkpt lat="44.85618042411129" lon="8.43406761048588"><ele>149.0</ele><time>2026-03-28T15:32:22Z</time></trkpt><trkpt lat="44.856192977821905" lon="8.433867107734352"><ele>149.0</ele><time>2026-03-28T15:32:23Z</time></trkpt><trkpt lat="44.856204544274846" lon="8.433669604312465"><ele>149.0</ele><time>2026-03-28T15:32:24Z</time></trkpt><trkpt lat="44.85621417335418" lon="8.43348180906466"><ele>149.0</ele><time>2026-03-28T15:32:25Z</time></trkpt><trkpt lat="44.85623944671742" lon="8.43330974707297"><ele>149.25</ele><time>2026-03-28T15:32:26Z</time></trkpt><trkpt lat="44.85624372150415" lon="8.433121916439275"><ele>149.5</ele><time>2026-03-28T15:32:27Z</time></trkpt><trkpt lat="44.85626324733204" lon="8.432931424980087"><ele>149.75</ele><time>2026-03-28T15:32:28Z</time></trkpt><trkpt lat="44.85628366506486" lon="8.432739710911797"><ele>150.0</ele><time>2026-03-28T15:32:29Z</time></trkpt><trkpt lat="44.85631394824306" lon="8.432548406347731"><ele>149.75</ele><time>2026-03-28T15:32:30Z</time></trkpt><trkpt lat="44.85632908730272" lon="8.432361275195834"><ele>149.5</ele><time>2026-03-28T15:32:31Z</time></trkpt><trkpt lat="44.856346100819344" lon="8.432170966063097"><ele>149.25</ele><time>2026-03-28T15:32:32Z</time></trkpt><trkpt lat="44.85636281791753" lon="8.431980830515373"><ele>149.0</ele><time>2026-03-28T15:32:33Z</time></trkpt><trkpt lat="44.85638589673993" lon="8.431788116471159"><ele>149.0</ele><time>2026-03-28T15:32:34Z</time></trkpt><trkpt lat="44.8564114642346" lon="8.431597929607467"><ele>149.0</ele><time>2026-03-28T15:32:35Z</time></trkpt><trkpt lat="44.85644136734465" lon="8.431408433260742"><ele>149.0</ele><time>2026-03-28T15:32:36Z</time></trkpt><trkpt lat="44.85646445126303" lon="8.43121749987792"><ele>149.0</ele><time>2026-03-28T15:32:37Z</time></trkpt><trkpt lat="44.85650362786598" lon="8.431040797966265"><ele>149.2</ele><time>2026-03-28T15:32:38Z</time></trkpt><trkpt lat="44.856524683443325" lon="8.430867877954364"><ele>149.4</ele><time>2026-03-28T15:32:39Z</time></trkpt><trkpt lat="44.856526970778006" lon="8.430709970447735"><ele>149.6</ele><time>2026-03-28T15:32:40Z</time></trkpt><trkpt lat="44.856547419849925" lon="8.430567451898646"><ele>149.8</ele><time>2026-03-28T15:32:41Z</time></trkpt><trkpt lat="44.85655799851116" lon="8.43044126673999"><ele>150.0</ele><time>2026-03-28T15:32:42Z</time></trkpt><trkpt lat="44.856569543973265" lon="8.430322206357271"><ele>150.0</ele><time>2026-03-28T15:32:43Z</time></trkpt><trkpt lat="44.856584353849364" lon="8.43020531980087"><ele>150.0</ele><time>2026-03-28T15:32:44Z</time></trkpt><trkpt lat="44.85659750297283" lon="8.430073293851283"><ele>150.0</ele><time>2026-03-28T15:32:45Z</time></trkpt><trkpt lat="44.856627403836455" lon="8.42995062892285"><ele>150.0</ele><time>2026-03-28T15:32:46Z</time></trkpt><trkpt lat="44.856642138420305" lon="8.429813710308286"><ele>150.0</ele><time>2026-03-28T15:32:47Z</time></trkpt><trkpt lat="44.85663789393903" lon="8.429672924945441"><ele>150.0</ele><time>2026-03-28T15:32:48Z</time></trkpt><trkpt lat="44.85663935548499" lon="8.429528768876176"><ele>150.0</ele><time>2026-03-28T15:32:49Z</time></trkpt><trkpt lat="44.85663260875827" lon="8.429385145643963"><ele>150.0</ele><time>2026-03-28T15:32:50Z</time></trkpt><trkpt lat="44.85663968604537" lon="8.42925038235975"><ele>150.0</ele><time>2026-03-28T15:32:51Z</time></trkpt><trkpt lat="44.85662474218327" lon="8.42912790579535"><ele>150.0</ele><time>2026-03-28T15:32:52Z</time></trkpt><trkpt lat="44.85659459251223" lon="8.429003874895445"><ele>150.0</ele><time>2026-03-28T15:32:53Z</time></trkpt><trkpt lat="44.856585063315556" lon="8.428869676710361"><ele>150.0</ele><time>2026-03-28T15:32:54Z</time></trkpt><trkpt lat="44.856574796084345" lon="8.42872900833798"><ele>150.0</ele><time>2026-03-28T15:32:55Z</time></trkpt><trkpt lat="44.85656374633493" lon="8.428597233851757"><ele>150.0</ele><time>2026-03-28T15:32:56Z</time></trkpt><trkpt lat="44.856560072377725" lon="8.42846265289285"><ele>150.0</ele><time>2026-03-28T15:32:57Z</time></trkpt><trkpt lat="44.85655518777226" lon="8.428329776187296"><ele>150.0</ele><time>2026-03-28T15:32:58Z</time></trkpt><trkpt lat="44.85654926575589" lon="8.428204610242508"><ele>150.0</ele><time>2026-03-28T15:32:59Z</time></trkpt><trkpt lat="44.85653830580617" lon="8.428096414969946"><ele>150.0</ele><time>2026-03-28T15:33:00Z</time></trkpt><trkpt lat="44.856525057173364" lon="8.427998143024698"><ele>150.0</ele><time>2026-03-28T15:33:02Z</time></trkpt><trkpt lat="44.8562417727081" lon="8.428063322881997"><ele>150.0</ele><time>2026-03-28T15:33:09Z</time></trkpt><trkpt lat="44.85616627913007" lon="8.428044377641218"><ele>150.0</ele><time>2026-03-28T15:33:10Z</time></trkpt><trkpt lat="44.856081239024775" lon="8.428009346693473"><ele>150.0</ele><time>2026-03-28T15:33:11Z</time></trkpt><trkpt lat="44.85600875407583" lon="8.427961347202803"><ele>150.0</ele><time>2026-03-28T15:33:12Z</time></trkpt><trkpt lat="44.85592667359972" lon="8.427909345010269"><ele>150.0</ele><time>2026-03-28T15:33:13Z</time></trkpt><trkpt lat="44.85585833482971" lon="8.427865170675185"><ele>150.0</ele><time>2026-03-28T15:33:14Z</time></trkpt><trkpt lat="44.85575809146657" lon="8.427871355286785"><ele>150.28571428571428</ele><time>2026-03-28T15:33:16Z</time></trkpt><trkpt lat="44.855699489866375" lon="8.427922892309548"><ele>150.57142857142856</ele><time>2026-03-28T15:33:17Z</time></trkpt><trkpt lat="44.85564458434029" lon="8.427988539281072"><ele>150.85714285714283</ele><time>2026-03-28T15:33:18Z</time></trkpt><trkpt lat="44.85557791959215" lon="8.42804785276832"><ele>151.14285714285714</ele><time>2026-03-28T15:33:19Z</time></trkpt><trkpt lat="44.855515934369926" lon="8.42809773339501"><ele>151.42857142857144</ele><time>2026-03-28T15:33:20Z</time></trkpt><trkpt lat="44.85545677973638" lon="8.428150738009318"><ele>151.7142857142857</ele><time>2026-03-28T15:33:21Z</time></trkpt><trkpt lat="44.855397316144135" lon="8.428202625565504"><ele>152.0</ele><time>2026-03-28T15:33:22Z</time></trkpt><trkpt lat="44.85529766399745" lon="8.428315289212945"><ele>151.16666666666666</ele><time>2026-03-28T15:33:24Z</time></trkpt><trkpt lat="44.85523697422212" lon="8.428372458297046"><ele>150.33333333333331</ele><time>2026-03-28T15:33:25Z</time></trkpt><trkpt lat="44.855179458910385" lon="8.428437628664982"><ele>149.5</ele><time>2026-03-28T15:33:26Z</time></trkpt><trkpt lat="44.8551328987394" lon="8.428499146859357"><ele>148.66666666666666</ele><time>2026-03-28T15:33:27Z</time></trkpt><trkpt lat="44.85507478420922" lon="8.428543054235925"><ele>147.83333333333334</ele><time>2026-03-28T15:33:28Z</time></trkpt><trkpt lat="44.85499157605054" lon="8.428521624225624"><ele>147.0</ele><time>2026-03-28T15:33:30Z</time></trkpt><trkpt lat="44.854891407547186" lon="8.428452588528694"><ele>146.0</ele><time>2026-03-28T15:33:32Z</time></trkpt><trkpt lat="44.85487178269484" lon="8.428366646465932"><ele>145.0</ele><time>2026-03-28T15:33:33Z</time></trkpt><trkpt lat="44.854850088956226" lon="8.428278334827423"><ele>144.0</ele><time>2026-03-28T15:33:34Z</time></trkpt><trkpt lat="44.85482509068715" lon="8.428183975005538"><ele>143.0</ele><time>2026-03-28T15:33:35Z</time></trkpt><trkpt lat="44.854798271884" lon="8.428088670257905"><ele>142.0</ele><time>2026-03-28T15:33:36Z</time></trkpt><trkpt lat="44.85477844209467" lon="8.428001210892415"><ele>141.0</ele><time>2026-03-28T15:33:37Z</time></trkpt><trkpt lat="44.85471446880158" lon="8.427935111065455"><ele>140.0</ele><time>2026-03-28T15:33:39Z</time></trkpt><trkpt lat="44.85463715316275" lon="8.427922451503765"><ele>140.0</ele><time>2026-03-28T15:33:41Z</time></trkpt><trkpt lat="44.85460664166816" lon="8.427838698111872"><ele>140.0</ele><time>2026-03-28T15:33:43Z</time></trkpt><trkpt lat="44.85460409622468" lon="8.427728360007926"><ele>140.0</ele><time>2026-03-28T15:33:44Z</time></trkpt><trkpt lat="44.854582439444684" lon="8.427620440859776"><ele>140.0</ele><time>2026-03-28T15:33:45Z</time></trkpt><trkpt lat="44.854537851195914" lon="8.427522810365682"><ele>140.0</ele><time>2026-03-28T15:33:46Z</time></trkpt><trkpt lat="44.854517984445366" lon="8.427423682631636"><ele>140.0</ele><time>2026-03-28T15:33:47Z</time></trkpt><trkpt lat="44.85447847160226" lon="8.42732982057873"><ele>140.0</ele><time>2026-03-28T15:33:48Z</time></trkpt><trkpt lat="44.854427225470154" lon="8.427193929849915"><ele>140.0</ele><time>2026-03-28T15:33:49Z</time></trkpt><trkpt lat="44.85439085638131" lon="8.427082524556871"><ele>140.0</ele><time>2026-03-28T15:33:50Z</time></trkpt><trkpt lat="44.854343500451705" lon="8.427008084274688"><ele>140.0</ele><time>2026-03-28T15:33:51Z</time></trkpt><trkpt lat="44.85431249218861" lon="8.426912934866639"><ele>140.0</ele><time>2026-03-28T15:33:53Z</time></trkpt><trkpt lat="44.85427689902285" lon="8.4267952346251"><ele>140.0</ele><time>2026-03-28T15:33:55Z</time></trkpt><trkpt lat="44.85420686982027" lon="8.426737619166882"><ele>139.33333333333331</ele><time>2026-03-28T15:33:58Z</time></trkpt><trkpt lat="44.85414316529793" lon="8.426771714883667"><ele>138.66666666666666</ele><time>2026-03-28T15:34:00Z</time></trkpt><trkpt lat="44.85408478727497" lon="8.426839903395733"><ele>138.0</ele><time>2026-03-28T15:34:03Z</time></trkpt><trkpt lat="44.85406644306447" lon="8.426983614128812"><ele>137.33333333333334</ele><time>2026-03-28T15:34:06Z</time></trkpt><trkpt lat="44.85402037292175" lon="8.427068787197813"><ele>136.66666666666669</ele><time>2026-03-28T15:34:08Z</time></trkpt><trkpt lat="44.85394491129837" lon="8.42705099712559"><ele>136.0</ele><time>2026-03-28T15:34:12Z</time></trkpt><trkpt lat="44.853877309301765" lon="8.427124916345667"><ele>136.0</ele><time>2026-03-28T15:34:15Z</time></trkpt><trkpt lat="44.853853677061814" lon="8.427212459442645"><ele>136.0</ele><time>2026-03-28T15:34:17Z</time></trkpt><trkpt lat="44.85369223389727" lon="8.427328078146902"><ele>136.0</ele><time>2026-03-28T15:34:19Z</time></trkpt><trkpt lat="44.85361671066807" lon="8.42726937236065"><ele>136.0</ele><time>2026-03-28T15:34:21Z</time></trkpt><trkpt lat="44.85356846237682" lon="8.427205837230833"><ele>136.0</ele><time>2026-03-28T15:34:22Z</time></trkpt><trkpt lat="44.8535139352884" lon="8.427106837145852"><ele>134.8</ele><time>2026-03-28T15:34:23Z</time></trkpt><trkpt lat="44.85344993905967" lon="8.427011305628339"><ele>133.6</ele><time>2026-03-28T15:34:24Z</time></trkpt><trkpt lat="44.853373930287574" lon="8.426935989040894"><ele>132.4</ele><time>2026-03-28T15:34:25Z</time></trkpt><trkpt lat="44.853298713542685" lon="8.426865664310485"><ele>131.2</ele><time>2026-03-28T15:34:26Z</time></trkpt><trkpt lat="44.85322073670232" lon="8.42678256085989"><ele>130.0</ele><time>2026-03-28T15:34:27Z</time></trkpt><trkpt lat="44.853157216265075" lon="8.426698142181568"><ele>130.0</ele><time>2026-03-28T15:34:28Z</time></trkpt><trkpt lat="44.85309205075916" lon="8.426621347423401"><ele>130.0</ele><time>2026-03-28T15:34:29Z</time></trkpt><trkpt lat="44.85302408715726" lon="8.426536858873101"><ele>130.0</ele><time>2026-03-28T15:34:30Z</time></trkpt><trkpt lat="44.8529533183933" lon="8.426456959991249"><ele>130.0</ele><time>2026-03-28T15:34:31Z</time></trkpt><trkpt lat="44.85287782264932" lon="8.426371444904596"><ele>130.0</ele><time>2026-03-28T15:34:32Z</time></trkpt><trkpt lat="44.8528077616043" lon="8.426293287436806"><ele>130.00000000000003</ele><time>2026-03-28T15:34:33Z</time></trkpt><trkpt lat="44.852753112030356" lon="8.426238333498162"><ele>130.0</ele><time>2026-03-28T15:34:34Z</time></trkpt><trkpt lat="44.85270198124131" lon="8.42616821453747"><ele>130.0</ele><time>2026-03-28T15:34:35Z</time></trkpt><trkpt lat="44.85264946019743" lon="8.426108418751157"><ele>130.0</ele><time>2026-03-28T15:34:36Z</time></trkpt><trkpt lat="44.852594550634464" lon="8.426041340203852"><ele>130.0</ele><time>2026-03-28T15:34:37Z</time></trkpt><trkpt lat="44.852533590183526" lon="8.425972863886432"><ele>130.00000000000003</ele><time>2026-03-28T15:34:38Z</time></trkpt><trkpt lat="44.85248295214399" lon="8.425914751483774"><ele>130.0</ele><time>2026-03-28T15:34:39Z</time></trkpt><trkpt lat="44.85242381695043" lon="8.425853192984926"><ele>130.0</ele><time>2026-03-28T15:34:41Z</time></trkpt><trkpt lat="44.85245390762145" lon="8.425706865831955"><ele>130.0</ele><time>2026-03-28T15:34:45Z</time></trkpt><trkpt lat="44.852543534987944" lon="8.425554660506563"><ele>130.0</ele><time>2026-03-28T15:34:47Z</time></trkpt><trkpt lat="44.852600244636" lon="8.42546318605902"><ele>130.0</ele><time>2026-03-28T15:34:48Z</time></trkpt><trkpt lat="44.85266533934365" lon="8.425364509889997"><ele>130.0</ele><time>2026-03-28T15:34:49Z</time></trkpt><trkpt lat="44.85273217547405" lon="8.42526064262238"><ele>131.6</ele><time>2026-03-28T15:34:50Z</time></trkpt><trkpt lat="44.85277130343398" lon="8.42518991464877"><ele>133.2</ele><time>2026-03-28T15:34:51Z</time></trkpt><trkpt lat="44.852799753426304" lon="8.425100820240196"><ele>134.8</ele><time>2026-03-28T15:34:53Z</time></trkpt><trkpt lat="44.85289067349166" lon="8.424976415416165"><ele>136.4</ele><time>2026-03-28T15:34:55Z</time></trkpt><trkpt lat="44.85294595418637" lon="8.42485935303791"><ele>138.0</ele><time>2026-03-28T15:34:57Z</time></trkpt><trkpt lat="44.852885204122906" lon="8.424761828221568"><ele>138.0</ele><time>2026-03-28T15:34:59Z</time></trkpt><trkpt lat="44.85280095648923" lon="8.424717371703064"><ele>138.0</ele><time>2026-03-28T15:35:00Z</time></trkpt><trkpt lat="44.85270757322995" lon="8.424647572888722"><ele>138.0</ele><time>2026-03-28T15:35:01Z</time></trkpt><trkpt lat="44.85262672354129" lon="8.424567143734453"><ele>138.0</ele><time>2026-03-28T15:35:02Z</time></trkpt><trkpt lat="44.85252855959634" lon="8.424455143659893"><ele>138.0</ele><time>2026-03-28T15:35:03Z</time></trkpt><trkpt lat="44.852446709029806" lon="8.424353322714946"><ele>137.66666666666666</ele><time>2026-03-28T15:35:04Z</time></trkpt><trkpt lat="44.852382740353505" lon="8.42425307445714"><ele>137.33333333333334</ele><time>2026-03-28T15:35:05Z</time></trkpt><trkpt lat="44.85232686323363" lon="8.424167947887137"><ele>137.0</ele><time>2026-03-28T15:35:06Z</time></trkpt><trkpt lat="44.85226025769852" lon="8.424125325223637"><ele>136.66666666666669</ele><time>2026-03-28T15:35:07Z</time></trkpt><trkpt lat="44.85219323543559" lon="8.42406859681626"><ele>136.33333333333334</ele><time>2026-03-28T15:35:08Z</time></trkpt><trkpt lat="44.852148299579575" lon="8.424004310417443"><ele>136.0</ele><time>2026-03-28T15:35:09Z</time></trkpt><trkpt lat="44.852101381435865" lon="8.423925474394196"><ele>136.0</ele><time>2026-03-28T15:35:10Z</time></trkpt><trkpt lat="44.85204858390018" lon="8.4238491580111"><ele>136.0</ele><time>2026-03-28T15:35:11Z</time></trkpt><trkpt lat="44.85197111882271" lon="8.423740732835798"><ele>136.0</ele><time>2026-03-28T15:35:13Z</time></trkpt><trkpt lat="44.85190767072926" lon="8.423747187516552"><ele>136.0</ele><time>2026-03-28T15:35:15Z</time></trkpt><trkpt lat="44.851862148039835" lon="8.42383823448199"><ele>136.0</ele><time>2026-03-28T15:35:17Z</time></trkpt><trkpt lat="44.851848533999934" lon="8.423941767811899"><ele>136.0</ele><time>2026-03-28T15:35:19Z</time></trkpt><trkpt lat="44.85175414038255" lon="8.424026588061459"><ele>135.0</ele><time>2026-03-28T15:35:21Z</time></trkpt><trkpt lat="44.85168869463416" lon="8.424151017134314"><ele>134.0</ele><time>2026-03-28T15:35:23Z</time></trkpt><trkpt lat="44.85167139591349" lon="8.42425746645597"><ele>133.0</ele><time>2026-03-28T15:35:24Z</time></trkpt><trkpt lat="44.8516405903933" lon="8.424366908826773"><ele>132.0</ele><time>2026-03-28T15:35:25Z</time></trkpt><trkpt lat="44.85159823111991" lon="8.424477324487391"><ele>131.0</ele><time>2026-03-28T15:35:26Z</time></trkpt><trkpt lat="44.851539554573534" lon="8.424596664160397"><ele>130.8</ele><time>2026-03-28T15:35:27Z</time></trkpt><trkpt lat="44.8514812928073" lon="8.424710348081017"><ele>130.6</ele><time>2026-03-28T15:35:28Z</time></trkpt><trkpt lat="44.851426361245686" lon="8.424829922966016"><ele>130.4</ele><time>2026-03-28T15:35:29Z</time></trkpt><trkpt lat="44.8513687529921" lon="8.424946404735907"><ele>130.2</ele><time>2026-03-28T15:35:30Z</time></trkpt><trkpt lat="44.85132113279837" lon="8.425039545758878"><ele>130.0</ele><time>2026-03-28T15:35:31Z</time></trkpt><trkpt lat="44.851282615144356" lon="8.425122635542852"><ele>130.0</ele><time>2026-03-28T15:35:32Z</time></trkpt><trkpt lat="44.85124225695546" lon="8.425194514744673"><ele>130.0</ele><time>2026-03-28T15:35:33Z</time></trkpt><trkpt lat="44.851136712917004" lon="8.425206783781439"><ele>130.0</ele><time>2026-03-28T15:35:35Z</time></trkpt><trkpt lat="44.85108000386879" lon="8.425157592350509"><ele>130.0</ele><time>2026-03-28T15:35:36Z</time></trkpt><trkpt lat="44.851016059576324" lon="8.425100524099966"><ele>130.0</ele><time>2026-03-28T15:35:37Z</time></trkpt><trkpt lat="44.85094739315498" lon="8.425037499018037"><ele>130.0</ele><time>2026-03-28T15:35:38Z</time></trkpt><trkpt lat="44.85087480237741" lon="8.4249793620446"><ele>130.66666666666669</ele><time>2026-03-28T15:35:39Z</time></trkpt><trkpt lat="44.85079870955016" lon="8.424929998992322"><ele>131.33333333333334</ele><time>2026-03-28T15:35:40Z</time></trkpt><trkpt lat="44.850733790978886" lon="8.424934595880277"><ele>132.0</ele><time>2026-03-28T15:35:41Z</time></trkpt><trkpt lat="44.85065140489907" lon="8.424997212668595"><ele>132.66666666666666</ele><time>2026-03-28T15:35:43Z</time></trkpt><trkpt lat="44.850579979416025" lon="8.425077080252615"><ele>133.33333333333331</ele><time>2026-03-28T15:35:45Z</time></trkpt><trkpt lat="44.85049088735729" lon="8.425038568739435"><ele>134.0</ele><time>2026-03-28T15:35:47Z</time></trkpt><trkpt lat="44.85041240115082" lon="8.424937929973312"><ele>134.0</ele><time>2026-03-28T15:35:49Z</time></trkpt><trkpt lat="44.850369827032836" lon="8.424865132516828"><ele>134.0</ele><time>2026-03-28T15:35:50Z</time></trkpt><trkpt lat="44.85031215005358" lon="8.424802623111667"><ele>134.0</ele><time>2026-03-28T15:35:51Z</time></trkpt><trkpt lat="44.85025727579487" lon="8.424746157435118"><ele>134.0</ele><time>2026-03-28T15:35:52Z</time></trkpt><trkpt lat="44.85019823480601" lon="8.424694302537361"><ele>134.0</ele><time>2026-03-28T15:35:53Z</time></trkpt><trkpt lat="44.8501113359513" lon="8.424625494324106"><ele>134.0</ele><time>2026-03-28T15:35:55Z</time></trkpt><trkpt lat="44.850076050620785" lon="8.424537624681241"><ele>134.0</ele><time>2026-03-28T15:35:59Z</time></trkpt><trkpt lat="44.850112730533944" lon="8.424450142146625"><ele>133.33333333333331</ele><time>2026-03-28T15:36:01Z</time></trkpt><trkpt lat="44.85017928219588" lon="8.424336773813932"><ele>132.66666666666666</ele><time>2026-03-28T15:36:03Z</time></trkpt><trkpt lat="44.85022737436067" lon="8.424236088848623"><ele>132.0</ele><time>2026-03-28T15:36:05Z</time></trkpt><trkpt lat="44.85025554338124" lon="8.424133760241585"><ele>131.33333333333334</ele><time>2026-03-28T15:36:07Z</time></trkpt><trkpt lat="44.850296443405014" lon="8.424063007350128"><ele>130.66666666666669</ele><time>2026-03-28T15:36:10Z</time></trkpt><trkpt lat="44.85034154284675" lon="8.424166422989149"><ele>130.0</ele><time>2026-03-28T15:36:13Z</time></trkpt><trkpt lat="44.850258797188296" lon="8.424170065728973"><ele>130.0</ele><time>2026-03-28T15:36:15Z</time></trkpt><trkpt lat="44.85015615562159" lon="8.424145095732511"><ele>130.0</ele><time>2026-03-28T15:36:17Z</time></trkpt><trkpt lat="44.85010769463603" lon="8.424302752006172"><ele>130.0</ele><time>2026-03-28T15:36:19Z</time></trkpt><trkpt lat="44.85007417976285" lon="8.424381390176999"><ele>130.0</ele><time>2026-03-28T15:36:20Z</time></trkpt><trkpt lat="44.84998903742452" lon="8.424513585344927"><ele>130.0</ele><time>2026-03-28T15:36:22Z</time></trkpt><trkpt lat="44.84995838128269" lon="8.424604271000526"><ele>129.8</ele><time>2026-03-28T15:36:23Z</time></trkpt><trkpt lat="44.8498777384226" lon="8.424690902958877"><ele>129.6</ele><time>2026-03-28T15:36:25Z</time></trkpt><trkpt lat="44.84975965975617" lon="8.424703189763747"><ele>129.4</ele><time>2026-03-28T15:36:27Z</time></trkpt><trkpt lat="44.84968854435154" lon="8.424691279437477"><ele>129.2</ele><time>2026-03-28T15:36:28Z</time></trkpt><trkpt lat="44.849610163120005" lon="8.424660970957556"><ele>129.0</ele><time>2026-03-28T15:36:29Z</time></trkpt><trkpt lat="44.849521046123456" lon="8.424618456074905"><ele>129.0</ele><time>2026-03-28T15:36:30Z</time></trkpt><trkpt lat="44.84944246913983" lon="8.42456483107568"><ele>129.0</ele><time>2026-03-28T15:36:31Z</time></trkpt><trkpt lat="44.84936176596825" lon="8.424491798395866"><ele>129.0</ele><time>2026-03-28T15:36:32Z</time></trkpt><trkpt lat="44.849291542498" lon="8.424417608787689"><ele>129.0</ele><time>2026-03-28T15:36:33Z</time></trkpt><trkpt lat="44.84922314367545" lon="8.42434248262708"><ele>129.0</ele><time>2026-03-28T15:36:34Z</time></trkpt><trkpt lat="44.84915170217129" lon="8.4242880324893"><ele>129.0</ele><time>2026-03-28T15:36:35Z</time></trkpt><trkpt lat="44.849088250496436" lon="8.424248237933504"><ele>129.83333333333334</ele><time>2026-03-28T15:36:36Z</time></trkpt><trkpt lat="44.8490245862528" lon="8.424227326469056"><ele>130.66666666666666</ele><time>2026-03-28T15:36:37Z</time></trkpt><trkpt lat="44.84895643079449" lon="8.424239339253617"><ele>131.5</ele><time>2026-03-28T15:36:38Z</time></trkpt><trkpt lat="44.84889508130813" lon="8.424271123222644"><ele>132.33333333333331</ele><time>2026-03-28T15:36:39Z</time></trkpt><trkpt lat="44.8487792095461" lon="8.424252317382502"><ele>133.16666666666666</ele><time>2026-03-28T15:36:41Z</time></trkpt><trkpt lat="44.84865013374478" lon="8.424215588352991"><ele>134.0</ele><time>2026-03-28T15:36:43Z</time></trkpt><trkpt lat="44.84857179738807" lon="8.424204047148661"><ele>134.0</ele><time>2026-03-28T15:36:44Z</time></trkpt><trkpt lat="44.84850062336762" lon="8.424197624147935"><ele>134.0</ele><time>2026-03-28T15:36:45Z</time></trkpt><trkpt lat="44.84842984808209" lon="8.424175805527605"><ele>134.0</ele><time>2026-03-28T15:36:46Z</time></trkpt><trkpt lat="44.848362761883536" lon="8.42417680368364"><ele>134.0</ele><time>2026-03-28T15:36:47Z</time></trkpt><trkpt lat="44.848282042673105" lon="8.424185216038012"><ele>134.0</ele><time>2026-03-28T15:36:48Z</time></trkpt><trkpt lat="44.84821474350573" lon="8.424241940725173"><ele>134.0</ele><time>2026-03-28T15:36:49Z</time></trkpt><trkpt lat="44.84814968081859" lon="8.424306109235197"><ele>134.6</ele><time>2026-03-28T15:36:50Z</time></trkpt><trkpt lat="44.84805820169689" lon="8.424410060543783"><ele>135.2</ele><time>2026-03-28T15:36:52Z</time></trkpt><trkpt lat="44.84796511383991" lon="8.424457315978488"><ele>135.79999999999998</ele><time>2026-03-28T15:36:54Z</time></trkpt><trkpt lat="44.84787188915704" lon="8.424487544149148"><ele>136.4</ele><time>2026-03-28T15:36:56Z</time></trkpt><trkpt lat="44.847766380147235" lon="8.424473181851413"><ele>137.0</ele><time>2026-03-28T15:36:58Z</time></trkpt><trkpt lat="44.847661764712576" lon="8.424407202401936"><ele>137.0</ele><time>2026-03-28T15:37:00Z</time></trkpt><trkpt lat="44.84754775616517" lon="8.42433086746119"><ele>137.0</ele><time>2026-03-28T15:37:02Z</time></trkpt><trkpt lat="44.847451341821085" lon="8.424314729030774"><ele>137.0</ele><time>2026-03-28T15:37:04Z</time></trkpt><trkpt lat="44.84742476491947" lon="8.424397651625817"><ele>137.0</ele><time>2026-03-28T15:37:13Z</time></trkpt><trkpt lat="44.84745987263928" lon="8.424494300507757"><ele>137.0</ele><time>2026-03-28T15:37:25Z</time></trkpt><trkpt lat="44.847405153000416" lon="8.424550789651637"><ele>137.0</ele><time>2026-03-28T15:37:32Z</time></trkpt><trkpt lat="44.8473354269893" lon="8.424579691121801"><ele>137.0</ele><time>2026-03-28T15:37:34Z</time></trkpt><trkpt lat="44.847263861656344" lon="8.424611227639458"><ele>137.0</ele><time>2026-03-28T15:37:37Z</time></trkpt><trkpt lat="44.847207355781435" lon="8.424683155644244"><ele>137.0</ele><time>2026-03-28T15:37:45Z</time></trkpt><trkpt lat="44.84716405134724" lon="8.424780601464036"><ele>137.0</ele><time>2026-03-28T15:37:49Z</time></trkpt><trkpt lat="44.84711687117731" lon="8.424877833629221"><ele>137.0</ele><time>2026-03-28T15:37:52Z</time></trkpt><trkpt lat="44.84708434319768" lon="8.424967953849118"><ele>137.0</ele><time>2026-03-28T15:37:55Z</time></trkpt><trkpt lat="44.847095751287966" lon="8.425116994243638"><ele>139.0</ele><time>2026-03-28T15:37:57Z</time></trkpt><trkpt lat="44.84706916893948" lon="8.425255724355162"><ele>141.0</ele><time>2026-03-28T15:37:59Z</time></trkpt><trkpt lat="44.847074465258856" lon="8.425378094668035"><ele>143.0</ele><time>2026-03-28T15:38:02Z</time></trkpt><trkpt lat="44.847046010218236" lon="8.425460414402524"><ele>145.0</ele><time>2026-03-28T15:38:04Z</time></trkpt><trkpt lat="44.84708687340622" lon="8.425629544505915"><ele>147.0</ele><time>2026-03-28T15:38:07Z</time></trkpt><trkpt lat="44.847062007721824" lon="8.425713819916105"><ele>149.0</ele><time>2026-03-28T15:38:10Z</time></trkpt><trkpt lat="44.84703645587343" lon="8.425795362918308"><ele>150.71428571428572</ele><time>2026-03-28T15:38:13Z</time></trkpt><trkpt lat="44.84697993495334" lon="8.425859990352585"><ele>152.42857142857142</ele><time>2026-03-28T15:38:16Z</time></trkpt><trkpt lat="44.84695255977617" lon="8.425942331614381"><ele>154.14285714285714</ele><time>2026-03-28T15:38:18Z</time></trkpt><trkpt lat="44.846965016468616" lon="8.426045086033058"><ele>155.85714285714286</ele><time>2026-03-28T15:38:20Z</time></trkpt><trkpt lat="44.847033186849565" lon="8.426127622570252"><ele>157.57142857142856</ele><time>2026-03-28T15:38:22Z</time></trkpt><trkpt lat="44.84708835626935" lon="8.426176995531806"><ele>159.28571428571428</ele><time>2026-03-28T15:38:24Z</time></trkpt><trkpt lat="44.84708244611092" lon="8.426271008580475"><ele>161.0</ele><time>2026-03-28T15:38:35Z</time></trkpt><trkpt lat="44.84706627329412" lon="8.426362585892099"><ele>161.66666666666666</ele><time>2026-03-28T15:38:47Z</time></trkpt><trkpt lat="44.84704763156915" lon="8.42645754417633"><ele>162.33333333333331</ele><time>2026-03-28T15:39:12Z</time></trkpt><trkpt lat="44.847108979449985" lon="8.426517507931674"><ele>163.0</ele><time>2026-03-28T15:39:14Z</time></trkpt><trkpt lat="44.84708535111967" lon="8.426643538094162"><ele>163.66666666666666</ele><time>2026-03-28T15:39:18Z</time></trkpt><trkpt lat="44.84711751063565" lon="8.4267455962545"><ele>164.33333333333334</ele><time>2026-03-28T15:39:20Z</time></trkpt><trkpt lat="44.84715394109705" lon="8.42686102214104"><ele>165.0</ele><time>2026-03-28T15:39:26Z</time></trkpt><trkpt lat="44.84717762007845" lon="8.426953460141268"><ele>165.0</ele><time>2026-03-28T15:39:30Z</time></trkpt><trkpt lat="44.84713937441912" lon="8.42705425432641"><ele>165.0</ele><time>2026-03-28T15:39:34Z</time></trkpt><trkpt lat="44.84705128475986" lon="8.427077442080737"><ele>165.0</ele><time>2026-03-28T15:39:35Z</time></trkpt><trkpt lat="44.846972950703254" lon="8.427143513307051"><ele>165.0</ele><time>2026-03-28T15:39:36Z</time></trkpt><trkpt lat="44.84689012545488" lon="8.427245079607442"><ele>165.0</ele><time>2026-03-28T15:39:37Z</time></trkpt><trkpt lat="44.84678209982635" lon="8.427335056224177"><ele>165.25</ele><time>2026-03-28T15:39:38Z</time></trkpt><trkpt lat="44.84666008583095" lon="8.42740939650871"><ele>165.5</ele><time>2026-03-28T15:39:39Z</time></trkpt><trkpt lat="44.84651545676644" lon="8.427465526759432"><ele>165.75</ele><time>2026-03-28T15:39:40Z</time></trkpt><trkpt lat="44.846354372693376" lon="8.427523013942661"><ele>166.0</ele><time>2026-03-28T15:39:41Z</time></trkpt><trkpt lat="44.84620681723641" lon="8.427579349601999"><ele>166.0</ele><time>2026-03-28T15:39:42Z</time></trkpt><trkpt lat="44.846067539902435" lon="8.427631785801275"><ele>166.0</ele><time>2026-03-28T15:39:43Z</time></trkpt><trkpt lat="44.84595082748971" lon="8.42768396790167"><ele>166.0</ele><time>2026-03-28T15:39:44Z</time></trkpt><trkpt lat="44.84583636309572" lon="8.427736561709903"><ele>166.0</ele><time>2026-03-28T15:39:45Z</time></trkpt><trkpt lat="44.84571317181855" lon="8.427791390018987"><ele>166.25</ele><time>2026-03-28T15:39:46Z</time></trkpt><trkpt lat="44.84559138000211" lon="8.427834223467158"><ele>166.5</ele><time>2026-03-28T15:39:47Z</time></trkpt><trkpt lat="44.84546835066831" lon="8.427871002188102"><ele>166.75</ele><time>2026-03-28T15:39:48Z</time></trkpt><trkpt lat="44.84534559158744" lon="8.427895815161458"><ele>167.0</ele><time>2026-03-28T15:39:49Z</time></trkpt><trkpt lat="44.84523372029652" lon="8.427904171618211"><ele>167.0</ele><time>2026-03-28T15:39:50Z</time></trkpt><trkpt lat="44.84514139697411" lon="8.42787091942485"><ele>167.0</ele><time>2026-03-28T15:39:51Z</time></trkpt><trkpt lat="44.84503021480608" lon="8.427803896212264"><ele>167.0</ele><time>2026-03-28T15:39:52Z</time></trkpt><trkpt lat="44.84494830788714" lon="8.427812530971394"><ele>167.0</ele><time>2026-03-28T15:39:53Z</time></trkpt><trkpt lat="44.84484883592439" lon="8.427842376745994"><ele>167.0</ele><time>2026-03-28T15:39:54Z</time></trkpt><trkpt lat="44.844751300131" lon="8.427914474090642"><ele>167.25</ele><time>2026-03-28T15:39:55Z</time></trkpt><trkpt lat="44.844656605093284" lon="8.42800514248436"><ele>167.5</ele><time>2026-03-28T15:39:56Z</time></trkpt><trkpt lat="44.84455356244436" lon="8.428083642537768"><ele>167.75</ele><time>2026-03-28T15:39:57Z</time></trkpt><trkpt lat="44.84443632814257" lon="8.42812200726095"><ele>168.0</ele><time>2026-03-28T15:39:58Z</time></trkpt><trkpt lat="44.8443197515145" lon="8.428148322109456"><ele>168.0</ele><time>2026-03-28T15:39:59Z</time></trkpt><trkpt lat="44.844175508509096" lon="8.42814733671226"><ele>168.0</ele><time>2026-03-28T15:40:00Z</time></trkpt><trkpt lat="44.84405481254924" lon="8.428186042345402"><ele>168.0</ele><time>2026-03-28T15:40:01Z</time></trkpt><trkpt lat="44.8439343227271" lon="8.428229542488017"><ele>168.0</ele><time>2026-03-28T15:40:02Z</time></trkpt><trkpt lat="44.843808155494926" lon="8.428291912238306"><ele>168.0</ele><time>2026-03-28T15:40:03Z</time></trkpt><trkpt lat="44.84368301972047" lon="8.428354972023673"><ele>168.0</ele><time>2026-03-28T15:40:04Z</time></trkpt><trkpt lat="44.84354768816139" lon="8.428411556191717"><ele>168.0</ele><time>2026-03-28T15:40:05Z</time></trkpt><trkpt lat="44.843424356988415" lon="8.428465661535864"><ele>168.0</ele><time>2026-03-28T15:40:06Z</time></trkpt><trkpt lat="44.843328738883905" lon="8.42852763284974"><ele>168.0</ele><time>2026-03-28T15:40:07Z</time></trkpt><trkpt lat="44.84324222726277" lon="8.428608882247966"><ele>168.0</ele><time>2026-03-28T15:40:08Z</time></trkpt><trkpt lat="44.843154431091946" lon="8.428710420580018"><ele>168.0</ele><time>2026-03-28T15:40:09Z</time></trkpt><trkpt lat="44.84307305069363" lon="8.428842469149629"><ele>168.0</ele><time>2026-03-28T15:40:10Z</time></trkpt><trkpt lat="44.84300194947388" lon="8.428991096331051"><ele>168.0</ele><time>2026-03-28T15:40:11Z</time></trkpt><trkpt lat="44.84293501279019" lon="8.429143884857341"><ele>168.0</ele><time>2026-03-28T15:40:12Z</time></trkpt><trkpt lat="44.84286828125368" lon="8.429290023931767"><ele>168.0</ele><time>2026-03-28T15:40:13Z</time></trkpt><trkpt lat="44.842793377271896" lon="8.429426402279558"><ele>168.0</ele><time>2026-03-28T15:40:14Z</time></trkpt><trkpt lat="44.84271299713864" lon="8.429560038866375"><ele>167.75</ele><time>2026-03-28T15:40:15Z</time></trkpt><trkpt lat="44.842638763831054" lon="8.429691390812247"><ele>167.5</ele><time>2026-03-28T15:40:16Z</time></trkpt><trkpt lat="44.842563860097556" lon="8.429828722606375"><ele>167.25</ele><time>2026-03-28T15:40:17Z</time></trkpt><trkpt lat="44.842498412664895" lon="8.42997908549581"><ele>167.0</ele><time>2026-03-28T15:40:18Z</time></trkpt><trkpt lat="44.84244076599319" lon="8.430136585471276"><ele>167.5</ele><time>2026-03-28T15:40:19Z</time></trkpt><trkpt lat="44.84238574245492" lon="8.430298353443142"><ele>168.0</ele><time>2026-03-28T15:40:20Z</time></trkpt><trkpt lat="44.84233969190718" lon="8.430451158400265"><ele>168.5</ele><time>2026-03-28T15:40:21Z</time></trkpt><trkpt lat="44.84227494293988" lon="8.430605601026029"><ele>169.0</ele><time>2026-03-28T15:40:22Z</time></trkpt><trkpt lat="44.84221302692027" lon="8.43075908339968"><ele>169.0</ele><time>2026-03-28T15:40:23Z</time></trkpt><trkpt lat="44.84214953229889" lon="8.430901780135352"><ele>169.0</ele><time>2026-03-28T15:40:24Z</time></trkpt><trkpt lat="44.8420924416552" lon="8.431019262518161"><ele>169.0</ele><time>2026-03-28T15:40:25Z</time></trkpt><trkpt lat="44.84203840001448" lon="8.43112544619527"><ele>169.0</ele><time>2026-03-28T15:40:26Z</time></trkpt><trkpt lat="44.84198474753018" lon="8.431205786448064"><ele>169.0</ele><time>2026-03-28T15:40:27Z</time></trkpt><trkpt lat="44.841919877166745" lon="8.431284751194047"><ele>168.5</ele><time>2026-03-28T15:40:28Z</time></trkpt><trkpt lat="44.84184400804005" lon="8.431370060722491"><ele>168.0</ele><time>2026-03-28T15:40:29Z</time></trkpt><trkpt lat="44.841764586845635" lon="8.431460703749677"><ele>167.5</ele><time>2026-03-28T15:40:30Z</time></trkpt><trkpt lat="44.841690000668805" lon="8.431540027103685"><ele>167.0</ele><time>2026-03-28T15:40:31Z</time></trkpt><trkpt lat="44.841638586121896" lon="8.431619222992293"><ele>166.5</ele><time>2026-03-28T15:40:32Z</time></trkpt><trkpt lat="44.84158385950127" lon="8.431690326590079"><ele>166.0</ele><time>2026-03-28T15:40:33Z</time></trkpt><trkpt lat="44.84151993066423" lon="8.4317890761476"><ele>166.0</ele><time>2026-03-28T15:40:35Z</time></trkpt><trkpt lat="44.84149669293248" lon="8.431958091399995"><ele>166.0</ele><time>2026-03-28T15:40:38Z</time></trkpt><trkpt lat="44.84154974331627" lon="8.432085904941093"><ele>166.0</ele><time>2026-03-28T15:40:39Z</time></trkpt><trkpt lat="44.8416033062642" lon="8.432239051341845"><ele>166.0</ele><time>2026-03-28T15:40:40Z</time></trkpt><trkpt lat="44.841663253685184" lon="8.432405918829067"><ele>165.5</ele><time>2026-03-28T15:40:41Z</time></trkpt><trkpt lat="44.84173595729131" lon="8.43257833057024"><ele>165.0</ele><time>2026-03-28T15:40:42Z</time></trkpt><trkpt lat="44.841815957143666" lon="8.432732224461663"><ele>164.5</ele><time>2026-03-28T15:40:43Z</time></trkpt><trkpt lat="44.84189025135078" lon="8.432872908240185"><ele>164.0</ele><time>2026-03-28T15:40:44Z</time></trkpt><trkpt lat="44.841953683434234" lon="8.433008960320812"><ele>163.25</ele><time>2026-03-28T15:40:45Z</time></trkpt><trkpt lat="44.84200999578958" lon="8.43313312477733"><ele>162.5</ele><time>2026-03-28T15:40:46Z</time></trkpt><trkpt lat="44.842065378899406" lon="8.433279096039875"><ele>161.75</ele><time>2026-03-28T15:40:47Z</time></trkpt><trkpt lat="44.84212074164141" lon="8.433426498688"><ele>161.0</ele><time>2026-03-28T15:40:48Z</time></trkpt><trkpt lat="44.84217863704033" lon="8.433567236500942"><ele>161.0</ele><time>2026-03-28T15:40:49Z</time></trkpt><trkpt lat="44.84223288443587" lon="8.433677664326195"><ele>161.0</ele><time>2026-03-28T15:40:50Z</time></trkpt><trkpt lat="44.8422856728437" lon="8.433783011116114"><ele>161.0</ele><time>2026-03-28T15:40:51Z</time></trkpt><trkpt lat="44.84233613327423" lon="8.433867831897315"><ele>161.0</ele><time>2026-03-28T15:40:52Z</time></trkpt><trkpt lat="44.84238269109616" lon="8.433933136022892"><ele>161.0</ele><time>2026-03-28T15:40:53Z</time></trkpt><trkpt lat="44.8424235517449" lon="8.434060075080833"><ele>161.0</ele><time>2026-03-28T15:40:55Z</time></trkpt><trkpt lat="44.84225568228779" lon="8.43413758309027"><ele>161.66666666666666</ele><time>2026-03-28T15:40:57Z</time></trkpt><trkpt lat="44.842194763723434" lon="8.434192419440972"><ele>162.33333333333331</ele><time>2026-03-28T15:40:58Z</time></trkpt><trkpt lat="44.8421227247729" lon="8.434231210209816"><ele>163.0</ele><time>2026-03-28T15:40:59Z</time></trkpt><trkpt lat="44.84204236556153" lon="8.43428741557364"><ele>163.66666666666666</ele><time>2026-03-28T15:41:00Z</time></trkpt><trkpt lat="44.841973480570346" lon="8.43432577065921"><ele>164.33333333333334</ele><time>2026-03-28T15:41:01Z</time></trkpt><trkpt lat="44.841904088170224" lon="8.43444561906788"><ele>165.0</ele><time>2026-03-28T15:41:03Z</time></trkpt><trkpt lat="44.841923461521915" lon="8.434570618060745"><ele>165.0</ele><time>2026-03-28T15:41:04Z</time></trkpt><trkpt lat="44.841964249472966" lon="8.434702121943134"><ele>165.0</ele><time>2026-03-28T15:41:05Z</time></trkpt><trkpt lat="44.84200224660566" lon="8.434850123909872"><ele>165.0</ele><time>2026-03-28T15:41:06Z</time></trkpt><trkpt lat="44.842032347202306" lon="8.435021743758703"><ele>165.0</ele><time>2026-03-28T15:41:07Z</time></trkpt><trkpt lat="44.84206860410912" lon="8.4351962330481"><ele>165.0</ele><time>2026-03-28T15:41:08Z</time></trkpt><trkpt lat="44.8421086602025" lon="8.435378014947071"><ele>165.0</ele><time>2026-03-28T15:41:09Z</time></trkpt><trkpt lat="44.842143622606834" lon="8.435571421352032"><ele>165.0</ele><time>2026-03-28T15:41:10Z</time></trkpt><trkpt lat="44.84217226604475" lon="8.435775594090059"><ele>165.0</ele><time>2026-03-28T15:41:11Z</time></trkpt><trkpt lat="44.84219402420766" lon="8.435973446238874"><ele>165.25</ele><time>2026-03-28T15:41:12Z</time></trkpt><trkpt lat="44.842206622162756" lon="8.436168332747322"><ele>165.5</ele><time>2026-03-28T15:41:13Z</time></trkpt><trkpt lat="44.8422140967254" lon="8.436353384052445"><ele>165.75</ele><time>2026-03-28T15:41:14Z</time></trkpt><trkpt lat="44.84222528290577" lon="8.436531603063344"><ele>166.0</ele><time>2026-03-28T15:41:15Z</time></trkpt><trkpt lat="44.84223242533646" lon="8.436711961753995"><ele>165.5</ele><time>2026-03-28T15:41:16Z</time></trkpt><trkpt lat="44.84222003502164" lon="8.436894729396831"><ele>165.0</ele><time>2026-03-28T15:41:17Z</time></trkpt><trkpt lat="44.842195285371595" lon="8.437078259054282"><ele>164.5</ele><time>2026-03-28T15:41:18Z</time></trkpt><trkpt lat="44.842166360570594" lon="8.43726408004728"><ele>164.0</ele><time>2026-03-28T15:41:19Z</time></trkpt><trkpt lat="44.84213137455084" lon="8.4374519414175"><ele>163.0</ele><time>2026-03-28T15:41:20Z</time></trkpt><trkpt lat="44.84209303835325" lon="8.43763745706198"><ele>162.0</ele><time>2026-03-28T15:41:21Z</time></trkpt><trkpt lat="44.8420497048385" lon="8.437822337023135"><ele>161.0</ele><time>2026-03-28T15:41:22Z</time></trkpt><trkpt lat="44.84200043194149" lon="8.438010362674346"><ele>160.0</ele><time>2026-03-28T15:41:23Z</time></trkpt><trkpt lat="44.841960909006005" lon="8.438181704357287"><ele>158.75</ele><time>2026-03-28T15:41:24Z</time></trkpt><trkpt lat="44.841926380148564" lon="8.438333052054471"><ele>157.5</ele><time>2026-03-28T15:41:25Z</time></trkpt><trkpt lat="44.841890499900884" lon="8.438485914365684"><ele>156.25</ele><time>2026-03-28T15:41:26Z</time></trkpt><trkpt lat="44.84185543456902" lon="8.438652847333179"><ele>155.0</ele><time>2026-03-28T15:41:27Z</time></trkpt><trkpt lat="44.84181657649523" lon="8.438826088084852"><ele>154.75</ele><time>2026-03-28T15:41:28Z</time></trkpt><trkpt lat="44.841778452912536" lon="8.439002182835788"><ele>154.5</ele><time>2026-03-28T15:41:29Z</time></trkpt><trkpt lat="44.84174036796513" lon="8.439182382041878"><ele>154.25</ele><time>2026-03-28T15:41:30Z</time></trkpt><trkpt lat="44.841705920559626" lon="8.439355432504449"><ele>154.0</ele><time>2026-03-28T15:41:31Z</time></trkpt><trkpt lat="44.84166772938391" lon="8.439526807937968"><ele>153.75</ele><time>2026-03-28T15:41:32Z</time></trkpt><trkpt lat="44.841624512424715" lon="8.439700780057338"><ele>153.5</ele><time>2026-03-28T15:41:33Z</time></trkpt><trkpt lat="44.84157362163201" lon="8.439869024161169"><ele>153.25</ele><time>2026-03-28T15:41:34Z</time></trkpt><trkpt lat="44.84151636072984" lon="8.440032634515797"><ele>153.0</ele><time>2026-03-28T15:41:35Z</time></trkpt><trkpt lat="44.8414544988009" lon="8.440189699335859"><ele>153.0</ele><time>2026-03-28T15:41:36Z</time></trkpt><trkpt lat="44.84138811664346" lon="8.440344382280935"><ele>153.0</ele><time>2026-03-28T15:41:37Z</time></trkpt><trkpt lat="44.84130989964157" lon="8.440490034985064"><ele>153.0</ele><time>2026-03-28T15:41:38Z</time></trkpt><trkpt lat="44.841220602671015" lon="8.440616671686257"><ele>153.0</ele><time>2026-03-28T15:41:39Z</time></trkpt><trkpt lat="44.8411210036296" lon="8.440727255649783"><ele>152.75</ele><time>2026-03-28T15:41:40Z</time></trkpt><trkpt lat="44.84102097041778" lon="8.440846669023147"><ele>152.5</ele><time>2026-03-28T15:41:41Z</time></trkpt><trkpt lat="44.84092082137007" lon="8.440967109450508"><ele>152.25</ele><time>2026-03-28T15:41:42Z</time></trkpt><trkpt lat="44.84082212942327" lon="8.441085204752207"><ele>152.0</ele><time>2026-03-28T15:41:43Z</time></trkpt><trkpt lat="44.84073032904999" lon="8.441204016664292"><ele>152.0</ele><time>2026-03-28T15:41:44Z</time></trkpt><trkpt lat="44.84065476746955" lon="8.441341980021402"><ele>152.0</ele><time>2026-03-28T15:41:45Z</time></trkpt><trkpt lat="44.84060012091387" lon="8.441495531591453"><ele>152.0</ele><time>2026-03-28T15:41:46Z</time></trkpt><trkpt lat="44.84054738432073" lon="8.441660668235846"><ele>152.0</ele><time>2026-03-28T15:41:47Z</time></trkpt><trkpt lat="44.84049908971911" lon="8.441835852023923"><ele>152.0</ele><time>2026-03-28T15:41:48Z</time></trkpt><trkpt lat="44.840457400987695" lon="8.442014844112444"><ele>152.0</ele><time>2026-03-28T15:41:49Z</time></trkpt><trkpt lat="44.840412110041775" lon="8.442201369263028"><ele>152.0</ele><time>2026-03-28T15:41:50Z</time></trkpt><trkpt lat="44.84036491017516" lon="8.442388585651678"><ele>152.0</ele><time>2026-03-28T15:41:51Z</time></trkpt><trkpt lat="44.84031618078068" lon="8.442576211106463"><ele>151.25</ele><time>2026-03-28T15:41:52Z</time></trkpt><trkpt lat="44.84026478993725" lon="8.442760473668343"><ele>150.5</ele><time>2026-03-28T15:41:53Z</time></trkpt><trkpt lat="44.84021664703399" lon="8.44294203606313"><ele>149.75</ele><time>2026-03-28T15:41:54Z</time></trkpt><trkpt lat="44.840171731050404" lon="8.443126303471416"><ele>149.0</ele><time>2026-03-28T15:41:55Z</time></trkpt><trkpt lat="44.84013833599263" lon="8.443296254004366"><ele>149.0</ele><time>2026-03-28T15:41:56Z</time></trkpt><trkpt lat="44.840113882632124" lon="8.443444560678179"><ele>149.0</ele><time>2026-03-28T15:41:57Z</time></trkpt><trkpt lat="44.84009809181118" lon="8.443587097996355"><ele>149.0</ele><time>2026-03-28T15:41:58Z</time></trkpt><trkpt lat="44.84008921550185" lon="8.443722177901009"><ele>149.0</ele><time>2026-03-28T15:41:59Z</time></trkpt><trkpt lat="44.8400851347093" lon="8.443847336926648"><ele>149.0</ele><time>2026-03-28T15:42:00Z</time></trkpt><trkpt lat="44.84008586653726" lon="8.443960567412926"><ele>149.0</ele><time>2026-03-28T15:42:01Z</time></trkpt><trkpt lat="44.84008747994989" lon="8.44406862155321"><ele>149.0</ele><time>2026-03-28T15:42:02Z</time></trkpt><trkpt lat="44.84009375145661" lon="8.444176002509364"><ele>149.0</ele><time>2026-03-28T15:42:03Z</time></trkpt><trkpt lat="44.840101836736906" lon="8.444280279714565"><ele>149.0</ele><time>2026-03-28T15:42:04Z</time></trkpt><trkpt lat="44.84012151005772" lon="8.444381570397297"><ele>149.0</ele><time>2026-03-28T15:42:05Z</time></trkpt><trkpt lat="44.840145009743395" lon="8.444486011729113"><ele>149.0</ele><time>2026-03-28T15:42:06Z</time></trkpt><trkpt lat="44.84017276352873" lon="8.444598388579971"><ele>149.0</ele><time>2026-03-28T15:42:07Z</time></trkpt><trkpt lat="44.84020821809907" lon="8.444718021716564"><ele>149.0</ele><time>2026-03-28T15:42:08Z</time></trkpt><trkpt lat="44.84025677578793" lon="8.444835133769153"><ele>149.0</ele><time>2026-03-28T15:42:09Z</time></trkpt><trkpt lat="44.8403169892648" lon="8.444945048151096"><ele>149.0</ele><time>2026-03-28T15:42:10Z</time></trkpt><trkpt lat="44.840387213864965" lon="8.445035868882453"><ele>149.0</ele><time>2026-03-28T15:42:11Z</time></trkpt><trkpt lat="44.84046438852571" lon="8.445109902822399"><ele>149.0</ele><time>2026-03-28T15:42:12Z</time></trkpt><trkpt lat="44.84054720934265" lon="8.445176112282734"><ele>149.0</ele><time>2026-03-28T15:42:13Z</time></trkpt><trkpt lat="44.84063013728961" lon="8.445238523932144"><ele>149.0</ele><time>2026-03-28T15:42:14Z</time></trkpt><trkpt lat="44.840705343382396" lon="8.445313515908262"><ele>149.0</ele><time>2026-03-28T15:42:15Z</time></trkpt><trkpt lat="44.84076619562764" lon="8.445414810103834"><ele>149.0</ele><time>2026-03-28T15:42:16Z</time></trkpt><trkpt lat="44.84080698082367" lon="8.44553984319734"><ele>148.4</ele><time>2026-03-28T15:42:17Z</time></trkpt><trkpt lat="44.84081947952766" lon="8.445671556239102"><ele>147.8</ele><time>2026-03-28T15:42:18Z</time></trkpt><trkpt lat="44.84080879520936" lon="8.445810631421363"><ele>147.2</ele><time>2026-03-28T15:42:19Z</time></trkpt><trkpt lat="44.84078524767529" lon="8.445950975621209"><ele>146.6</ele><time>2026-03-28T15:42:20Z</time></trkpt><trkpt lat="44.840759046609335" lon="8.446078051711208"><ele>146.0</ele><time>2026-03-28T15:42:21Z</time></trkpt><trkpt lat="44.84074096482822" lon="8.446207885565137"><ele>145.4</ele><time>2026-03-28T15:42:22Z</time></trkpt><trkpt lat="44.84073259212851" lon="8.446339301561379"><ele>144.8</ele><time>2026-03-28T15:42:23Z</time></trkpt><trkpt lat="44.840720244609415" lon="8.446473562329793"><ele>144.20000000000002</ele><time>2026-03-28T15:42:24Z</time></trkpt><trkpt lat="44.840692530242265" lon="8.446633300316348"><ele>143.6</ele><time>2026-03-28T15:42:25Z</time></trkpt><trkpt lat="44.84066326368706" lon="8.446770803166615"><ele>143.0</ele><time>2026-03-28T15:42:26Z</time></trkpt><trkpt lat="44.84063235365617" lon="8.446892431444361"><ele>143.0</ele><time>2026-03-28T15:42:27Z</time></trkpt><trkpt lat="44.840594893129605" lon="8.447013153944356"><ele>143.0</ele><time>2026-03-28T15:42:28Z</time></trkpt><trkpt lat="44.840545811148814" lon="8.447141429470953"><ele>143.0</ele><time>2026-03-28T15:42:29Z</time></trkpt><trkpt lat="44.840491267059456" lon="8.447303170261776"><ele>143.0</ele><time>2026-03-28T15:42:30Z</time></trkpt><trkpt lat="44.84043496705826" lon="8.447478019674552"><ele>140.5</ele><time>2026-03-28T15:42:31Z</time></trkpt><trkpt lat="44.84038140424795" lon="8.447665636388704"><ele>138.0</ele><time>2026-03-28T15:42:32Z</time></trkpt><trkpt lat="44.84032948590075" lon="8.44785115191479"><ele>135.5</ele><time>2026-03-28T15:42:33Z</time></trkpt><trkpt lat="44.84028213798279" lon="8.448020345081163"><ele>133.0</ele><time>2026-03-28T15:42:34Z</time></trkpt><trkpt lat="44.84023551214707" lon="8.448180988037919"><ele>132.8</ele><time>2026-03-28T15:42:35Z</time></trkpt><trkpt lat="44.84019208466325" lon="8.448331505764894"><ele>132.60000000000002</ele><time>2026-03-28T15:42:36Z</time></trkpt><trkpt lat="44.84014590293617" lon="8.448485574409892"><ele>132.39999999999998</ele><time>2026-03-28T15:42:37Z</time></trkpt><trkpt lat="44.84010514312156" lon="8.448627174520677"><ele>132.2</ele><time>2026-03-28T15:42:38Z</time></trkpt><trkpt lat="44.84006161055158" lon="8.448763149098967"><ele>132.0</ele><time>2026-03-28T15:42:39Z</time></trkpt><trkpt lat="44.84001444839102" lon="8.448874342490106"><ele>132.0</ele><time>2026-03-28T15:42:40Z</time></trkpt><trkpt lat="44.83993924306676" lon="8.448943130071497"><ele>132.0</ele><time>2026-03-28T15:42:41Z</time></trkpt><trkpt lat="44.83983163487128" lon="8.44892381259205"><ele>132.0</ele><time>2026-03-28T15:42:42Z</time></trkpt><trkpt lat="44.83972729566583" lon="8.44887901714813"><ele>132.0</ele><time>2026-03-28T15:42:43Z</time></trkpt><trkpt lat="44.83960509360352" lon="8.44885010321101"><ele>132.0</ele><time>2026-03-28T15:42:44Z</time></trkpt><trkpt lat="44.83947817725228" lon="8.448816110573622"><ele>131.75</ele><time>2026-03-28T15:42:45Z</time></trkpt><trkpt lat="44.839343114197874" lon="8.448779680445819"><ele>131.5</ele><time>2026-03-28T15:42:46Z</time></trkpt><trkpt lat="44.839211018868085" lon="8.448754136608327"><ele>131.25</ele><time>2026-03-28T15:42:47Z</time></trkpt><trkpt lat="44.83907821303388" lon="8.448735069219191"><ele>131.0</ele><time>2026-03-28T15:42:48Z</time></trkpt><trkpt lat="44.83894435096755" lon="8.44872041098657"><ele>131.0</ele><time>2026-03-28T15:42:49Z</time></trkpt><trkpt lat="44.83880896995961" lon="8.448714474745401"><ele>131.0</ele><time>2026-03-28T15:42:50Z</time></trkpt><trkpt lat="44.83867493540297" lon="8.448713288731843"><ele>131.0</ele><time>2026-03-28T15:42:51Z</time></trkpt><trkpt lat="44.83854381151873" lon="8.448702811309277"><ele>131.0</ele><time>2026-03-28T15:42:52Z</time></trkpt><trkpt lat="44.83841119159343" lon="8.44868525380804"><ele>131.25</ele><time>2026-03-28T15:42:53Z</time></trkpt><trkpt lat="44.838278258195345" lon="8.448669273633161"><ele>131.5</ele><time>2026-03-28T15:42:54Z</time></trkpt><trkpt lat="44.83815526843649" lon="8.448616237360461"><ele>131.75</ele><time>2026-03-28T15:42:55Z</time></trkpt><trkpt lat="44.838041870416056" lon="8.448542505911217"><ele>132.0</ele><time>2026-03-28T15:42:56Z</time></trkpt><trkpt lat="44.837927621709" lon="8.448462412987519"><ele>132.0</ele><time>2026-03-28T15:42:57Z</time></trkpt><trkpt lat="44.837808181623664" lon="8.448401654970805"><ele>132.0</ele><time>2026-03-28T15:42:58Z</time></trkpt><trkpt lat="44.83769314190707" lon="8.448333266130852"><ele>132.0</ele><time>2026-03-28T15:42:59Z</time></trkpt><trkpt lat="44.8375808922714" lon="8.44826974995309"><ele>132.0</ele><time>2026-03-28T15:43:00Z</time></trkpt><trkpt lat="44.8374666180543" lon="8.448235314389754"><ele>133.6</ele><time>2026-03-28T15:43:01Z</time></trkpt><trkpt lat="44.83735432541538" lon="8.448242921934499"><ele>135.2</ele><time>2026-03-28T15:43:02Z</time></trkpt><trkpt lat="44.837255041657855" lon="8.448246083074075"><ele>136.8</ele><time>2026-03-28T15:43:03Z</time></trkpt><trkpt lat="44.83716663470088" lon="8.44825037627888"><ele>138.4</ele><time>2026-03-28T15:43:04Z</time></trkpt><trkpt lat="44.83708778204592" lon="8.448267061938632"><ele>140.0</ele><time>2026-03-28T15:43:05Z</time></trkpt><trkpt lat="44.83700693364845" lon="8.448284592983532"><ele>140.0</ele><time>2026-03-28T15:43:06Z</time></trkpt><trkpt lat="44.83691098869931" lon="8.448305397548264"><ele>140.0</ele><time>2026-03-28T15:43:07Z</time></trkpt><trkpt lat="44.83680855645319" lon="8.448327390936745"><ele>140.0</ele><time>2026-03-28T15:43:08Z</time></trkpt><trkpt lat="44.83671185869633" lon="8.448330180463634"><ele>140.0</ele><time>2026-03-28T15:43:09Z</time></trkpt><trkpt lat="44.836638925144314" lon="8.448322314492193"><ele>140.0</ele><time>2026-03-28T15:43:10Z</time></trkpt><trkpt lat="44.83649810104124" lon="8.447471869203712"><ele>140.25</ele><time>2026-03-28T15:43:11Z</time></trkpt><trkpt lat="44.836406350338365" lon="8.447364208283725"><ele>140.5</ele><time>2026-03-28T15:43:12Z</time></trkpt><trkpt lat="44.83630425739375" lon="8.447265880175934"><ele>140.75</ele><time>2026-03-28T15:43:13Z</time></trkpt><trkpt lat="44.83619644531709" lon="8.447173311450703"><ele>141.0</ele><time>2026-03-28T15:43:14Z</time></trkpt><trkpt lat="44.83609002085834" lon="8.447076984291469"><ele>140.0</ele><time>2026-03-28T15:43:15Z</time></trkpt><trkpt lat="44.8359807452329" lon="8.446982640742016"><ele>139.0</ele><time>2026-03-28T15:43:16Z</time></trkpt><trkpt lat="44.83587133572277" lon="8.446899262174565"><ele>138.0</ele><time>2026-03-28T15:43:17Z</time></trkpt><trkpt lat="44.835760005024376" lon="8.446808654448205"><ele>137.0</ele><time>2026-03-28T15:43:18Z</time></trkpt><trkpt lat="44.835655467767985" lon="8.446706364534961"><ele>137.5</ele><time>2026-03-28T15:43:19Z</time></trkpt><trkpt lat="44.83555089961086" lon="8.446598957449"><ele>138.0</ele><time>2026-03-28T15:43:20Z</time></trkpt><trkpt lat="44.83544641259775" lon="8.446493533691463"><ele>138.5</ele><time>2026-03-28T15:43:21Z</time></trkpt><trkpt lat="44.835343709101004" lon="8.44638465110455"><ele>139.0</ele><time>2026-03-28T15:43:22Z</time></trkpt><trkpt lat="44.83524310648813" lon="8.446268928403562"><ele>141.0</ele><time>2026-03-28T15:43:23Z</time></trkpt><trkpt lat="44.83513614592531" lon="8.446152337694288"><ele>143.0</ele><time>2026-03-28T15:43:24Z</time></trkpt><trkpt lat="44.83502665425242" lon="8.446047674367398"><ele>145.0</ele><time>2026-03-28T15:43:25Z</time></trkpt><trkpt lat="44.83490926999558" lon="8.445961855452875"><ele>147.0</ele><time>2026-03-28T15:43:26Z</time></trkpt><trkpt lat="44.83478651163802" lon="8.445886143069956"><ele>147.0</ele><time>2026-03-28T15:43:27Z</time></trkpt><trkpt lat="44.8346656632512" lon="8.445811694820293"><ele>147.0</ele><time>2026-03-28T15:43:28Z</time></trkpt><trkpt lat="44.834541520082446" lon="8.445734623838987"><ele>147.0</ele><time>2026-03-28T15:43:29Z</time></trkpt><trkpt lat="44.834423569047786" lon="8.445664228094994"><ele>147.0</ele><time>2026-03-28T15:43:30Z</time></trkpt><trkpt lat="44.834302755565396" lon="8.445591303729666"><ele>147.5</ele><time>2026-03-28T15:43:31Z</time></trkpt><trkpt lat="44.83418213633504" lon="8.445521175809503"><ele>148.0</ele><time>2026-03-28T15:43:32Z</time></trkpt><trkpt lat="44.83406327980047" lon="8.44545086578465"><ele>148.5</ele><time>2026-03-28T15:43:33Z</time></trkpt><trkpt lat="44.833946510749975" lon="8.44537616910931"><ele>149.0</ele><time>2026-03-28T15:43:34Z</time></trkpt><trkpt lat="44.83382981385182" lon="8.445287003279907"><ele>149.0</ele><time>2026-03-28T15:43:35Z</time></trkpt><trkpt lat="44.83371954404575" lon="8.445196019693855"><ele>149.0</ele><time>2026-03-28T15:43:36Z</time></trkpt><trkpt lat="44.83360981623035" lon="8.445111465228777"><ele>149.0</ele><time>2026-03-28T15:43:37Z</time></trkpt><trkpt lat="44.83351451678855" lon="8.445045221748272"><ele>149.0</ele><time>2026-03-28T15:43:38Z</time></trkpt><trkpt lat="44.83340569693761" lon="8.445006280819337"><ele>149.0</ele><time>2026-03-28T15:43:39Z</time></trkpt><trkpt lat="44.83329057940481" lon="8.444953034712626"><ele>149.0</ele><time>2026-03-28T15:43:40Z</time></trkpt><trkpt lat="44.83317498072795" lon="8.444873772771402"><ele>149.0</ele><time>2026-03-28T15:43:41Z</time></trkpt><trkpt lat="44.83305824645643" lon="8.44479725618795"><ele>149.0</ele><time>2026-03-28T15:43:42Z</time></trkpt><trkpt lat="44.832949782924004" lon="8.444717845561176"><ele>149.0</ele><time>2026-03-28T15:43:43Z</time></trkpt><trkpt lat="44.83283650701919" lon="8.4446306708358"><ele>149.0</ele><time>2026-03-28T15:43:44Z</time></trkpt><trkpt lat="44.83273052201395" lon="8.44453882357244"><ele>149.0</ele><time>2026-03-28T15:43:45Z</time></trkpt><trkpt lat="44.8326222817804" lon="8.44443695184417"><ele>149.0</ele><time>2026-03-28T15:43:46Z</time></trkpt><trkpt lat="44.83252030353147" lon="8.444335378255218"><ele>149.75</ele><time>2026-03-28T15:43:47Z</time></trkpt><trkpt lat="44.83241416779361" lon="8.4442341963595"><ele>150.5</ele><time>2026-03-28T15:43:48Z</time></trkpt><trkpt lat="44.832305254900724" lon="8.444142993112818"><ele>151.25</ele><time>2026-03-28T15:43:49Z</time></trkpt><trkpt lat="44.832209412063506" lon="8.444067832749026"><ele>152.0</ele><time>2026-03-28T15:43:50Z</time></trkpt><trkpt lat="44.83213178197745" lon="8.444003972889345"><ele>152.0</ele><time>2026-03-28T15:43:51Z</time></trkpt><trkpt lat="44.83206537545028" lon="8.443925973657183"><ele>152.0</ele><time>2026-03-28T15:43:52Z</time></trkpt><trkpt lat="44.83200038885541" lon="8.44384029720087"><ele>152.0</ele><time>2026-03-28T15:43:53Z</time></trkpt><trkpt lat="44.83193338086026" lon="8.443764488334072"><ele>152.0</ele><time>2026-03-28T15:43:54Z</time></trkpt><trkpt lat="44.831849530349075" lon="8.443689953302348"><ele>152.0</ele><time>2026-03-28T15:43:55Z</time></trkpt><trkpt lat="44.831748591905004" lon="8.44361455038655"><ele>152.75</ele><time>2026-03-28T15:43:56Z</time></trkpt><trkpt lat="44.83166641926816" lon="8.443505189985919"><ele>153.5</ele><time>2026-03-28T15:43:57Z</time></trkpt><trkpt lat="44.83160060574881" lon="8.443393227741634"><ele>154.25</ele><time>2026-03-28T15:43:58Z</time></trkpt><trkpt lat="44.83152518748877" lon="8.443252120264546"><ele>155.0</ele><time>2026-03-28T15:43:59Z</time></trkpt><trkpt lat="44.8314308264152" lon="8.443147223006225"><ele>155.0</ele><time>2026-03-28T15:44:00Z</time></trkpt><trkpt lat="44.83131808741856" lon="8.443045654820425"><ele>155.0</ele><time>2026-03-28T15:44:01Z</time></trkpt><trkpt lat="44.83121385644674" lon="8.44295236052516"><ele>155.0</ele><time>2026-03-28T15:44:02Z</time></trkpt><trkpt lat="44.83112108415424" lon="8.442848424481245"><ele>155.0</ele><time>2026-03-28T15:44:03Z</time></trkpt><trkpt lat="44.83103369812221" lon="8.442719502458873"><ele>155.25</ele><time>2026-03-28T15:44:04Z</time></trkpt><trkpt lat="44.83093424161703" lon="8.442596874856653"><ele>155.5</ele><time>2026-03-28T15:44:05Z</time></trkpt><trkpt lat="44.83082478192282" lon="8.442485920779633"><ele>155.75</ele><time>2026-03-28T15:44:06Z</time></trkpt><trkpt lat="44.8307093857992" lon="8.442368697453716"><ele>156.0</ele><time>2026-03-28T15:44:07Z</time></trkpt><trkpt lat="44.830606265123535" lon="8.442265217055386"><ele>156.0</ele><time>2026-03-28T15:44:08Z</time></trkpt><trkpt lat="44.83052340700118" lon="8.442174150915152"><ele>156.0</ele><time>2026-03-28T15:44:09Z</time></trkpt><trkpt lat="44.83045270660669" lon="8.442093016068444"><ele>156.0</ele><time>2026-03-28T15:44:10Z</time></trkpt><trkpt lat="44.83039138851811" lon="8.442027293666843"><ele>156.0</ele><time>2026-03-28T15:44:11Z</time></trkpt><trkpt lat="44.83031278427477" lon="8.441964784608116"><ele>156.0</ele><time>2026-03-28T15:44:13Z</time></trkpt><trkpt lat="44.83025566488229" lon="8.442063941897073"><ele>156.0</ele><time>2026-03-28T15:44:16Z</time></trkpt><trkpt lat="44.8302536811831" lon="8.442170568434715"><ele>156.0</ele><time>2026-03-28T15:44:17Z</time></trkpt><trkpt lat="44.83025730009266" lon="8.44230505662511"><ele>156.0</ele><time>2026-03-28T15:44:18Z</time></trkpt><trkpt lat="44.83024947156988" lon="8.442455490294739"><ele>156.0</ele><time>2026-03-28T15:44:19Z</time></trkpt><trkpt lat="44.83022035760532" lon="8.442630982157016"><ele>156.0</ele><time>2026-03-28T15:44:20Z</time></trkpt><trkpt lat="44.83016641493385" lon="8.44281736158748"><ele>154.25</ele><time>2026-03-28T15:44:21Z</time></trkpt><trkpt lat="44.830109517438856" lon="8.44298568787679"><ele>152.5</ele><time>2026-03-28T15:44:22Z</time></trkpt><trkpt lat="44.83004813567663" lon="8.443152838920401"><ele>150.75</ele><time>2026-03-28T15:44:23Z</time></trkpt><trkpt lat="44.8299576143442" lon="8.443311590639683"><ele>149.0</ele><time>2026-03-28T15:44:24Z</time></trkpt><trkpt lat="44.82985117479091" lon="8.443457131299777"><ele>149.0</ele><time>2026-03-28T15:44:25Z</time></trkpt><trkpt lat="44.82974283523179" lon="8.443603681898406"><ele>149.0</ele><time>2026-03-28T15:44:26Z</time></trkpt><trkpt lat="44.829658493351786" lon="8.443748770858877"><ele>149.0</ele><time>2026-03-28T15:44:27Z</time></trkpt><trkpt lat="44.829597149365746" lon="8.443903181551278"><ele>149.0</ele><time>2026-03-28T15:44:28Z</time></trkpt><trkpt lat="44.82956560053232" lon="8.444082082942577"><ele>147.75</ele><time>2026-03-28T15:44:29Z</time></trkpt><trkpt lat="44.829540494058286" lon="8.444280165832984"><ele>146.5</ele><time>2026-03-28T15:44:30Z</time></trkpt><trkpt lat="44.82954711470096" lon="8.44448765935313"><ele>145.25</ele><time>2026-03-28T15:44:31Z</time></trkpt><trkpt lat="44.82956366740008" lon="8.444694761915365"><ele>144.0</ele><time>2026-03-28T15:44:32Z</time></trkpt><trkpt lat="44.829577488338046" lon="8.444901829562868"><ele>142.66666666666666</ele><time>2026-03-28T15:44:33Z</time></trkpt><trkpt lat="44.82956977915756" lon="8.445111632106753"><ele>141.33333333333331</ele><time>2026-03-28T15:44:34Z</time></trkpt><trkpt lat="44.82953119689032" lon="8.445325096191118"><ele>140.0</ele><time>2026-03-28T15:44:35Z</time></trkpt><trkpt lat="44.82947251870806" lon="8.445517119075442"><ele>138.25</ele><time>2026-03-28T15:44:36Z</time></trkpt><trkpt lat="44.829420869975586" lon="8.445712297435488"><ele>136.5</ele><time>2026-03-28T15:44:37Z</time></trkpt><trkpt lat="44.82937515602092" lon="8.44590590540172"><ele>134.75</ele><time>2026-03-28T15:44:38Z</time></trkpt><trkpt lat="44.82933120449418" lon="8.446101573152827"><ele>133.0</ele><time>2026-03-28T15:44:39Z</time></trkpt><trkpt lat="44.829293240799025" lon="8.446294701095074"><ele>132.25</ele><time>2026-03-28T15:44:40Z</time></trkpt><trkpt lat="44.82925720857149" lon="8.44651004753675"><ele>131.5</ele><time>2026-03-28T15:44:41Z</time></trkpt><trkpt lat="44.829248068451705" lon="8.446712737621157"><ele>130.75</ele><time>2026-03-28T15:44:42Z</time></trkpt><trkpt lat="44.82924092696783" lon="8.446915913882728"><ele>130.0</ele><time>2026-03-28T15:44:43Z</time></trkpt><trkpt lat="44.829217622093466" lon="8.447128940894926"><ele>129.5</ele><time>2026-03-28T15:44:44Z</time></trkpt><trkpt lat="44.829195953904964" lon="8.447316505783789"><ele>129.0</ele><time>2026-03-28T15:44:45Z</time></trkpt><trkpt lat="44.829172964462" lon="8.447511489666292"><ele>128.5</ele><time>2026-03-28T15:44:46Z</time></trkpt><trkpt lat="44.82915687915626" lon="8.447701811770514"><ele>128.0</ele><time>2026-03-28T15:44:47Z</time></trkpt><trkpt lat="44.82912588679391" lon="8.447895954860222"><ele>128.0</ele><time>2026-03-28T15:44:48Z</time></trkpt><trkpt lat="44.829097218102376" lon="8.448094772783511"><ele>128.0</ele><time>2026-03-28T15:44:49Z</time></trkpt><trkpt lat="44.82906568591133" lon="8.448290096338939"><ele>128.0</ele><time>2026-03-28T15:44:50Z</time></trkpt><trkpt lat="44.82903626472888" lon="8.448484358861952"><ele>128.0</ele><time>2026-03-28T15:44:51Z</time></trkpt><trkpt lat="44.82900380549183" lon="8.448677930919121"><ele>128.0</ele><time>2026-03-28T15:44:52Z</time></trkpt><trkpt lat="44.82897493795763" lon="8.44887002974984"><ele>128.0</ele><time>2026-03-28T15:44:53Z</time></trkpt><trkpt lat="44.82895028955793" lon="8.44905812116994"><ele>128.0</ele><time>2026-03-28T15:44:54Z</time></trkpt><trkpt lat="44.8289205844426" lon="8.449249458409906"><ele>128.0</ele><time>2026-03-28T15:44:55Z</time></trkpt><trkpt lat="44.828884422655385" lon="8.449434546633778"><ele>128.0</ele><time>2026-03-28T15:44:56Z</time></trkpt><trkpt lat="44.82885238549779" lon="8.44962783000994"><ele>128.0</ele><time>2026-03-28T15:44:57Z</time></trkpt><trkpt lat="44.82882550865192" lon="8.449823770018671"><ele>128.0</ele><time>2026-03-28T15:44:58Z</time></trkpt><trkpt lat="44.82880698327349" lon="8.45001081183887"><ele>128.0</ele><time>2026-03-28T15:44:59Z</time></trkpt><trkpt lat="44.82878204357765" lon="8.450185920663964"><ele>128.0</ele><time>2026-03-28T15:45:00Z</time></trkpt><trkpt lat="44.828762831371165" lon="8.450343363636563"><ele>128.0</ele><time>2026-03-28T15:45:01Z</time></trkpt><trkpt lat="44.828741713614825" lon="8.450497077432338"><ele>128.0</ele><time>2026-03-28T15:45:02Z</time></trkpt><trkpt lat="44.828718435733094" lon="8.450656456474201"><ele>128.0</ele><time>2026-03-28T15:45:03Z</time></trkpt><trkpt lat="44.82869171859268" lon="8.450819089426743"><ele>127.75</ele><time>2026-03-28T15:45:04Z</time></trkpt><trkpt lat="44.828649182312816" lon="8.450976400664688"><ele>127.5</ele><time>2026-03-28T15:45:05Z</time></trkpt><trkpt lat="44.82860375555441" lon="8.451131448214902"><ele>127.25</ele><time>2026-03-28T15:45:06Z</time></trkpt><trkpt lat="44.82856153053752" lon="8.451290255199652"><ele>127.0</ele><time>2026-03-28T15:45:07Z</time></trkpt><trkpt lat="44.828528309219244" lon="8.451445668747347"><ele>127.0</ele><time>2026-03-28T15:45:08Z</time></trkpt><trkpt lat="44.82849357923221" lon="8.45159450861686"><ele>126.99999999999999</ele><time>2026-03-28T15:45:09Z</time></trkpt><trkpt lat="44.82846587983759" lon="8.451729994802868"><ele>126.99999999999999</ele><time>2026-03-28T15:45:10Z</time></trkpt><trkpt lat="44.82844405267647" lon="8.45185665907056"><ele>127.0</ele><time>2026-03-28T15:45:11Z</time></trkpt><trkpt lat="44.828429478175224" lon="8.451979818337021"><ele>127.0</ele><time>2026-03-28T15:45:12Z</time></trkpt><trkpt lat="44.828426567535956" lon="8.452107751245235"><ele>127.16666666666667</ele><time>2026-03-28T15:45:13Z</time></trkpt><trkpt lat="44.82842987109013" lon="8.452221084986823"><ele>127.33333333333334</ele><time>2026-03-28T15:45:14Z</time></trkpt><trkpt lat="44.82843886589992" lon="8.452325421655853"><ele>127.5</ele><time>2026-03-28T15:45:15Z</time></trkpt><trkpt lat="44.82843940783207" lon="8.452420625003104"><ele>127.66666666666666</ele><time>2026-03-28T15:45:16Z</time></trkpt><trkpt lat="44.82845216819977" lon="8.452580339017247"><ele>127.83333333333333</ele><time>2026-03-28T15:45:18Z</time></trkpt><trkpt lat="44.82846390010363" lon="8.452667927600897"><ele>128.0</ele><time>2026-03-28T15:45:19Z</time></trkpt><trkpt lat="44.828448468856664" lon="8.452764762903952"><ele>128.0</ele><time>2026-03-28T15:45:21Z</time></trkpt><trkpt lat="44.828309569570294" lon="8.452758274254089"><ele>128.0</ele><time>2026-03-28T15:45:22Z</time></trkpt><trkpt lat="44.82821637093094" lon="8.452779376192627"><ele>128.0</ele><time>2026-03-28T15:45:23Z</time></trkpt><trkpt lat="44.828115199687865" lon="8.452796977380519"><ele>128.0</ele><time>2026-03-28T15:45:24Z</time></trkpt><trkpt lat="44.82800391107841" lon="8.452826174978139"><ele>128.0</ele><time>2026-03-28T15:45:25Z</time></trkpt><trkpt lat="44.827888744509174" lon="8.45284698829575"><ele>128.0</ele><time>2026-03-28T15:45:26Z</time></trkpt><trkpt lat="44.82778483010098" lon="8.452864066717497"><ele>128.0</ele><time>2026-03-28T15:45:27Z</time></trkpt><trkpt lat="44.827687595327" lon="8.452888525515164"><ele>128.0</ele><time>2026-03-28T15:45:28Z</time></trkpt><trkpt lat="44.82760296919636" lon="8.452899030500797"><ele>128.0</ele><time>2026-03-28T15:45:29Z</time></trkpt><trkpt lat="44.82750322645476" lon="8.452931188756867"><ele>128.0</ele><time>2026-03-28T15:45:31Z</time></trkpt><trkpt lat="44.82743324076585" lon="8.452946676801108"><ele>128.0</ele><time>2026-03-28T15:45:36Z</time></trkpt><trkpt lat="44.827483785602354" lon="8.45317967905919"><ele>128.0</ele><time>2026-03-28T15:45:37Z</time></trkpt><trkpt lat="44.82750329136735" lon="8.453297864934132"><ele>128.0</ele><time>2026-03-28T15:45:38Z</time></trkpt><trkpt lat="44.82750104908831" lon="8.453427548660992"><ele>128.0</ele><time>2026-03-28T15:45:39Z</time></trkpt><trkpt lat="44.827507572509944" lon="8.453565786759173"><ele>128.0</ele><time>2026-03-28T15:45:40Z</time></trkpt><trkpt lat="44.8275243975489" lon="8.453715266660248"><ele>127.83333333333333</ele><time>2026-03-28T15:45:41Z</time></trkpt><trkpt lat="44.82752787895645" lon="8.453847892041628"><ele>127.66666666666666</ele><time>2026-03-28T15:45:42Z</time></trkpt><trkpt lat="44.82756171705893" lon="8.453956124530153"><ele>127.5</ele><time>2026-03-28T15:45:43Z</time></trkpt><trkpt lat="44.827581664334545" lon="8.454069879954252"><ele>127.33333333333334</ele><time>2026-03-28T15:45:44Z</time></trkpt><trkpt lat="44.82757180351745" lon="8.454177507131623"><ele>127.16666666666667</ele><time>2026-03-28T15:45:45Z</time></trkpt><trkpt lat="44.827563786950286" lon="8.454284016546564"><ele>127.0</ele><time>2026-03-28T15:45:46Z</time></trkpt><trkpt lat="44.827554030007725" lon="8.454384981101626"><ele>127.0</ele><time>2026-03-28T15:45:47Z</time></trkpt><trkpt lat="44.82750068720309" lon="8.454574738355214"><ele>126.99999999999999</ele><time>2026-03-28T15:45:50Z</time></trkpt><trkpt lat="44.827602072971686" lon="8.454659276654771"><ele>126.99999999999999</ele><time>2026-03-28T15:45:54Z</time></trkpt><trkpt lat="44.82769652236953" lon="8.454637389330658"><ele>127.0</ele><time>2026-03-28T15:45:55Z</time></trkpt><trkpt lat="44.82778084721602" lon="8.454597610264374"><ele>127.0</ele><time>2026-03-28T15:45:56Z</time></trkpt><trkpt lat="44.82786263017058" lon="8.454562256312995"><ele>127.19999999999999</ele><time>2026-03-28T15:45:57Z</time></trkpt><trkpt lat="44.827950268894504" lon="8.454541556707461"><ele>127.39999999999999</ele><time>2026-03-28T15:45:58Z</time></trkpt><trkpt lat="44.82802953219013" lon="8.45453012240757"><ele>127.60000000000001</ele><time>2026-03-28T15:45:59Z</time></trkpt><trkpt lat="44.82812074846328" lon="8.454499844033966"><ele>127.80000000000001</ele><time>2026-03-28T15:46:00Z</time></trkpt><trkpt lat="44.82820920014006" lon="8.454463159114688"><ele>128.0</ele><time>2026-03-28T15:46:01Z</time></trkpt><trkpt lat="44.828308168745664" lon="8.454440723727682"><ele>127.99999999999999</ele><time>2026-03-28T15:46:02Z</time></trkpt><trkpt lat="44.828374480029154" lon="8.454428859107121"><ele>128.0</ele><time>2026-03-28T15:46:03Z</time></trkpt><trkpt lat="44.82846365800445" lon="8.454408258719207"><ele>128.0</ele><time>2026-03-28T15:46:04Z</time></trkpt><trkpt lat="44.82854774041955" lon="8.45438458743517"><ele>128.0</ele><time>2026-03-28T15:46:05Z</time></trkpt><trkpt lat="44.828621723356335" lon="8.454361449636819"><ele>127.99999999999999</ele><time>2026-03-28T15:46:06Z</time></trkpt><trkpt lat="44.828716003701516" lon="8.454316663077318"><ele>128.0</ele><time>2026-03-28T15:46:07Z</time></trkpt><trkpt lat="44.828819884443845" lon="8.454285864916397"><ele>128.25</ele><time>2026-03-28T15:46:08Z</time></trkpt><trkpt lat="44.82891465981176" lon="8.454260752488219"><ele>128.5</ele><time>2026-03-28T15:46:09Z</time></trkpt><trkpt lat="44.829018708453084" lon="8.454262215645922"><ele>128.75</ele><time>2026-03-28T15:46:10Z</time></trkpt><trkpt lat="44.829154842850116" lon="8.454256799324803"><ele>129.0</ele><time>2026-03-28T15:46:11Z</time></trkpt><trkpt lat="44.82927460087074" lon="8.45425151827849"><ele>129.2</ele><time>2026-03-28T15:46:12Z</time></trkpt><trkpt lat="44.829387473016524" lon="8.45423973831677"><ele>129.4</ele><time>2026-03-28T15:46:13Z</time></trkpt><trkpt lat="44.82948638753896" lon="8.454241818574603"><ele>129.6</ele><time>2026-03-28T15:46:14Z</time></trkpt><trkpt lat="44.8295785652679" lon="8.454245229125858"><ele>129.8</ele><time>2026-03-28T15:46:15Z</time></trkpt><trkpt lat="44.82966021432965" lon="8.454246581058998"><ele>130.0</ele><time>2026-03-28T15:46:16Z</time></trkpt><trkpt lat="44.82976288930713" lon="8.454251197020069"><ele>130.0</ele><time>2026-03-28T15:46:18Z</time></trkpt><trkpt lat="44.82982585051273" lon="8.454277008083075"><ele>130.0</ele><time>2026-03-28T15:46:20Z</time></trkpt><trkpt lat="44.829957168149605" lon="8.45428708087222"><ele>130.0</ele><time>2026-03-28T15:46:22Z</time></trkpt><trkpt lat="44.83002519560408" lon="8.454286795355044"><ele>130.0</ele><time>2026-03-28T15:46:23Z</time></trkpt><trkpt lat="44.830086025439684" lon="8.454317331973494"><ele>130.0</ele><time>2026-03-28T15:46:25Z</time></trkpt><trkpt lat="44.83007494658153" lon="8.454449289819564"><ele>130.0</ele><time>2026-03-28T15:46:27Z</time></trkpt><trkpt lat="44.830068598852385" lon="8.454551196271947"><ele>129.66666666666669</ele><time>2026-03-28T15:46:28Z</time></trkpt><trkpt lat="44.830052223679644" lon="8.454671526863562"><ele>129.33333333333334</ele><time>2026-03-28T15:46:29Z</time></trkpt><trkpt lat="44.83004966530788" lon="8.454783373090764"><ele>129.0</ele><time>2026-03-28T15:46:30Z</time></trkpt><trkpt lat="44.8300537101113" lon="8.454902224436033"><ele>128.66666666666666</ele><time>2026-03-28T15:46:31Z</time></trkpt><trkpt lat="44.83004443111792" lon="8.45501113151849"><ele>128.33333333333331</ele><time>2026-03-28T15:46:32Z</time></trkpt><trkpt lat="44.8300400858653" lon="8.455122871772424"><ele>128.0</ele><time>2026-03-28T15:46:33Z</time></trkpt><trkpt lat="44.830037538077605" lon="8.455244041842992"><ele>128.0</ele><time>2026-03-28T15:46:34Z</time></trkpt><trkpt lat="44.830029652060055" lon="8.45536184083258"><ele>128.0</ele><time>2026-03-28T15:46:35Z</time></trkpt><trkpt lat="44.83002065051064" lon="8.455460960146793"><ele>125.0</ele><time>2026-03-28T15:46:36Z</time></trkpt><trkpt lat="44.8300114195228" lon="8.455598899439122"><ele>125.0</ele><time>2026-03-28T15:46:38Z</time></trkpt><trkpt lat="44.82999274259198" lon="8.455694025498769"><ele>125.0</ele><time>2026-03-28T15:47:16Z</time></trkpt></trkseg></trk></gpx>